<?xml version="1.0" encoding="UTF-8"?>
<gpx xmlns="http://www.topografix.com/GPX/1/1" xmlns:gpsies="http://www.gpsies.com/GPX/1/0" creator="GPSies http://www.gpsies.com - GBI Toscana 2018 Day 1 Track 2 final (Pisa-Lucca)" version="1.1" xmlns:xsi="http://www.w3.org/2001/XMLSchema-instance" xsi:schemaLocation="http://www.topografix.com/GPX/1/1 http://www.topografix.com/GPX/1/1/gpx.xsd http://www.gpsies.com/GPX/1/0 http://www.gpsies.com/gpsies.xsd">
  <metadata>
    <name>GBIIT21 D1 T2</name>
    <author>
      <name>TOAO</name>
      <link href="http://www.gpsies.com/mapUser.do?username=TOAO">
        <text>TOAO on GPSies.com</text>
        <type>GPSiesUserOnWeb</type>
      </link>
    </author>
    <link href="http://www.gpsies.com/map.do?fileId=euslqygcosrlngny">
      <text>GBIIT21 D1 T2</text>
      <type>trackOnWeb</type>
    </link>
    <time>2018-03-27T17:47:58Z</time>
    <extensions>
      <gpsies:property>one-way trip</gpsies:property>
      <gpsies:trackLengthMeter>107344.34274911683</gpsies:trackLengthMeter>
      <gpsies:totalAscentMeter>1358.0</gpsies:totalAscentMeter>
      <gpsies:totalDescentMeter>1353.0</gpsies:totalDescentMeter>
      <gpsies:minHeightMeter>-1.0</gpsies:minHeightMeter>
      <gpsies:maxHeightMeter>354.0</gpsies:maxHeightMeter>
    </extensions>
  </metadata>
  <wpt lat="43.70551108" lon="10.43885707">
    <ele>5.0000000</ele>
    <name>Hotel San Ranieri/Tourstart</name>
    <sym>generic</sym>
    <type>Generic</type>
  </wpt>
  <wpt lat="43.72296315" lon="10.39662837">
    <ele>9.0000000</ele>
    <name>Leaning Tower</name>
    <sym>sightseeing</sym>
    <type>Sightseeing</type>
  </wpt>
  <wpt lat="43.84673407" lon="10.50769329">
    <ele>22.000000</ele>
    <name>Pedestrian area, walk the bike!</name>
    <sym>attention</sym>
    <type>Attention</type>
  </wpt>
  <wpt lat="43.83457321" lon="10.48748552">
    <ele>11.000000</ele>
    <name>Villa Corte degli Dei</name>
    <sym>hostel</sym>
    <type>Hostel</type>
  </wpt>
  <wpt lat="43.90963454" lon="10.30453205">
    <ele>225.00000</ele>
    <name>Steep decline</name>
    <sym>attention</sym>
    <type>Attention</type>
  </wpt>
  <trk>
    <name>GBIIT21 D1 T2</name>
    <link href="http://www.gpsies.com/map.do?fileId=euslqygcosrlngny">
      <type>trackOnWeb</type>
    </link>
    <link href="http://www.gpsies.com/charts/eu/map/euslqygcosrlngny_map.png">
      <type>elevationChartUrlMap</type>
    </link>
    <link href="http://www.gpsies.com/charts/eu/mapThumb/euslqygcosrlngny_mapThumb.png">
      <type>elevationChartUrlMapThumb</type>
    </link>
    <link href="http://www.gpsies.com/charts/eu/tab/euslqygcosrlngny_tab.png">
      <type>elevationChartUrlTab</type>
    </link>
    <trkseg>
      <trkpt lat="43.70579110" lon="10.43836190">
        <ele>10.000000</ele>
        <time>2010-01-01T00:00:00Z</time>
      </trkpt>
      <trkpt lat="43.70510770" lon="10.43915210">
        <ele>3.0000000</ele>
        <time>2010-01-01T00:00:35Z</time>
      </trkpt>
      <trkpt lat="43.70647660" lon="10.44055220">
        <ele>4.0000000</ele>
        <time>2010-01-01T00:01:43Z</time>
      </trkpt>
      <trkpt lat="43.70613540" lon="10.44119590">
        <ele>5.0000000</ele>
        <time>2010-01-01T00:02:06Z</time>
      </trkpt>
      <trkpt lat="43.70583680" lon="10.44132470">
        <ele>7.0000000</ele>
        <time>2010-01-01T00:02:19Z</time>
      </trkpt>
      <trkpt lat="43.70567390" lon="10.44122810">
        <ele>5.0000000</ele>
        <time>2010-01-01T00:02:26Z</time>
      </trkpt>
      <trkpt lat="43.70555760" lon="10.44141590">
        <ele>6.0000000</ele>
        <time>2010-01-01T00:02:33Z</time>
      </trkpt>
      <trkpt lat="43.70563900" lon="10.44159820">
        <ele>8.0000000</ele>
        <time>2010-01-01T00:02:39Z</time>
      </trkpt>
      <trkpt lat="43.70584070" lon="10.44152850">
        <ele>8.0000000</ele>
        <time>2010-01-01T00:02:48Z</time>
      </trkpt>
      <trkpt lat="43.70615480" lon="10.44134080">
        <ele>7.0000000</ele>
        <time>2010-01-01T00:03:01Z</time>
      </trkpt>
      <trkpt lat="43.70671320" lon="10.44032690">
        <ele>4.0000000</ele>
        <time>2010-01-01T00:03:38Z</time>
      </trkpt>
      <trkpt lat="43.70755470" lon="10.43790750">
        <ele>5.0000000</ele>
        <time>2010-01-01T00:04:56Z</time>
      </trkpt>
      <trkpt lat="43.70788040" lon="10.43761250">
        <ele>7.0000000</ele>
        <time>2010-01-01T00:05:12Z</time>
      </trkpt>
      <trkpt lat="43.70784160" lon="10.43703310">
        <ele>4.0000000</ele>
        <time>2010-01-01T00:05:28Z</time>
      </trkpt>
      <trkpt lat="43.71080420" lon="10.42875050">
        <ele>3.0000000</ele>
        <time>2010-01-01T00:09:56Z</time>
      </trkpt>
      <trkpt lat="43.71095930" lon="10.42862170">
        <ele>3.0000000</ele>
        <time>2010-01-01T00:10:03Z</time>
      </trkpt>
      <trkpt lat="43.71109890" lon="10.42845010">
        <ele>3.0000000</ele>
        <time>2010-01-01T00:10:11Z</time>
      </trkpt>
      <trkpt lat="43.71334780" lon="10.42832130">
        <ele>5.0000000</ele>
        <time>2010-01-01T00:11:41Z</time>
      </trkpt>
      <trkpt lat="43.71347190" lon="10.42843930">
        <ele>5.0000000</ele>
        <time>2010-01-01T00:11:47Z</time>
      </trkpt>
      <trkpt lat="43.71361150" lon="10.42825690">
        <ele>5.0000000</ele>
        <time>2010-01-01T00:11:54Z</time>
      </trkpt>
      <trkpt lat="43.71355720" lon="10.42809600">
        <ele>4.0000000</ele>
        <time>2010-01-01T00:11:59Z</time>
      </trkpt>
      <trkpt lat="43.71444130" lon="10.42547820">
        <ele>3.0000000</ele>
        <time>2010-01-01T00:13:23Z</time>
      </trkpt>
      <trkpt lat="43.71497630" lon="10.42159430">
        <ele>7.0000000</ele>
        <time>2010-01-01T00:15:17Z</time>
      </trkpt>
      <trkpt lat="43.71631010" lon="10.42191620">
        <ele>5.0000000</ele>
        <time>2010-01-01T00:16:12Z</time>
      </trkpt>
      <trkpt lat="43.71697700" lon="10.42170160">
        <ele>5.0000000</ele>
        <time>2010-01-01T00:16:39Z</time>
      </trkpt>
      <trkpt lat="43.71840380" lon="10.42026400">
        <ele>3.0000000</ele>
        <time>2010-01-01T00:17:50Z</time>
      </trkpt>
      <trkpt lat="43.71890780" lon="10.42011380">
        <ele>3.0000000</ele>
        <time>2010-01-01T00:18:10Z</time>
      </trkpt>
      <trkpt lat="43.71941960" lon="10.42032830">
        <ele>4.0000000</ele>
        <time>2010-01-01T00:18:32Z</time>
      </trkpt>
      <trkpt lat="43.72010970" lon="10.42109010">
        <ele>3.0000000</ele>
        <time>2010-01-01T00:19:07Z</time>
      </trkpt>
      <trkpt lat="43.72059050" lon="10.42188400">
        <ele>2.0000000</ele>
        <time>2010-01-01T00:19:37Z</time>
      </trkpt>
      <trkpt lat="43.72075720" lon="10.42185180">
        <ele>2.0000000</ele>
        <time>2010-01-01T00:19:44Z</time>
      </trkpt>
      <trkpt lat="43.72074550" lon="10.42153000">
        <ele>2.0000000</ele>
        <time>2010-01-01T00:19:53Z</time>
      </trkpt>
      <trkpt lat="43.72086180" lon="10.42099350">
        <ele>2.0000000</ele>
        <time>2010-01-01T00:20:09Z</time>
      </trkpt>
      <trkpt lat="43.72029580" lon="10.41979190">
        <ele>4.0000000</ele>
        <time>2010-01-01T00:20:51Z</time>
      </trkpt>
      <trkpt lat="43.71991590" lon="10.41688440">
        <ele>4.0000000</ele>
        <time>2010-01-01T00:22:16Z</time>
      </trkpt>
      <trkpt lat="43.71988870" lon="10.41619770">
        <ele>5.0000000</ele>
        <time>2010-01-01T00:22:36Z</time>
      </trkpt>
      <trkpt lat="43.71987710" lon="10.41523210">
        <ele>4.0000000</ele>
        <time>2010-01-01T00:23:04Z</time>
      </trkpt>
      <trkpt lat="43.71960570" lon="10.41241040">
        <ele>10.000000</ele>
        <time>2010-01-01T00:24:27Z</time>
      </trkpt>
      <trkpt lat="43.71969100" lon="10.41234070">
        <ele>10.000000</ele>
        <time>2010-01-01T00:24:30Z</time>
      </trkpt>
      <trkpt lat="43.71997400" lon="10.41221730">
        <ele>8.0000000</ele>
        <time>2010-01-01T00:24:42Z</time>
      </trkpt>
      <trkpt lat="43.71989260" lon="10.41202420">
        <ele>8.0000000</ele>
        <time>2010-01-01T00:24:49Z</time>
      </trkpt>
      <trkpt lat="43.72005540" lon="10.41185250">
        <ele>6.0000000</ele>
        <time>2010-01-01T00:24:57Z</time>
      </trkpt>
      <trkpt lat="43.72017950" lon="10.41183110">
        <ele>5.0000000</ele>
        <time>2010-01-01T00:25:02Z</time>
      </trkpt>
      <trkpt lat="43.72018340" lon="10.41166480">
        <ele>5.0000000</ele>
        <time>2010-01-01T00:25:07Z</time>
      </trkpt>
      <trkpt lat="43.72004770" lon="10.41163260">
        <ele>6.0000000</ele>
        <time>2010-01-01T00:25:12Z</time>
      </trkpt>
      <trkpt lat="43.71878380" lon="10.41046850">
        <ele>8.0000000</ele>
        <time>2010-01-01T00:26:13Z</time>
      </trkpt>
      <trkpt lat="43.71853170" lon="10.40736250">
        <ele>8.0000000</ele>
        <time>2010-01-01T00:27:44Z</time>
      </trkpt>
      <trkpt lat="43.71950100" lon="10.40741080">
        <ele>9.0000000</ele>
        <time>2010-01-01T00:28:22Z</time>
      </trkpt>
      <trkpt lat="43.71974140" lon="10.40735720">
        <ele>9.0000000</ele>
        <time>2010-01-01T00:28:32Z</time>
      </trkpt>
      <trkpt lat="43.71973360" lon="10.40561370">
        <ele>9.0000000</ele>
        <time>2010-01-01T00:29:23Z</time>
      </trkpt>
      <trkpt lat="43.71971430" lon="10.40354310">
        <ele>14.000000</ele>
        <time>2010-01-01T00:30:22Z</time>
      </trkpt>
      <trkpt lat="43.71966000" lon="10.40219120">
        <ele>12.000000</ele>
        <time>2010-01-01T00:31:02Z</time>
      </trkpt>
      <trkpt lat="43.71968320" lon="10.40164940">
        <ele>12.000000</ele>
        <time>2010-01-01T00:31:17Z</time>
      </trkpt>
      <trkpt lat="43.71936920" lon="10.40053360">
        <ele>12.000000</ele>
        <time>2010-01-01T00:31:52Z</time>
      </trkpt>
      <trkpt lat="43.71959020" lon="10.39985770">
        <ele>10.000000</ele>
        <time>2010-01-01T00:32:13Z</time>
      </trkpt>
      <trkpt lat="43.71964060" lon="10.39948760">
        <ele>9.0000000</ele>
        <time>2010-01-01T00:32:24Z</time>
      </trkpt>
      <trkpt lat="43.71984990" lon="10.39881160">
        <ele>8.0000000</ele>
        <time>2010-01-01T00:32:46Z</time>
      </trkpt>
      <trkpt lat="43.71991200" lon="10.39827520">
        <ele>11.000000</ele>
        <time>2010-01-01T00:33:01Z</time>
      </trkpt>
      <trkpt lat="43.71993910" lon="10.39775490">
        <ele>10.000000</ele>
        <time>2010-01-01T00:33:16Z</time>
      </trkpt>
      <trkpt lat="43.72073390" lon="10.39778700">
        <ele>9.0000000</ele>
        <time>2010-01-01T00:33:48Z</time>
      </trkpt>
      <trkpt lat="43.72107510" lon="10.39774410">
        <ele>9.0000000</ele>
        <time>2010-01-01T00:34:02Z</time>
      </trkpt>
      <trkpt lat="43.72129220" lon="10.39766370">
        <ele>10.000000</ele>
        <time>2010-01-01T00:34:11Z</time>
      </trkpt>
      <trkpt lat="43.72169150" lon="10.39758320">
        <ele>11.000000</ele>
        <time>2010-01-01T00:34:27Z</time>
      </trkpt>
      <trkpt lat="43.72238550" lon="10.39772800">
        <ele>8.0000000</ele>
        <time>2010-01-01T00:34:55Z</time>
      </trkpt>
      <trkpt lat="43.72240480" lon="10.39654790">
        <ele>8.0000000</ele>
        <time>2010-01-01T00:35:29Z</time>
      </trkpt>
      <trkpt lat="43.72280800" lon="10.39635470">
        <ele>12.000000</ele>
        <time>2010-01-01T00:35:46Z</time>
      </trkpt>
      <trkpt lat="43.72315310" lon="10.39646200">
        <ele>11.000000</ele>
        <time>2010-01-01T00:36:01Z</time>
      </trkpt>
      <trkpt lat="43.72315310" lon="10.39716480">
        <ele>5.0000000</ele>
        <time>2010-01-01T00:36:21Z</time>
      </trkpt>
      <trkpt lat="43.72233120" lon="10.40105930">
        <ele>9.0000000</ele>
        <time>2010-01-01T00:38:18Z</time>
      </trkpt>
      <trkpt lat="43.72217220" lon="10.40166020">
        <ele>9.0000000</ele>
        <time>2010-01-01T00:38:37Z</time>
      </trkpt>
      <trkpt lat="43.72284680" lon="10.40177820">
        <ele>6.0000000</ele>
        <time>2010-01-01T00:39:04Z</time>
      </trkpt>
      <trkpt lat="43.72318020" lon="10.40197130">
        <ele>6.0000000</ele>
        <time>2010-01-01T00:39:19Z</time>
      </trkpt>
      <trkpt lat="43.72347480" lon="10.40226100">
        <ele>5.0000000</ele>
        <time>2010-01-01T00:39:33Z</time>
      </trkpt>
      <trkpt lat="43.72615750" lon="10.40253990">
        <ele>4.0000000</ele>
        <time>2010-01-01T00:41:21Z</time>
      </trkpt>
      <trkpt lat="43.73290240" lon="10.40297980">
        <ele>8.0000000</ele>
        <time>2010-01-01T00:45:51Z</time>
      </trkpt>
      <trkpt lat="43.73384820" lon="10.40059800">
        <ele>2.0000000</ele>
        <time>2010-01-01T00:47:10Z</time>
      </trkpt>
      <trkpt lat="43.73913500" lon="10.40117740">
        <ele>1.0000000</ele>
        <time>2010-01-01T00:50:42Z</time>
      </trkpt>
      <trkpt lat="43.74018920" lon="10.40154210">
        <ele>2.0000000</ele>
        <time>2010-01-01T00:51:25Z</time>
      </trkpt>
      <trkpt lat="43.74229750" lon="10.40208930">
        <ele>1.0000000</ele>
        <time>2010-01-01T00:52:51Z</time>
      </trkpt>
      <trkpt lat="43.75085420" lon="10.40496460">
        <ele>1.0000000</ele>
        <time>2010-01-01T00:58:44Z</time>
      </trkpt>
      <trkpt lat="43.75288460" lon="10.40565130">
        <ele>0.0000000</ele>
        <time>2010-01-01T01:00:07Z</time>
      </trkpt>
      <trkpt lat="43.75575200" lon="10.40752880">
        <ele>1.0000000</ele>
        <time>2010-01-01T01:02:14Z</time>
      </trkpt>
      <trkpt lat="43.75785980" lon="10.40958880">
        <ele>2.0000000</ele>
        <time>2010-01-01T01:03:58Z</time>
      </trkpt>
      <trkpt lat="43.76726640" lon="10.41231390">
        <ele>3.0000000</ele>
        <time>2010-01-01T01:10:22Z</time>
      </trkpt>
      <trkpt lat="43.77027250" lon="10.41136980">
        <ele>5.0000000</ele>
        <time>2010-01-01T01:12:26Z</time>
      </trkpt>
      <trkpt lat="43.77067540" lon="10.41098350">
        <ele>3.0000000</ele>
        <time>2010-01-01T01:12:45Z</time>
      </trkpt>
      <trkpt lat="43.77104730" lon="10.41087620">
        <ele>3.0000000</ele>
        <time>2010-01-01T01:13:01Z</time>
      </trkpt>
      <trkpt lat="43.77447150" lon="10.41053290">
        <ele>4.0000000</ele>
        <time>2010-01-01T01:15:18Z</time>
      </trkpt>
      <trkpt lat="43.77493640" lon="10.41053290">
        <ele>4.0000000</ele>
        <time>2010-01-01T01:15:37Z</time>
      </trkpt>
      <trkpt lat="43.77563360" lon="10.41121950">
        <ele>3.0000000</ele>
        <time>2010-01-01T01:16:11Z</time>
      </trkpt>
      <trkpt lat="43.77673360" lon="10.41287180">
        <ele>4.0000000</ele>
        <time>2010-01-01T01:17:16Z</time>
      </trkpt>
      <trkpt lat="43.77842240" lon="10.41390180">
        <ele>5.0000000</ele>
        <time>2010-01-01T01:18:30Z</time>
      </trkpt>
      <trkpt lat="43.77959980" lon="10.41338680">
        <ele>4.0000000</ele>
        <time>2010-01-01T01:19:19Z</time>
      </trkpt>
      <trkpt lat="43.78042090" lon="10.41439530">
        <ele>7.0000000</ele>
        <time>2010-01-01T01:20:03Z</time>
      </trkpt>
      <trkpt lat="43.78215600" lon="10.41555400">
        <ele>6.0000000</ele>
        <time>2010-01-01T01:21:20Z</time>
      </trkpt>
      <trkpt lat="43.78319400" lon="10.41076890">
        <ele>7.0000000</ele>
        <time>2010-01-01T01:23:45Z</time>
      </trkpt>
      <trkpt lat="43.78324040" lon="10.40941710">
        <ele>8.0000000</ele>
        <time>2010-01-01T01:24:24Z</time>
      </trkpt>
      <trkpt lat="43.78214830" lon="10.40278670">
        <ele>7.0000000</ele>
        <time>2010-01-01T01:27:40Z</time>
      </trkpt>
      <trkpt lat="43.77997160" lon="10.39966460">
        <ele>9.0000000</ele>
        <time>2010-01-01T01:29:46Z</time>
      </trkpt>
      <trkpt lat="43.78152080" lon="10.39770120">
        <ele>9.0000000</ele>
        <time>2010-01-01T01:31:10Z</time>
      </trkpt>
      <trkpt lat="43.78183070" lon="10.39853810">
        <ele>6.0000000</ele>
        <time>2010-01-01T01:31:37Z</time>
      </trkpt>
      <trkpt lat="43.78201660" lon="10.39969680">
        <ele>7.0000000</ele>
        <time>2010-01-01T01:32:11Z</time>
      </trkpt>
      <trkpt lat="43.78351930" lon="10.40214300">
        <ele>7.0000000</ele>
        <time>2010-01-01T01:33:44Z</time>
      </trkpt>
      <trkpt lat="43.78457270" lon="10.40334460">
        <ele>9.0000000</ele>
        <time>2010-01-01T01:34:39Z</time>
      </trkpt>
      <trkpt lat="43.78534730" lon="10.40377370">
        <ele>12.000000</ele>
        <time>2010-01-01T01:35:12Z</time>
      </trkpt>
      <trkpt lat="43.78581200" lon="10.40465350">
        <ele>7.0000000</ele>
        <time>2010-01-01T01:35:44Z</time>
      </trkpt>
      <trkpt lat="43.78640070" lon="10.40491100">
        <ele>3.0000000</ele>
        <time>2010-01-01T01:36:08Z</time>
      </trkpt>
      <trkpt lat="43.78706680" lon="10.40473930">
        <ele>5.0000000</ele>
        <time>2010-01-01T01:36:35Z</time>
      </trkpt>
      <trkpt lat="43.78831370" lon="10.40408490">
        <ele>7.0000000</ele>
        <time>2010-01-01T01:37:29Z</time>
      </trkpt>
      <trkpt lat="43.78965360" lon="10.40392390">
        <ele>6.0000000</ele>
        <time>2010-01-01T01:38:23Z</time>
      </trkpt>
      <trkpt lat="43.79275160" lon="10.40381660">
        <ele>5.0000000</ele>
        <time>2010-01-01T01:40:27Z</time>
      </trkpt>
      <trkpt lat="43.79535370" lon="10.40416000">
        <ele>8.0000000</ele>
        <time>2010-01-01T01:42:11Z</time>
      </trkpt>
      <trkpt lat="43.79772340" lon="10.40332310">
        <ele>10.000000</ele>
        <time>2010-01-01T01:43:49Z</time>
      </trkpt>
      <trkpt lat="43.80216820" lon="10.39722910">
        <ele>11.000000</ele>
        <time>2010-01-01T01:47:59Z</time>
      </trkpt>
      <trkpt lat="43.80306650" lon="10.39675710">
        <ele>11.000000</ele>
        <time>2010-01-01T01:48:38Z</time>
      </trkpt>
      <trkpt lat="43.80396470" lon="10.39697170">
        <ele>8.0000000</ele>
        <time>2010-01-01T01:49:14Z</time>
      </trkpt>
      <trkpt lat="43.80469250" lon="10.39750810">
        <ele>10.000000</ele>
        <time>2010-01-01T01:49:47Z</time>
      </trkpt>
      <trkpt lat="43.80576100" lon="10.39762610">
        <ele>8.0000000</ele>
        <time>2010-01-01T01:50:30Z</time>
      </trkpt>
      <trkpt lat="43.80704640" lon="10.39759390">
        <ele>14.000000</ele>
        <time>2010-01-01T01:51:22Z</time>
      </trkpt>
      <trkpt lat="43.80717020" lon="10.39619920">
        <ele>15.000000</ele>
        <time>2010-01-01T01:52:02Z</time>
      </trkpt>
      <trkpt lat="43.80811480" lon="10.39392470">
        <ele>14.000000</ele>
        <time>2010-01-01T01:53:18Z</time>
      </trkpt>
      <trkpt lat="43.80823870" lon="10.39154290">
        <ele>16.000000</ele>
        <time>2010-01-01T01:54:27Z</time>
      </trkpt>
      <trkpt lat="43.80851750" lon="10.38894650">
        <ele>16.000000</ele>
        <time>2010-01-01T01:55:43Z</time>
      </trkpt>
      <trkpt lat="43.80806840" lon="10.38484810">
        <ele>14.000000</ele>
        <time>2010-01-01T01:57:43Z</time>
      </trkpt>
      <trkpt lat="43.80797550" lon="10.38242340">
        <ele>26.000000</ele>
        <time>2010-01-01T01:58:53Z</time>
      </trkpt>
      <trkpt lat="43.80811480" lon="10.37978410">
        <ele>25.000000</ele>
        <time>2010-01-01T02:00:09Z</time>
      </trkpt>
      <trkpt lat="43.80919880" lon="10.37763830">
        <ele>7.0000000</ele>
        <time>2010-01-01T02:01:25Z</time>
      </trkpt>
      <trkpt lat="43.80973300" lon="10.37728420">
        <ele>6.0000000</ele>
        <time>2010-01-01T02:01:49Z</time>
      </trkpt>
      <trkpt lat="43.81042210" lon="10.37710180">
        <ele>7.0000000</ele>
        <time>2010-01-01T02:02:17Z</time>
      </trkpt>
      <trkpt lat="43.81097950" lon="10.37626500">
        <ele>14.000000</ele>
        <time>2010-01-01T02:02:50Z</time>
      </trkpt>
      <trkpt lat="43.81116530" lon="10.37523500">
        <ele>4.0000000</ele>
        <time>2010-01-01T02:03:20Z</time>
      </trkpt>
      <trkpt lat="43.81269830" lon="10.37487030">
        <ele>11.000000</ele>
        <time>2010-01-01T02:04:23Z</time>
      </trkpt>
      <trkpt lat="43.81378210" lon="10.37375450">
        <ele>3.0000000</ele>
        <time>2010-01-01T02:05:17Z</time>
      </trkpt>
      <trkpt lat="43.81420020" lon="10.37372230">
        <ele>4.0000000</ele>
        <time>2010-01-01T02:05:33Z</time>
      </trkpt>
      <trkpt lat="43.81443250" lon="10.37395830">
        <ele>4.0000000</ele>
        <time>2010-01-01T02:05:45Z</time>
      </trkpt>
      <trkpt lat="43.81456410" lon="10.37428020">
        <ele>7.0000000</ele>
        <time>2010-01-01T02:05:56Z</time>
      </trkpt>
      <trkpt lat="43.81720400" lon="10.37376520">
        <ele>5.0000000</ele>
        <time>2010-01-01T02:07:42Z</time>
      </trkpt>
      <trkpt lat="43.81776130" lon="10.37332530">
        <ele>3.0000000</ele>
        <time>2010-01-01T02:08:08Z</time>
      </trkpt>
      <trkpt lat="43.81841930" lon="10.37396900">
        <ele>11.000000</ele>
        <time>2010-01-01T02:08:40Z</time>
      </trkpt>
      <trkpt lat="43.81920890" lon="10.37345400">
        <ele>8.0000000</ele>
        <time>2010-01-01T02:09:15Z</time>
      </trkpt>
      <trkpt lat="43.81995210" lon="10.37283180">
        <ele>8.0000000</ele>
        <time>2010-01-01T02:09:50Z</time>
      </trkpt>
      <trkpt lat="43.82047850" lon="10.37272450">
        <ele>10.000000</ele>
        <time>2010-01-01T02:10:11Z</time>
      </trkpt>
      <trkpt lat="43.82113650" lon="10.37167310">
        <ele>11.000000</ele>
        <time>2010-01-01T02:10:51Z</time>
      </trkpt>
      <trkpt lat="43.82191830" lon="10.37073960">
        <ele>8.0000000</ele>
        <time>2010-01-01T02:11:33Z</time>
      </trkpt>
      <trkpt lat="43.82208860" lon="10.37081480">
        <ele>10.000000</ele>
        <time>2010-01-01T02:11:40Z</time>
      </trkpt>
      <trkpt lat="43.82233630" lon="10.37076110">
        <ele>12.000000</ele>
        <time>2010-01-01T02:11:50Z</time>
      </trkpt>
      <trkpt lat="43.82276200" lon="10.37046070">
        <ele>14.000000</ele>
        <time>2010-01-01T02:12:09Z</time>
      </trkpt>
      <trkpt lat="43.82318000" lon="10.36991350">
        <ele>9.0000000</ele>
        <time>2010-01-01T02:12:32Z</time>
      </trkpt>
      <trkpt lat="43.82371410" lon="10.36943070">
        <ele>5.0000000</ele>
        <time>2010-01-01T02:12:58Z</time>
      </trkpt>
      <trkpt lat="43.82400050" lon="10.36826130">
        <ele>1.0000000</ele>
        <time>2010-01-01T02:13:33Z</time>
      </trkpt>
      <trkpt lat="43.82455010" lon="10.36719910">
        <ele>1.0000000</ele>
        <time>2010-01-01T02:14:11Z</time>
      </trkpt>
      <trkpt lat="43.82625300" lon="10.36653390">
        <ele>5.0000000</ele>
        <time>2010-01-01T02:15:22Z</time>
      </trkpt>
      <trkpt lat="43.82705020" lon="10.36639450">
        <ele>5.0000000</ele>
        <time>2010-01-01T02:15:54Z</time>
      </trkpt>
      <trkpt lat="43.82833510" lon="10.36637300">
        <ele>9.0000000</ele>
        <time>2010-01-01T02:16:45Z</time>
      </trkpt>
      <trkpt lat="43.82862150" lon="10.36628720">
        <ele>12.000000</ele>
        <time>2010-01-01T02:16:57Z</time>
      </trkpt>
      <trkpt lat="43.82927930" lon="10.36567560">
        <ele>13.000000</ele>
        <time>2010-01-01T02:17:29Z</time>
      </trkpt>
      <trkpt lat="43.83016170" lon="10.36444180">
        <ele>14.000000</ele>
        <time>2010-01-01T02:18:19Z</time>
      </trkpt>
      <trkpt lat="43.83105170" lon="10.36358350">
        <ele>23.000000</ele>
        <time>2010-01-01T02:19:02Z</time>
      </trkpt>
      <trkpt lat="43.83136130" lon="10.36272520">
        <ele>14.000000</ele>
        <time>2010-01-01T02:19:30Z</time>
      </trkpt>
      <trkpt lat="43.83181020" lon="10.36225310">
        <ele>9.0000000</ele>
        <time>2010-01-01T02:19:53Z</time>
      </trkpt>
      <trkpt lat="43.83220490" lon="10.36203860">
        <ele>7.0000000</ele>
        <time>2010-01-01T02:20:10Z</time>
      </trkpt>
      <trkpt lat="43.83326520" lon="10.36160940">
        <ele>3.0000000</ele>
        <time>2010-01-01T02:20:54Z</time>
      </trkpt>
      <trkpt lat="43.83424040" lon="10.36187760">
        <ele>6.0000000</ele>
        <time>2010-01-01T02:21:34Z</time>
      </trkpt>
      <trkpt lat="43.83506850" lon="10.36099790">
        <ele>7.0000000</ele>
        <time>2010-01-01T02:22:15Z</time>
      </trkpt>
      <trkpt lat="43.83582690" lon="10.36116950">
        <ele>15.000000</ele>
        <time>2010-01-01T02:22:46Z</time>
      </trkpt>
      <trkpt lat="43.83637640" lon="10.36037560">
        <ele>15.000000</ele>
        <time>2010-01-01T02:23:18Z</time>
      </trkpt>
      <trkpt lat="43.83667820" lon="10.35943150">
        <ele>12.000000</ele>
        <time>2010-01-01T02:23:48Z</time>
      </trkpt>
      <trkpt lat="43.83710380" lon="10.35864830">
        <ele>9.0000000</ele>
        <time>2010-01-01T02:24:16Z</time>
      </trkpt>
      <trkpt lat="43.83732050" lon="10.35762900">
        <ele>8.0000000</ele>
        <time>2010-01-01T02:24:47Z</time>
      </trkpt>
      <trkpt lat="43.83735150" lon="10.35728570">
        <ele>7.0000000</ele>
        <time>2010-01-01T02:24:57Z</time>
      </trkpt>
      <trkpt lat="43.83750620" lon="10.35700670">
        <ele>7.0000000</ele>
        <time>2010-01-01T02:25:07Z</time>
      </trkpt>
      <trkpt lat="43.83794730" lon="10.35659900">
        <ele>16.000000</ele>
        <time>2010-01-01T02:25:28Z</time>
      </trkpt>
      <trkpt lat="43.83833430" lon="10.35564420">
        <ele>14.000000</ele>
        <time>2010-01-01T02:26:00Z</time>
      </trkpt>
      <trkpt lat="43.83823370" lon="10.35502190">
        <ele>8.0000000</ele>
        <time>2010-01-01T02:26:18Z</time>
      </trkpt>
      <trkpt lat="43.83842710" lon="10.35466790">
        <ele>9.0000000</ele>
        <time>2010-01-01T02:26:31Z</time>
      </trkpt>
      <trkpt lat="43.83881410" lon="10.35441040">
        <ele>14.000000</ele>
        <time>2010-01-01T02:26:48Z</time>
      </trkpt>
      <trkpt lat="43.83913910" lon="10.35378810">
        <ele>11.000000</ele>
        <time>2010-01-01T02:27:10Z</time>
      </trkpt>
      <trkpt lat="43.83945640" lon="10.35345550">
        <ele>10.000000</ele>
        <time>2010-01-01T02:27:26Z</time>
      </trkpt>
      <trkpt lat="43.84065200" lon="10.35279030">
        <ele>3.0000000</ele>
        <time>2010-01-01T02:28:18Z</time>
      </trkpt>
      <trkpt lat="43.84072550" lon="10.35298880">
        <ele>3.0000000</ele>
        <time>2010-01-01T02:28:24Z</time>
      </trkpt>
      <trkpt lat="43.84023020" lon="10.35416360">
        <ele>11.000000</ele>
        <time>2010-01-01T02:29:04Z</time>
      </trkpt>
      <trkpt lat="43.84040050" lon="10.35467860">
        <ele>8.0000000</ele>
        <time>2010-01-01T02:29:20Z</time>
      </trkpt>
      <trkpt lat="43.84133680" lon="10.35520430">
        <ele>7.0000000</ele>
        <time>2010-01-01T02:30:00Z</time>
      </trkpt>
      <trkpt lat="43.84190940" lon="10.35567640">
        <ele>3.0000000</ele>
        <time>2010-01-01T02:30:27Z</time>
      </trkpt>
      <trkpt lat="43.84271420" lon="10.35576220">
        <ele>4.0000000</ele>
        <time>2010-01-01T02:30:59Z</time>
      </trkpt>
      <trkpt lat="43.84461780" lon="10.35668490">
        <ele>5.0000000</ele>
        <time>2010-01-01T02:32:20Z</time>
      </trkpt>
      <trkpt lat="43.84528320" lon="10.35672780">
        <ele>7.0000000</ele>
        <time>2010-01-01T02:32:47Z</time>
      </trkpt>
      <trkpt lat="43.84571650" lon="10.35655610">
        <ele>8.0000000</ele>
        <time>2010-01-01T02:33:05Z</time>
      </trkpt>
      <trkpt lat="43.84591770" lon="10.35615920">
        <ele>7.0000000</ele>
        <time>2010-01-01T02:33:19Z</time>
      </trkpt>
      <trkpt lat="43.84591000" lon="10.35554760">
        <ele>5.0000000</ele>
        <time>2010-01-01T02:33:37Z</time>
      </trkpt>
      <trkpt lat="43.84615760" lon="10.35517210">
        <ele>5.0000000</ele>
        <time>2010-01-01T02:33:51Z</time>
      </trkpt>
      <trkpt lat="43.84645930" lon="10.35522580">
        <ele>6.0000000</ele>
        <time>2010-01-01T02:34:03Z</time>
      </trkpt>
      <trkpt lat="43.84691590" lon="10.35555830">
        <ele>11.000000</ele>
        <time>2010-01-01T02:34:24Z</time>
      </trkpt>
      <trkpt lat="43.84751160" lon="10.35550470">
        <ele>11.000000</ele>
        <time>2010-01-01T02:34:48Z</time>
      </trkpt>
      <trkpt lat="43.84775920" lon="10.35527940">
        <ele>10.000000</ele>
        <time>2010-01-01T02:35:00Z</time>
      </trkpt>
      <trkpt lat="43.84803010" lon="10.35474300">
        <ele>5.0000000</ele>
        <time>2010-01-01T02:35:19Z</time>
      </trkpt>
      <trkpt lat="43.84836280" lon="10.35470000">
        <ele>4.0000000</ele>
        <time>2010-01-01T02:35:32Z</time>
      </trkpt>
      <trkpt lat="43.84861810" lon="10.35500040">
        <ele>1.0000000</ele>
        <time>2010-01-01T02:35:45Z</time>
      </trkpt>
      <trkpt lat="43.84861810" lon="10.35574070">
        <ele>4.0000000</ele>
        <time>2010-01-01T02:36:07Z</time>
      </trkpt>
      <trkpt lat="43.84877280" lon="10.35632010">
        <ele>4.0000000</ele>
        <time>2010-01-01T02:36:25Z</time>
      </trkpt>
      <trkpt lat="43.85073810" lon="10.35892720">
        <ele>5.0000000</ele>
        <time>2010-01-01T02:38:14Z</time>
      </trkpt>
      <trkpt lat="43.85168970" lon="10.35980700">
        <ele>5.0000000</ele>
        <time>2010-01-01T02:38:59Z</time>
      </trkpt>
      <trkpt lat="43.85232420" lon="10.36079400">
        <ele>7.0000000</ele>
        <time>2010-01-01T02:39:38Z</time>
      </trkpt>
      <trkpt lat="43.85290440" lon="10.36121240">
        <ele>8.0000000</ele>
        <time>2010-01-01T02:40:04Z</time>
      </trkpt>
      <trkpt lat="43.85329130" lon="10.36189910">
        <ele>8.0000000</ele>
        <time>2010-01-01T02:40:29Z</time>
      </trkpt>
      <trkpt lat="43.85374770" lon="10.36216730">
        <ele>12.000000</ele>
        <time>2010-01-01T02:40:49Z</time>
      </trkpt>
      <trkpt lat="43.85408810" lon="10.36118030">
        <ele>12.000000</ele>
        <time>2010-01-01T02:41:20Z</time>
      </trkpt>
      <trkpt lat="43.85435120" lon="10.35975330">
        <ele>11.000000</ele>
        <time>2010-01-01T02:42:03Z</time>
      </trkpt>
      <trkpt lat="43.85462200" lon="10.35651320">
        <ele>8.0000000</ele>
        <time>2010-01-01T02:43:37Z</time>
      </trkpt>
      <trkpt lat="43.85521000" lon="10.35495750">
        <ele>4.0000000</ele>
        <time>2010-01-01T02:44:28Z</time>
      </trkpt>
      <trkpt lat="43.85649420" lon="10.35256500">
        <ele>5.0000000</ele>
        <time>2010-01-01T02:45:54Z</time>
      </trkpt>
      <trkpt lat="43.85939520" lon="10.34708260">
        <ele>6.0000000</ele>
        <time>2010-01-01T02:49:10Z</time>
      </trkpt>
      <trkpt lat="43.85979750" lon="10.34688940">
        <ele>6.0000000</ele>
        <time>2010-01-01T02:49:27Z</time>
      </trkpt>
      <trkpt lat="43.86048600" lon="10.34698600">
        <ele>7.0000000</ele>
        <time>2010-01-01T02:49:55Z</time>
      </trkpt>
      <trkpt lat="43.86122860" lon="10.34740440">
        <ele>6.0000000</ele>
        <time>2010-01-01T02:50:27Z</time>
      </trkpt>
      <trkpt lat="43.86180880" lon="10.34787650">
        <ele>8.0000000</ele>
        <time>2010-01-01T02:50:54Z</time>
      </trkpt>
      <trkpt lat="43.86350290" lon="10.34843440">
        <ele>5.0000000</ele>
        <time>2010-01-01T02:52:03Z</time>
      </trkpt>
      <trkpt lat="43.86455490" lon="10.34846660">
        <ele>4.0000000</ele>
        <time>2010-01-01T02:52:46Z</time>
      </trkpt>
      <trkpt lat="43.86510410" lon="10.34826270">
        <ele>6.0000000</ele>
        <time>2010-01-01T02:53:08Z</time>
      </trkpt>
      <trkpt lat="43.86546770" lon="10.34777990">
        <ele>5.0000000</ele>
        <time>2010-01-01T02:53:29Z</time>
      </trkpt>
      <trkpt lat="43.86571520" lon="10.34694310">
        <ele>4.0000000</ele>
        <time>2010-01-01T02:53:55Z</time>
      </trkpt>
      <trkpt lat="43.86580030" lon="10.34536600">
        <ele>14.000000</ele>
        <time>2010-01-01T02:54:40Z</time>
      </trkpt>
      <trkpt lat="43.86614830" lon="10.34422870">
        <ele>14.000000</ele>
        <time>2010-01-01T02:55:16Z</time>
      </trkpt>
      <trkpt lat="43.86644230" lon="10.34386390">
        <ele>10.000000</ele>
        <time>2010-01-01T02:55:32Z</time>
      </trkpt>
      <trkpt lat="43.86697600" lon="10.34371370">
        <ele>7.0000000</ele>
        <time>2010-01-01T02:55:53Z</time>
      </trkpt>
      <trkpt lat="43.86811300" lon="10.34257650">
        <ele>12.000000</ele>
        <time>2010-01-01T02:56:50Z</time>
      </trkpt>
      <trkpt lat="43.86884780" lon="10.34077400">
        <ele>7.0000000</ele>
        <time>2010-01-01T02:57:49Z</time>
      </trkpt>
      <trkpt lat="43.87076600" lon="10.33915400">
        <ele>9.0000000</ele>
        <time>2010-01-01T02:59:19Z</time>
      </trkpt>
      <trkpt lat="43.87180240" lon="10.33783430">
        <ele>11.000000</ele>
        <time>2010-01-01T03:00:16Z</time>
      </trkpt>
      <trkpt lat="43.87387520" lon="10.33577440">
        <ele>13.000000</ele>
        <time>2010-01-01T03:01:58Z</time>
      </trkpt>
      <trkpt lat="43.87422320" lon="10.33431520">
        <ele>10.000000</ele>
        <time>2010-01-01T03:02:42Z</time>
      </trkpt>
      <trkpt lat="43.87420000" lon="10.33325310">
        <ele>10.000000</ele>
        <time>2010-01-01T03:03:13Z</time>
      </trkpt>
      <trkpt lat="43.87393700" lon="10.33126830">
        <ele>8.0000000</ele>
        <time>2010-01-01T03:04:11Z</time>
      </trkpt>
      <trkpt lat="43.87397570" lon="10.33049580">
        <ele>7.0000000</ele>
        <time>2010-01-01T03:04:33Z</time>
      </trkpt>
      <trkpt lat="43.87413810" lon="10.32978770">
        <ele>7.0000000</ele>
        <time>2010-01-01T03:04:55Z</time>
      </trkpt>
      <trkpt lat="43.87450160" lon="10.32919760">
        <ele>6.0000000</ele>
        <time>2010-01-01T03:05:17Z</time>
      </trkpt>
      <trkpt lat="43.87481100" lon="10.32898300">
        <ele>6.0000000</ele>
        <time>2010-01-01T03:05:31Z</time>
      </trkpt>
      <trkpt lat="43.87597880" lon="10.32892940">
        <ele>7.0000000</ele>
        <time>2010-01-01T03:06:18Z</time>
      </trkpt>
      <trkpt lat="43.87682180" lon="10.32861820">
        <ele>5.0000000</ele>
        <time>2010-01-01T03:06:53Z</time>
      </trkpt>
      <trkpt lat="43.87757970" lon="10.32812470">
        <ele>4.0000000</ele>
        <time>2010-01-01T03:07:26Z</time>
      </trkpt>
      <trkpt lat="43.87789680" lon="10.32804960">
        <ele>4.0000000</ele>
        <time>2010-01-01T03:07:39Z</time>
      </trkpt>
      <trkpt lat="43.87785810" lon="10.32745950">
        <ele>5.0000000</ele>
        <time>2010-01-01T03:07:56Z</time>
      </trkpt>
      <trkpt lat="43.87829890" lon="10.32596820">
        <ele>8.0000000</ele>
        <time>2010-01-01T03:08:43Z</time>
      </trkpt>
      <trkpt lat="43.87793540" lon="10.32460570">
        <ele>7.0000000</ele>
        <time>2010-01-01T03:09:25Z</time>
      </trkpt>
      <trkpt lat="43.87809780" lon="10.32430520">
        <ele>6.0000000</ele>
        <time>2010-01-01T03:09:35Z</time>
      </trkpt>
      <trkpt lat="43.87857730" lon="10.32412290">
        <ele>10.000000</ele>
        <time>2010-01-01T03:09:55Z</time>
      </trkpt>
      <trkpt lat="43.87942800" lon="10.32340400">
        <ele>8.0000000</ele>
        <time>2010-01-01T03:10:35Z</time>
      </trkpt>
      <trkpt lat="43.88012400" lon="10.32338260">
        <ele>7.0000000</ele>
        <time>2010-01-01T03:11:03Z</time>
      </trkpt>
      <trkpt lat="43.88040240" lon="10.32288900">
        <ele>5.0000000</ele>
        <time>2010-01-01T03:11:21Z</time>
      </trkpt>
      <trkpt lat="43.88081220" lon="10.32122610">
        <ele>4.0000000</ele>
        <time>2010-01-01T03:12:12Z</time>
      </trkpt>
      <trkpt lat="43.88172470" lon="10.31790010">
        <ele>6.0000000</ele>
        <time>2010-01-01T03:13:54Z</time>
      </trkpt>
      <trkpt lat="43.88206500" lon="10.31726710">
        <ele>6.0000000</ele>
        <time>2010-01-01T03:14:17Z</time>
      </trkpt>
      <trkpt lat="43.88283050" lon="10.31648390">
        <ele>8.0000000</ele>
        <time>2010-01-01T03:14:55Z</time>
      </trkpt>
      <trkpt lat="43.88324810" lon="10.31322240">
        <ele>3.0000000</ele>
        <time>2010-01-01T03:16:31Z</time>
      </trkpt>
      <trkpt lat="43.88354970" lon="10.31222460">
        <ele>5.0000000</ele>
        <time>2010-01-01T03:17:02Z</time>
      </trkpt>
      <trkpt lat="43.88338730" lon="10.31081910">
        <ele>3.0000000</ele>
        <time>2010-01-01T03:17:43Z</time>
      </trkpt>
      <trkpt lat="43.88269910" lon="10.30957460">
        <ele>5.0000000</ele>
        <time>2010-01-01T03:18:28Z</time>
      </trkpt>
      <trkpt lat="43.88384360" lon="10.30675290">
        <ele>7.0000000</ele>
        <time>2010-01-01T03:20:02Z</time>
      </trkpt>
      <trkpt lat="43.88451630" lon="10.30431740">
        <ele>11.000000</ele>
        <time>2010-01-01T03:21:17Z</time>
      </trkpt>
      <trkpt lat="43.88445440" lon="10.30202150">
        <ele>9.0000000</ele>
        <time>2010-01-01T03:22:23Z</time>
      </trkpt>
      <trkpt lat="43.88399050" lon="10.30054090">
        <ele>8.0000000</ele>
        <time>2010-01-01T03:23:10Z</time>
      </trkpt>
      <trkpt lat="43.88362700" lon="10.29983280">
        <ele>8.0000000</ele>
        <time>2010-01-01T03:23:35Z</time>
      </trkpt>
      <trkpt lat="43.88341050" lon="10.29893150">
        <ele>2.0000000</ele>
        <time>2010-01-01T03:24:02Z</time>
      </trkpt>
      <trkpt lat="43.88365800" lon="10.29843800">
        <ele>2.0000000</ele>
        <time>2010-01-01T03:24:20Z</time>
      </trkpt>
      <trkpt lat="43.88337960" lon="10.29796600">
        <ele>0.0000000</ele>
        <time>2010-01-01T03:24:37Z</time>
      </trkpt>
      <trkpt lat="43.88191030" lon="10.29524080">
        <ele>0.0000000</ele>
        <time>2010-01-01T03:26:16Z</time>
      </trkpt>
      <trkpt lat="43.87989970" lon="10.29226890">
        <ele>0.0000000</ele>
        <time>2010-01-01T03:28:13Z</time>
      </trkpt>
      <trkpt lat="43.87871650" lon="10.29080980">
        <ele>-1.000000</ele>
        <time>2010-01-01T03:29:17Z</time>
      </trkpt>
      <trkpt lat="43.87856180" lon="10.29025190">
        <ele>1.0000000</ele>
        <time>2010-01-01T03:29:34Z</time>
      </trkpt>
      <trkpt lat="43.87815200" lon="10.28983350">
        <ele>1.0000000</ele>
        <time>2010-01-01T03:29:54Z</time>
      </trkpt>
      <trkpt lat="43.87686820" lon="10.28799890">
        <ele>1.0000000</ele>
        <time>2010-01-01T03:31:08Z</time>
      </trkpt>
      <trkpt lat="43.87652020" lon="10.28734440">
        <ele>3.0000000</ele>
        <time>2010-01-01T03:31:31Z</time>
      </trkpt>
      <trkpt lat="43.87620310" lon="10.28589600">
        <ele>0.0000000</ele>
        <time>2010-01-01T03:32:15Z</time>
      </trkpt>
      <trkpt lat="43.87536010" lon="10.28453350">
        <ele>2.0000000</ele>
        <time>2010-01-01T03:33:07Z</time>
      </trkpt>
      <trkpt lat="43.87396020" lon="10.28303140">
        <ele>1.0000000</ele>
        <time>2010-01-01T03:34:18Z</time>
      </trkpt>
      <trkpt lat="43.87359670" lon="10.28238770">
        <ele>1.0000000</ele>
        <time>2010-01-01T03:34:41Z</time>
      </trkpt>
      <trkpt lat="43.87244440" lon="10.27967330">
        <ele>1.0000000</ele>
        <time>2010-01-01T03:36:12Z</time>
      </trkpt>
      <trkpt lat="43.87246760" lon="10.27821420">
        <ele>-1.000000</ele>
        <time>2010-01-01T03:36:54Z</time>
      </trkpt>
      <trkpt lat="43.87220460" lon="10.27721640">
        <ele>1.0000000</ele>
        <time>2010-01-01T03:37:25Z</time>
      </trkpt>
      <trkpt lat="43.87209630" lon="10.27569290">
        <ele>3.0000000</ele>
        <time>2010-01-01T03:38:09Z</time>
      </trkpt>
      <trkpt lat="43.87149300" lon="10.27434110">
        <ele>0.0000000</ele>
        <time>2010-01-01T03:38:55Z</time>
      </trkpt>
      <trkpt lat="43.87123780" lon="10.27239910">
        <ele>0.0000000</ele>
        <time>2010-01-01T03:39:52Z</time>
      </trkpt>
      <trkpt lat="43.87086650" lon="10.27215240">
        <ele>0.0000000</ele>
        <time>2010-01-01T03:40:09Z</time>
      </trkpt>
      <trkpt lat="43.87078150" lon="10.27171250">
        <ele>1.0000000</ele>
        <time>2010-01-01T03:40:22Z</time>
      </trkpt>
      <trkpt lat="43.87119910" lon="10.27141210">
        <ele>1.0000000</ele>
        <time>2010-01-01T03:40:41Z</time>
      </trkpt>
      <trkpt lat="43.87034060" lon="10.26859040">
        <ele>1.0000000</ele>
        <time>2010-01-01T03:42:09Z</time>
      </trkpt>
      <trkpt lat="43.86993840" lon="10.26641240">
        <ele>2.0000000</ele>
        <time>2010-01-01T03:43:14Z</time>
      </trkpt>
      <trkpt lat="43.86873180" lon="10.26022190">
        <ele>4.0000000</ele>
        <time>2010-01-01T03:46:19Z</time>
      </trkpt>
      <trkpt lat="43.86868150" lon="10.25987860">
        <ele>3.0000000</ele>
        <time>2010-01-01T03:46:29Z</time>
      </trkpt>
      <trkpt lat="43.86872410" lon="10.25970690">
        <ele>2.0000000</ele>
        <time>2010-01-01T03:46:34Z</time>
      </trkpt>
      <trkpt lat="43.86863510" lon="10.25954600">
        <ele>1.0000000</ele>
        <time>2010-01-01T03:46:40Z</time>
      </trkpt>
      <trkpt lat="43.86849590" lon="10.25955670">
        <ele>1.0000000</ele>
        <time>2010-01-01T03:46:46Z</time>
      </trkpt>
      <trkpt lat="43.86837600" lon="10.25929920">
        <ele>1.0000000</ele>
        <time>2010-01-01T03:46:55Z</time>
      </trkpt>
      <trkpt lat="43.86664730" lon="10.25396700">
        <ele>6.0000000</ele>
        <time>2010-01-01T03:49:43Z</time>
      </trkpt>
      <trkpt lat="43.86668590" lon="10.25370950">
        <ele>5.0000000</ele>
        <time>2010-01-01T03:49:51Z</time>
      </trkpt>
      <trkpt lat="43.86677870" lon="10.25362370">
        <ele>5.0000000</ele>
        <time>2010-01-01T03:49:55Z</time>
      </trkpt>
      <trkpt lat="43.86681360" lon="10.25346270">
        <ele>5.0000000</ele>
        <time>2010-01-01T03:50:00Z</time>
      </trkpt>
      <trkpt lat="43.86608650" lon="10.25102730">
        <ele>5.0000000</ele>
        <time>2010-01-01T03:51:16Z</time>
      </trkpt>
      <trkpt lat="43.86573000" lon="10.25001000">
        <ele>3.0000000</ele>
        <time>2010-01-01T03:51:49Z</time>
      </trkpt>
      <trkpt lat="43.86577710" lon="10.24987390">
        <ele>3.0000000</ele>
        <time>2010-01-01T03:51:53Z</time>
      </trkpt>
      <trkpt lat="43.86569000" lon="10.24980000">
        <ele>3.0000000</ele>
        <time>2010-01-01T03:51:57Z</time>
      </trkpt>
      <trkpt lat="43.86564000" lon="10.24971000">
        <ele>3.0000000</ele>
        <time>2010-01-01T03:52:01Z</time>
      </trkpt>
      <trkpt lat="43.86543000" lon="10.24857000">
        <ele>4.0000000</ele>
        <time>2010-01-01T03:52:35Z</time>
      </trkpt>
      <trkpt lat="43.86541000" lon="10.24841000">
        <ele>3.0000000</ele>
        <time>2010-01-01T03:52:39Z</time>
      </trkpt>
      <trkpt lat="43.86539000" lon="10.24799000">
        <ele>4.0000000</ele>
        <time>2010-01-01T03:52:51Z</time>
      </trkpt>
      <trkpt lat="43.86545000" lon="10.24718000">
        <ele>4.0000000</ele>
        <time>2010-01-01T03:53:15Z</time>
      </trkpt>
      <trkpt lat="43.86558000" lon="10.24651000">
        <ele>2.0000000</ele>
        <time>2010-01-01T03:53:35Z</time>
      </trkpt>
      <trkpt lat="43.86562000" lon="10.24641000">
        <ele>2.0000000</ele>
        <time>2010-01-01T03:53:38Z</time>
      </trkpt>
      <trkpt lat="43.86571000" lon="10.24632000">
        <ele>3.0000000</ele>
        <time>2010-01-01T03:53:43Z</time>
      </trkpt>
      <trkpt lat="43.86612000" lon="10.24607000">
        <ele>6.0000000</ele>
        <time>2010-01-01T03:54:01Z</time>
      </trkpt>
      <trkpt lat="43.86569000" lon="10.24477000">
        <ele>5.0000000</ele>
        <time>2010-01-01T03:54:42Z</time>
      </trkpt>
      <trkpt lat="43.86570000" lon="10.24458000">
        <ele>4.0000000</ele>
        <time>2010-01-01T03:54:47Z</time>
      </trkpt>
      <trkpt lat="43.86573000" lon="10.24446000">
        <ele>4.0000000</ele>
        <time>2010-01-01T03:54:51Z</time>
      </trkpt>
      <trkpt lat="43.86581000" lon="10.24435000">
        <ele>4.0000000</ele>
        <time>2010-01-01T03:54:56Z</time>
      </trkpt>
      <trkpt lat="43.86755000" lon="10.24333000">
        <ele>6.0000000</ele>
        <time>2010-01-01T03:56:11Z</time>
      </trkpt>
      <trkpt lat="43.87014000" lon="10.24185000">
        <ele>2.0000000</ele>
        <time>2010-01-01T03:58:03Z</time>
      </trkpt>
      <trkpt lat="43.87193000" lon="10.24076000">
        <ele>6.0000000</ele>
        <time>2010-01-01T03:59:22Z</time>
      </trkpt>
      <trkpt lat="43.87731000" lon="10.23764000">
        <ele>5.0000000</ele>
        <time>2010-01-01T04:03:15Z</time>
      </trkpt>
      <trkpt lat="43.88105000" lon="10.23542000">
        <ele>4.0000000</ele>
        <time>2010-01-01T04:05:58Z</time>
      </trkpt>
      <trkpt lat="43.88290000" lon="10.23436000">
        <ele>2.0000000</ele>
        <time>2010-01-01T04:07:18Z</time>
      </trkpt>
      <trkpt lat="43.88465000" lon="10.23324000">
        <ele>2.0000000</ele>
        <time>2010-01-01T04:08:35Z</time>
      </trkpt>
      <trkpt lat="43.88585000" lon="10.23233000">
        <ele>3.0000000</ele>
        <time>2010-01-01T04:09:30Z</time>
      </trkpt>
      <trkpt lat="43.88773000" lon="10.23100000">
        <ele>4.0000000</ele>
        <time>2010-01-01T04:10:54Z</time>
      </trkpt>
      <trkpt lat="43.88868000" lon="10.23028000">
        <ele>3.0000000</ele>
        <time>2010-01-01T04:11:38Z</time>
      </trkpt>
      <trkpt lat="43.88984000" lon="10.22945000">
        <ele>4.0000000</ele>
        <time>2010-01-01T04:12:30Z</time>
      </trkpt>
      <trkpt lat="43.89140000" lon="10.22822000">
        <ele>4.0000000</ele>
        <time>2010-01-01T04:13:42Z</time>
      </trkpt>
      <trkpt lat="43.89641000" lon="10.22438000">
        <ele>3.0000000</ele>
        <time>2010-01-01T04:17:31Z</time>
      </trkpt>
      <trkpt lat="43.89708000" lon="10.22389000">
        <ele>6.0000000</ele>
        <time>2010-01-01T04:18:01Z</time>
      </trkpt>
      <trkpt lat="43.89895000" lon="10.22244000">
        <ele>5.0000000</ele>
        <time>2010-01-01T04:19:27Z</time>
      </trkpt>
      <trkpt lat="43.90099000" lon="10.22092000">
        <ele>2.0000000</ele>
        <time>2010-01-01T04:21:00Z</time>
      </trkpt>
      <trkpt lat="43.90120000" lon="10.22071000">
        <ele>2.0000000</ele>
        <time>2010-01-01T04:21:10Z</time>
      </trkpt>
      <trkpt lat="43.90207000" lon="10.21910000">
        <ele>2.0000000</ele>
        <time>2010-01-01T04:22:08Z</time>
      </trkpt>
      <trkpt lat="43.90635000" lon="10.21594000">
        <ele>3.0000000</ele>
        <time>2010-01-01T04:25:22Z</time>
      </trkpt>
      <trkpt lat="43.91145000" lon="10.21211000">
        <ele>3.0000000</ele>
        <time>2010-01-01T04:29:14Z</time>
      </trkpt>
      <trkpt lat="43.91214000" lon="10.21166000">
        <ele>4.0000000</ele>
        <time>2010-01-01T04:29:45Z</time>
      </trkpt>
      <trkpt lat="43.91557000" lon="10.20917000">
        <ele>1.0000000</ele>
        <time>2010-01-01T04:32:20Z</time>
      </trkpt>
      <trkpt lat="43.91960000" lon="10.20562000">
        <ele>3.0000000</ele>
        <time>2010-01-01T04:35:31Z</time>
      </trkpt>
      <trkpt lat="43.92336000" lon="10.20236000">
        <ele>2.0000000</ele>
        <time>2010-01-01T04:38:28Z</time>
      </trkpt>
      <trkpt lat="43.92444000" lon="10.20150000">
        <ele>4.0000000</ele>
        <time>2010-01-01T04:39:18Z</time>
      </trkpt>
      <trkpt lat="43.92563000" lon="10.20044000">
        <ele>3.0000000</ele>
        <time>2010-01-01T04:40:15Z</time>
      </trkpt>
      <trkpt lat="43.92818000" lon="10.19806000">
        <ele>5.0000000</ele>
        <time>2010-01-01T04:42:18Z</time>
      </trkpt>
      <trkpt lat="43.93557000" lon="10.19132000">
        <ele>3.0000000</ele>
        <time>2010-01-01T04:48:11Z</time>
      </trkpt>
      <trkpt lat="43.93683580" lon="10.19015190">
        <ele>2.0000000</ele>
        <time>2010-01-01T04:49:12Z</time>
      </trkpt>
      <trkpt lat="43.94116220" lon="10.19823070">
        <ele>10.000000</ele>
        <time>2010-01-01T04:54:03Z</time>
      </trkpt>
      <trkpt lat="43.94583580" lon="10.20682450">
        <ele>1.0000000</ele>
        <time>2010-01-01T04:59:13Z</time>
      </trkpt>
      <trkpt lat="43.94583580" lon="10.20725360">
        <ele>2.0000000</ele>
        <time>2010-01-01T04:59:25Z</time>
      </trkpt>
      <trkpt lat="43.94610620" lon="10.20737170">
        <ele>2.0000000</ele>
        <time>2010-01-01T04:59:37Z</time>
      </trkpt>
      <trkpt lat="43.95658770" lon="10.22659770">
        <ele>10.000000</ele>
        <time>2010-01-01T05:11:12Z</time>
      </trkpt>
      <trkpt lat="43.95841810" lon="10.22416230">
        <ele>8.0000000</ele>
        <time>2010-01-01T05:12:53Z</time>
      </trkpt>
      <trkpt lat="43.96050330" lon="10.22473090">
        <ele>9.0000000</ele>
        <time>2010-01-01T05:14:18Z</time>
      </trkpt>
      <trkpt lat="43.96072720" lon="10.22528880">
        <ele>12.000000</ele>
        <time>2010-01-01T05:14:37Z</time>
      </trkpt>
      <trkpt lat="43.96010000" lon="10.22763000">
        <ele>16.000000</ele>
        <time>2010-01-01T05:15:49Z</time>
      </trkpt>
      <trkpt lat="43.95967690" lon="10.22833580">
        <ele>16.000000</ele>
        <time>2010-01-01T05:16:15Z</time>
      </trkpt>
      <trkpt lat="43.95941000" lon="10.22837000">
        <ele>16.000000</ele>
        <time>2010-01-01T05:16:26Z</time>
      </trkpt>
      <trkpt lat="43.95897000" lon="10.22818000">
        <ele>14.000000</ele>
        <time>2010-01-01T05:16:44Z</time>
      </trkpt>
      <trkpt lat="43.95872000" lon="10.22818000">
        <ele>13.000000</ele>
        <time>2010-01-01T05:16:54Z</time>
      </trkpt>
      <trkpt lat="43.95852000" lon="10.22833000">
        <ele>12.000000</ele>
        <time>2010-01-01T05:17:03Z</time>
      </trkpt>
      <trkpt lat="43.95802000" lon="10.22898000">
        <ele>13.000000</ele>
        <time>2010-01-01T05:17:31Z</time>
      </trkpt>
      <trkpt lat="43.95676000" lon="10.23054000">
        <ele>17.000000</ele>
        <time>2010-01-01T05:18:38Z</time>
      </trkpt>
      <trkpt lat="43.95588000" lon="10.23142000">
        <ele>17.000000</ele>
        <time>2010-01-01T05:19:22Z</time>
      </trkpt>
      <trkpt lat="43.95459000" lon="10.23295000">
        <ele>17.000000</ele>
        <time>2010-01-01T05:20:30Z</time>
      </trkpt>
      <trkpt lat="43.95456000" lon="10.23332000">
        <ele>18.000000</ele>
        <time>2010-01-01T05:20:40Z</time>
      </trkpt>
      <trkpt lat="43.95499000" lon="10.23424000">
        <ele>22.000000</ele>
        <time>2010-01-01T05:21:12Z</time>
      </trkpt>
      <trkpt lat="43.95389000" lon="10.23584000">
        <ele>19.000000</ele>
        <time>2010-01-01T05:22:16Z</time>
      </trkpt>
      <trkpt lat="43.95093000" lon="10.23909000">
        <ele>21.000000</ele>
        <time>2010-01-01T05:24:47Z</time>
      </trkpt>
      <trkpt lat="43.95042000" lon="10.23953000">
        <ele>18.000000</ele>
        <time>2010-01-01T05:25:11Z</time>
      </trkpt>
      <trkpt lat="43.94807000" lon="10.24097000">
        <ele>17.000000</ele>
        <time>2010-01-01T05:26:54Z</time>
      </trkpt>
      <trkpt lat="43.94788000" lon="10.24106000">
        <ele>17.000000</ele>
        <time>2010-01-01T05:27:02Z</time>
      </trkpt>
      <trkpt lat="43.94636000" lon="10.24193000">
        <ele>19.000000</ele>
        <time>2010-01-01T05:28:07Z</time>
      </trkpt>
      <trkpt lat="43.94422000" lon="10.24326000">
        <ele>12.000000</ele>
        <time>2010-01-01T05:29:41Z</time>
      </trkpt>
      <trkpt lat="43.94357000" lon="10.24383000">
        <ele>12.000000</ele>
        <time>2010-01-01T05:30:12Z</time>
      </trkpt>
      <trkpt lat="43.93915000" lon="10.24837000">
        <ele>6.0000000</ele>
        <time>2010-01-01T05:33:52Z</time>
      </trkpt>
      <trkpt lat="43.93710630" lon="10.25196070">
        <ele>4.0000000</ele>
        <time>2010-01-01T05:36:04Z</time>
      </trkpt>
      <trkpt lat="43.93688990" lon="10.25199830">
        <ele>5.0000000</ele>
        <time>2010-01-01T05:36:13Z</time>
      </trkpt>
      <trkpt lat="43.93682810" lon="10.25225040">
        <ele>6.0000000</ele>
        <time>2010-01-01T05:36:20Z</time>
      </trkpt>
      <trkpt lat="43.93574000" lon="10.25341000">
        <ele>3.0000000</ele>
        <time>2010-01-01T05:37:15Z</time>
      </trkpt>
      <trkpt lat="43.93495000" lon="10.25484000">
        <ele>5.0000000</ele>
        <time>2010-01-01T05:38:07Z</time>
      </trkpt>
      <trkpt lat="43.93268000" lon="10.25792000">
        <ele>5.0000000</ele>
        <time>2010-01-01T05:40:14Z</time>
      </trkpt>
      <trkpt lat="43.93162000" lon="10.25928000">
        <ele>7.0000000</ele>
        <time>2010-01-01T05:41:12Z</time>
      </trkpt>
      <trkpt lat="43.93186000" lon="10.25972000">
        <ele>7.0000000</ele>
        <time>2010-01-01T05:41:28Z</time>
      </trkpt>
      <trkpt lat="43.93217000" lon="10.25998000">
        <ele>7.0000000</ele>
        <time>2010-01-01T05:41:43Z</time>
      </trkpt>
      <trkpt lat="43.93262000" lon="10.26075000">
        <ele>8.0000000</ele>
        <time>2010-01-01T05:42:11Z</time>
      </trkpt>
      <trkpt lat="43.93287000" lon="10.26131000">
        <ele>6.0000000</ele>
        <time>2010-01-01T05:42:30Z</time>
      </trkpt>
      <trkpt lat="43.93346000" lon="10.26217000">
        <ele>7.0000000</ele>
        <time>2010-01-01T05:43:04Z</time>
      </trkpt>
      <trkpt lat="43.93364000" lon="10.26253000">
        <ele>10.000000</ele>
        <time>2010-01-01T05:43:17Z</time>
      </trkpt>
      <trkpt lat="43.93379000" lon="10.26301000">
        <ele>12.000000</ele>
        <time>2010-01-01T05:43:32Z</time>
      </trkpt>
      <trkpt lat="43.93330000" lon="10.26360000">
        <ele>10.000000</ele>
        <time>2010-01-01T05:43:58Z</time>
      </trkpt>
      <trkpt lat="43.93310000" lon="10.26390000">
        <ele>10.000000</ele>
        <time>2010-01-01T05:44:10Z</time>
      </trkpt>
      <trkpt lat="43.93261000" lon="10.26444000">
        <ele>13.000000</ele>
        <time>2010-01-01T05:44:35Z</time>
      </trkpt>
      <trkpt lat="43.93237000" lon="10.26488000">
        <ele>17.000000</ele>
        <time>2010-01-01T05:44:51Z</time>
      </trkpt>
      <trkpt lat="43.93222000" lon="10.26521000">
        <ele>21.000000</ele>
        <time>2010-01-01T05:45:02Z</time>
      </trkpt>
      <trkpt lat="43.93214000" lon="10.26574000">
        <ele>33.000000</ele>
        <time>2010-01-01T05:45:18Z</time>
      </trkpt>
      <trkpt lat="43.93214000" lon="10.26607000">
        <ele>36.000000</ele>
        <time>2010-01-01T05:45:27Z</time>
      </trkpt>
      <trkpt lat="43.93225000" lon="10.26640000">
        <ele>39.000000</ele>
        <time>2010-01-01T05:45:38Z</time>
      </trkpt>
      <trkpt lat="43.93226000" lon="10.26670000">
        <ele>38.000000</ele>
        <time>2010-01-01T05:45:46Z</time>
      </trkpt>
      <trkpt lat="43.93220000" lon="10.26702000">
        <ele>34.000000</ele>
        <time>2010-01-01T05:45:56Z</time>
      </trkpt>
      <trkpt lat="43.93166000" lon="10.26808000">
        <ele>21.000000</ele>
        <time>2010-01-01T05:46:33Z</time>
      </trkpt>
      <trkpt lat="43.93134000" lon="10.26846000">
        <ele>22.000000</ele>
        <time>2010-01-01T05:46:50Z</time>
      </trkpt>
      <trkpt lat="43.93116000" lon="10.26858000">
        <ele>19.000000</ele>
        <time>2010-01-01T05:46:58Z</time>
      </trkpt>
      <trkpt lat="43.93117000" lon="10.26870000">
        <ele>18.000000</ele>
        <time>2010-01-01T05:47:02Z</time>
      </trkpt>
      <trkpt lat="43.93102000" lon="10.26904000">
        <ele>13.000000</ele>
        <time>2010-01-01T05:47:13Z</time>
      </trkpt>
      <trkpt lat="43.93082000" lon="10.26928000">
        <ele>13.000000</ele>
        <time>2010-01-01T05:47:24Z</time>
      </trkpt>
      <trkpt lat="43.93042000" lon="10.26975000">
        <ele>13.000000</ele>
        <time>2010-01-01T05:47:45Z</time>
      </trkpt>
      <trkpt lat="43.93018000" lon="10.27031000">
        <ele>12.000000</ele>
        <time>2010-01-01T05:48:03Z</time>
      </trkpt>
      <trkpt lat="43.93010000" lon="10.27067000">
        <ele>13.000000</ele>
        <time>2010-01-01T05:48:14Z</time>
      </trkpt>
      <trkpt lat="43.93005000" lon="10.27113000">
        <ele>13.000000</ele>
        <time>2010-01-01T05:48:28Z</time>
      </trkpt>
      <trkpt lat="43.93000000" lon="10.27126000">
        <ele>13.000000</ele>
        <time>2010-01-01T05:48:32Z</time>
      </trkpt>
      <trkpt lat="43.93006000" lon="10.27268000">
        <ele>12.000000</ele>
        <time>2010-01-01T05:49:13Z</time>
      </trkpt>
      <trkpt lat="43.93017000" lon="10.27350000">
        <ele>16.000000</ele>
        <time>2010-01-01T05:49:37Z</time>
      </trkpt>
      <trkpt lat="43.93028000" lon="10.27412000">
        <ele>17.000000</ele>
        <time>2010-01-01T05:49:55Z</time>
      </trkpt>
      <trkpt lat="43.93026000" lon="10.27435000">
        <ele>17.000000</ele>
        <time>2010-01-01T05:50:02Z</time>
      </trkpt>
      <trkpt lat="43.93010000" lon="10.27441000">
        <ele>16.000000</ele>
        <time>2010-01-01T05:50:09Z</time>
      </trkpt>
      <trkpt lat="43.93004050" lon="10.27462540">
        <ele>16.000000</ele>
        <time>2010-01-01T05:50:15Z</time>
      </trkpt>
      <trkpt lat="43.93009460" lon="10.27479700">
        <ele>16.000000</ele>
        <time>2010-01-01T05:50:21Z</time>
      </trkpt>
      <trkpt lat="43.93023370" lon="10.27486140">
        <ele>16.000000</ele>
        <time>2010-01-01T05:50:27Z</time>
      </trkpt>
      <trkpt lat="43.93048000" lon="10.27509000">
        <ele>16.000000</ele>
        <time>2010-01-01T05:50:38Z</time>
      </trkpt>
      <trkpt lat="43.93079000" lon="10.27577000">
        <ele>17.000000</ele>
        <time>2010-01-01T05:51:02Z</time>
      </trkpt>
      <trkpt lat="43.93137000" lon="10.27727000">
        <ele>18.000000</ele>
        <time>2010-01-01T05:51:51Z</time>
      </trkpt>
      <trkpt lat="43.93163000" lon="10.27783000">
        <ele>17.000000</ele>
        <time>2010-01-01T05:52:10Z</time>
      </trkpt>
      <trkpt lat="43.93206000" lon="10.27865000">
        <ele>19.000000</ele>
        <time>2010-01-01T05:52:39Z</time>
      </trkpt>
      <trkpt lat="43.93256000" lon="10.27945000">
        <ele>17.000000</ele>
        <time>2010-01-01T05:53:10Z</time>
      </trkpt>
      <trkpt lat="43.93393000" lon="10.28107000">
        <ele>21.000000</ele>
        <time>2010-01-01T05:54:22Z</time>
      </trkpt>
      <trkpt lat="43.93454000" lon="10.28176000">
        <ele>20.000000</ele>
        <time>2010-01-01T05:54:53Z</time>
      </trkpt>
      <trkpt lat="43.93500000" lon="10.28253000">
        <ele>21.000000</ele>
        <time>2010-01-01T05:55:22Z</time>
      </trkpt>
      <trkpt lat="43.93558040" lon="10.28402920">
        <ele>24.000000</ele>
        <time>2010-01-01T05:56:11Z</time>
      </trkpt>
      <trkpt lat="43.93577000" lon="10.28477000">
        <ele>23.000000</ele>
        <time>2010-01-01T05:56:34Z</time>
      </trkpt>
      <trkpt lat="43.93579670" lon="10.28525230">
        <ele>23.000000</ele>
        <time>2010-01-01T05:56:48Z</time>
      </trkpt>
      <trkpt lat="43.93592030" lon="10.28541320">
        <ele>22.000000</ele>
        <time>2010-01-01T05:56:55Z</time>
      </trkpt>
      <trkpt lat="43.93607870" lon="10.28541860">
        <ele>23.000000</ele>
        <time>2010-01-01T05:57:01Z</time>
      </trkpt>
      <trkpt lat="43.93636070" lon="10.28556880">
        <ele>23.000000</ele>
        <time>2010-01-01T05:57:13Z</time>
      </trkpt>
      <trkpt lat="43.93700200" lon="10.28610520">
        <ele>26.000000</ele>
        <time>2010-01-01T05:57:43Z</time>
      </trkpt>
      <trkpt lat="43.93713720" lon="10.28633590">
        <ele>27.000000</ele>
        <time>2010-01-01T05:57:52Z</time>
      </trkpt>
      <trkpt lat="43.93791360" lon="10.28806320">
        <ele>29.000000</ele>
        <time>2010-01-01T05:58:50Z</time>
      </trkpt>
      <trkpt lat="43.93809520" lon="10.28869090">
        <ele>29.000000</ele>
        <time>2010-01-01T05:59:10Z</time>
      </trkpt>
      <trkpt lat="43.93850850" lon="10.29063820">
        <ele>26.000000</ele>
        <time>2010-01-01T06:00:08Z</time>
      </trkpt>
      <trkpt lat="43.93868230" lon="10.29190950">
        <ele>24.000000</ele>
        <time>2010-01-01T06:00:46Z</time>
      </trkpt>
      <trkpt lat="43.93866300" lon="10.29232800">
        <ele>25.000000</ele>
        <time>2010-01-01T06:00:58Z</time>
      </trkpt>
      <trkpt lat="43.93901060" lon="10.29420010">
        <ele>29.000000</ele>
        <time>2010-01-01T06:01:53Z</time>
      </trkpt>
      <trkpt lat="43.93899910" lon="10.29531590">
        <ele>31.000000</ele>
        <time>2010-01-01T06:02:26Z</time>
      </trkpt>
      <trkpt lat="43.93877890" lon="10.29658190">
        <ele>28.000000</ele>
        <time>2010-01-01T06:03:03Z</time>
      </trkpt>
      <trkpt lat="43.93900680" lon="10.29776210">
        <ele>31.000000</ele>
        <time>2010-01-01T06:03:38Z</time>
      </trkpt>
      <trkpt lat="43.93904150" lon="10.29814830">
        <ele>30.000000</ele>
        <time>2010-01-01T06:03:50Z</time>
      </trkpt>
      <trkpt lat="43.93892950" lon="10.30026190">
        <ele>31.000000</ele>
        <time>2010-01-01T06:04:51Z</time>
      </trkpt>
      <trkpt lat="43.93883300" lon="10.30050330">
        <ele>31.000000</ele>
        <time>2010-01-01T06:04:59Z</time>
      </trkpt>
      <trkpt lat="43.93832000" lon="10.30118000">
        <ele>33.000000</ele>
        <time>2010-01-01T06:05:27Z</time>
      </trkpt>
      <trkpt lat="43.93745000" lon="10.30037000">
        <ele>31.000000</ele>
        <time>2010-01-01T06:06:09Z</time>
      </trkpt>
      <trkpt lat="43.93741000" lon="10.30058000">
        <ele>32.000000</ele>
        <time>2010-01-01T06:06:15Z</time>
      </trkpt>
      <trkpt lat="43.93726000" lon="10.30125000">
        <ele>34.000000</ele>
        <time>2010-01-01T06:06:35Z</time>
      </trkpt>
      <trkpt lat="43.93707000" lon="10.30117000">
        <ele>34.000000</ele>
        <time>2010-01-01T06:06:43Z</time>
      </trkpt>
      <trkpt lat="43.93699000" lon="10.30106000">
        <ele>33.000000</ele>
        <time>2010-01-01T06:06:48Z</time>
      </trkpt>
      <trkpt lat="43.93693000" lon="10.30095000">
        <ele>33.000000</ele>
        <time>2010-01-01T06:06:52Z</time>
      </trkpt>
      <trkpt lat="43.93688000" lon="10.30082000">
        <ele>32.000000</ele>
        <time>2010-01-01T06:06:56Z</time>
      </trkpt>
      <trkpt lat="43.93633000" lon="10.30030000">
        <ele>30.000000</ele>
        <time>2010-01-01T06:07:23Z</time>
      </trkpt>
      <trkpt lat="43.93566000" lon="10.29955000">
        <ele>31.000000</ele>
        <time>2010-01-01T06:07:57Z</time>
      </trkpt>
      <trkpt lat="43.93539000" lon="10.29919000">
        <ele>29.000000</ele>
        <time>2010-01-01T06:08:12Z</time>
      </trkpt>
      <trkpt lat="43.93509000" lon="10.29885000">
        <ele>29.000000</ele>
        <time>2010-01-01T06:08:28Z</time>
      </trkpt>
      <trkpt lat="43.93479000" lon="10.29855000">
        <ele>29.000000</ele>
        <time>2010-01-01T06:08:42Z</time>
      </trkpt>
      <trkpt lat="43.93455000" lon="10.29828000">
        <ele>30.000000</ele>
        <time>2010-01-01T06:08:55Z</time>
      </trkpt>
      <trkpt lat="43.93422000" lon="10.29783000">
        <ele>31.000000</ele>
        <time>2010-01-01T06:09:13Z</time>
      </trkpt>
      <trkpt lat="43.93395000" lon="10.29752000">
        <ele>33.000000</ele>
        <time>2010-01-01T06:09:27Z</time>
      </trkpt>
      <trkpt lat="43.93384000" lon="10.29733000">
        <ele>35.000000</ele>
        <time>2010-01-01T06:09:34Z</time>
      </trkpt>
      <trkpt lat="43.93365000" lon="10.29661000">
        <ele>38.000000</ele>
        <time>2010-01-01T06:09:56Z</time>
      </trkpt>
      <trkpt lat="43.93344000" lon="10.29667000">
        <ele>39.000000</ele>
        <time>2010-01-01T06:10:05Z</time>
      </trkpt>
      <trkpt lat="43.93307000" lon="10.29696000">
        <ele>40.000000</ele>
        <time>2010-01-01T06:10:22Z</time>
      </trkpt>
      <trkpt lat="43.93284000" lon="10.29704000">
        <ele>40.000000</ele>
        <time>2010-01-01T06:10:31Z</time>
      </trkpt>
      <trkpt lat="43.93265000" lon="10.29701000">
        <ele>42.000000</ele>
        <time>2010-01-01T06:10:39Z</time>
      </trkpt>
      <trkpt lat="43.93257000" lon="10.29692000">
        <ele>44.000000</ele>
        <time>2010-01-01T06:10:43Z</time>
      </trkpt>
      <trkpt lat="43.93252000" lon="10.29680000">
        <ele>45.000000</ele>
        <time>2010-01-01T06:10:47Z</time>
      </trkpt>
      <trkpt lat="43.93248000" lon="10.29659000">
        <ele>47.000000</ele>
        <time>2010-01-01T06:10:54Z</time>
      </trkpt>
      <trkpt lat="43.93241000" lon="10.29603000">
        <ele>48.000000</ele>
        <time>2010-01-01T06:11:10Z</time>
      </trkpt>
      <trkpt lat="43.93232000" lon="10.29578000">
        <ele>49.000000</ele>
        <time>2010-01-01T06:11:18Z</time>
      </trkpt>
      <trkpt lat="43.93201000" lon="10.29526000">
        <ele>50.000000</ele>
        <time>2010-01-01T06:11:37Z</time>
      </trkpt>
      <trkpt lat="43.93185000" lon="10.29491000">
        <ele>50.000000</ele>
        <time>2010-01-01T06:11:49Z</time>
      </trkpt>
      <trkpt lat="43.93172000" lon="10.29475000">
        <ele>50.000000</ele>
        <time>2010-01-01T06:11:56Z</time>
      </trkpt>
      <trkpt lat="43.93141000" lon="10.29450000">
        <ele>51.000000</ele>
        <time>2010-01-01T06:12:11Z</time>
      </trkpt>
      <trkpt lat="43.93127000" lon="10.29435000">
        <ele>52.000000</ele>
        <time>2010-01-01T06:12:18Z</time>
      </trkpt>
      <trkpt lat="43.93122000" lon="10.29422000">
        <ele>52.000000</ele>
        <time>2010-01-01T06:12:22Z</time>
      </trkpt>
      <trkpt lat="43.93119000" lon="10.29367000">
        <ele>54.000000</ele>
        <time>2010-01-01T06:12:38Z</time>
      </trkpt>
      <trkpt lat="43.93113000" lon="10.29328000">
        <ele>56.000000</ele>
        <time>2010-01-01T06:12:49Z</time>
      </trkpt>
      <trkpt lat="43.93117000" lon="10.29224000">
        <ele>57.000000</ele>
        <time>2010-01-01T06:13:19Z</time>
      </trkpt>
      <trkpt lat="43.93122000" lon="10.29176000">
        <ele>60.000000</ele>
        <time>2010-01-01T06:13:33Z</time>
      </trkpt>
      <trkpt lat="43.93119000" lon="10.29145000">
        <ele>63.000000</ele>
        <time>2010-01-01T06:13:42Z</time>
      </trkpt>
      <trkpt lat="43.93105000" lon="10.29122000">
        <ele>67.000000</ele>
        <time>2010-01-01T06:13:51Z</time>
      </trkpt>
      <trkpt lat="43.93092000" lon="10.29090000">
        <ele>74.000000</ele>
        <time>2010-01-01T06:14:02Z</time>
      </trkpt>
      <trkpt lat="43.93088000" lon="10.29062000">
        <ele>79.000000</ele>
        <time>2010-01-01T06:14:10Z</time>
      </trkpt>
      <trkpt lat="43.93098000" lon="10.29040000">
        <ele>83.000000</ele>
        <time>2010-01-01T06:14:17Z</time>
      </trkpt>
      <trkpt lat="43.93150000" lon="10.29035000">
        <ele>80.000000</ele>
        <time>2010-01-01T06:14:38Z</time>
      </trkpt>
      <trkpt lat="43.93232000" lon="10.29001000">
        <ele>85.000000</ele>
        <time>2010-01-01T06:15:13Z</time>
      </trkpt>
      <trkpt lat="43.93258000" lon="10.28997000">
        <ele>87.000000</ele>
        <time>2010-01-01T06:15:23Z</time>
      </trkpt>
      <trkpt lat="43.93286460" lon="10.28987640">
        <ele>89.000000</ele>
        <time>2010-01-01T06:15:35Z</time>
      </trkpt>
      <trkpt lat="43.93310000" lon="10.28958000">
        <ele>91.000000</ele>
        <time>2010-01-01T06:15:47Z</time>
      </trkpt>
      <trkpt lat="43.93315000" lon="10.28943000">
        <ele>92.000000</ele>
        <time>2010-01-01T06:15:52Z</time>
      </trkpt>
      <trkpt lat="43.93310000" lon="10.28934000">
        <ele>94.000000</ele>
        <time>2010-01-01T06:15:55Z</time>
      </trkpt>
      <trkpt lat="43.93303000" lon="10.28935000">
        <ele>94.000000</ele>
        <time>2010-01-01T06:15:58Z</time>
      </trkpt>
      <trkpt lat="43.93300000" lon="10.28942000">
        <ele>94.000000</ele>
        <time>2010-01-01T06:16:01Z</time>
      </trkpt>
      <trkpt lat="43.93281000" lon="10.28957000">
        <ele>94.000000</ele>
        <time>2010-01-01T06:16:09Z</time>
      </trkpt>
      <trkpt lat="43.93249000" lon="10.28958000">
        <ele>93.000000</ele>
        <time>2010-01-01T06:16:22Z</time>
      </trkpt>
      <trkpt lat="43.93217000" lon="10.28947000">
        <ele>97.000000</ele>
        <time>2010-01-01T06:16:35Z</time>
      </trkpt>
      <trkpt lat="43.93192000" lon="10.28947000">
        <ele>101.00000</ele>
        <time>2010-01-01T06:16:45Z</time>
      </trkpt>
      <trkpt lat="43.93162000" lon="10.28972000">
        <ele>100.00000</ele>
        <time>2010-01-01T06:16:59Z</time>
      </trkpt>
      <trkpt lat="43.93140000" lon="10.28984000">
        <ele>99.000000</ele>
        <time>2010-01-01T06:17:09Z</time>
      </trkpt>
      <trkpt lat="43.93116000" lon="10.28978000">
        <ele>101.00000</ele>
        <time>2010-01-01T06:17:19Z</time>
      </trkpt>
      <trkpt lat="43.93094000" lon="10.28957000">
        <ele>105.00000</ele>
        <time>2010-01-01T06:17:29Z</time>
      </trkpt>
      <trkpt lat="43.93078000" lon="10.28919000">
        <ele>113.00000</ele>
        <time>2010-01-01T06:17:42Z</time>
      </trkpt>
      <trkpt lat="43.93052000" lon="10.28893000">
        <ele>119.00000</ele>
        <time>2010-01-01T06:17:55Z</time>
      </trkpt>
      <trkpt lat="43.93059300" lon="10.28878210">
        <ele>123.00000</ele>
        <time>2010-01-01T06:18:00Z</time>
      </trkpt>
      <trkpt lat="43.93074000" lon="10.28882000">
        <ele>122.00000</ele>
        <time>2010-01-01T06:18:06Z</time>
      </trkpt>
      <trkpt lat="43.93089000" lon="10.28897000">
        <ele>119.00000</ele>
        <time>2010-01-01T06:18:13Z</time>
      </trkpt>
      <trkpt lat="43.93104000" lon="10.28936000">
        <ele>112.00000</ele>
        <time>2010-01-01T06:18:26Z</time>
      </trkpt>
      <trkpt lat="43.93126000" lon="10.28954000">
        <ele>109.00000</ele>
        <time>2010-01-01T06:18:36Z</time>
      </trkpt>
      <trkpt lat="43.93141000" lon="10.28948000">
        <ele>113.00000</ele>
        <time>2010-01-01T06:18:43Z</time>
      </trkpt>
      <trkpt lat="43.93149000" lon="10.28940000">
        <ele>115.00000</ele>
        <time>2010-01-01T06:18:47Z</time>
      </trkpt>
      <trkpt lat="43.93163000" lon="10.28913000">
        <ele>118.00000</ele>
        <time>2010-01-01T06:18:56Z</time>
      </trkpt>
      <trkpt lat="43.93181000" lon="10.28890000">
        <ele>118.00000</ele>
        <time>2010-01-01T06:19:06Z</time>
      </trkpt>
      <trkpt lat="43.93180000" lon="10.28874000">
        <ele>117.00000</ele>
        <time>2010-01-01T06:19:11Z</time>
      </trkpt>
      <trkpt lat="43.93171000" lon="10.28864000">
        <ele>119.00000</ele>
        <time>2010-01-01T06:19:15Z</time>
      </trkpt>
      <trkpt lat="43.93099000" lon="10.28834000">
        <ele>127.00000</ele>
        <time>2010-01-01T06:19:45Z</time>
      </trkpt>
      <trkpt lat="43.93066000" lon="10.28823000">
        <ele>134.00000</ele>
        <time>2010-01-01T06:19:59Z</time>
      </trkpt>
      <trkpt lat="43.93061000" lon="10.28813000">
        <ele>137.00000</ele>
        <time>2010-01-01T06:20:02Z</time>
      </trkpt>
      <trkpt lat="43.93059000" lon="10.28800000">
        <ele>140.00000</ele>
        <time>2010-01-01T06:20:06Z</time>
      </trkpt>
      <trkpt lat="43.93064000" lon="10.28787000">
        <ele>140.00000</ele>
        <time>2010-01-01T06:20:10Z</time>
      </trkpt>
      <trkpt lat="43.93097000" lon="10.28726000">
        <ele>137.00000</ele>
        <time>2010-01-01T06:20:32Z</time>
      </trkpt>
      <trkpt lat="43.93098000" lon="10.28715000">
        <ele>135.00000</ele>
        <time>2010-01-01T06:20:36Z</time>
      </trkpt>
      <trkpt lat="43.93092000" lon="10.28699000">
        <ele>134.00000</ele>
        <time>2010-01-01T06:20:41Z</time>
      </trkpt>
      <trkpt lat="43.93077000" lon="10.28696000">
        <ele>134.00000</ele>
        <time>2010-01-01T06:20:47Z</time>
      </trkpt>
      <trkpt lat="43.93069000" lon="10.28700000">
        <ele>135.00000</ele>
        <time>2010-01-01T06:20:50Z</time>
      </trkpt>
      <trkpt lat="43.93062000" lon="10.28708000">
        <ele>137.00000</ele>
        <time>2010-01-01T06:20:54Z</time>
      </trkpt>
      <trkpt lat="43.93050000" lon="10.28743000">
        <ele>142.00000</ele>
        <time>2010-01-01T06:21:05Z</time>
      </trkpt>
      <trkpt lat="43.93043000" lon="10.28753000">
        <ele>143.00000</ele>
        <time>2010-01-01T06:21:09Z</time>
      </trkpt>
      <trkpt lat="43.92995000" lon="10.28761000">
        <ele>146.00000</ele>
        <time>2010-01-01T06:21:29Z</time>
      </trkpt>
      <trkpt lat="43.92964000" lon="10.28770000">
        <ele>156.00000</ele>
        <time>2010-01-01T06:21:41Z</time>
      </trkpt>
      <trkpt lat="43.92945000" lon="10.28777000">
        <ele>161.00000</ele>
        <time>2010-01-01T06:21:49Z</time>
      </trkpt>
      <trkpt lat="43.92902000" lon="10.28781000">
        <ele>172.00000</ele>
        <time>2010-01-01T06:22:06Z</time>
      </trkpt>
      <trkpt lat="43.92877000" lon="10.28775000">
        <ele>181.00000</ele>
        <time>2010-01-01T06:22:16Z</time>
      </trkpt>
      <trkpt lat="43.92865000" lon="10.28766000">
        <ele>184.00000</ele>
        <time>2010-01-01T06:22:22Z</time>
      </trkpt>
      <trkpt lat="43.92854000" lon="10.28721000">
        <ele>182.00000</ele>
        <time>2010-01-01T06:22:36Z</time>
      </trkpt>
      <trkpt lat="43.92857000" lon="10.28625000">
        <ele>182.00000</ele>
        <time>2010-01-01T06:23:03Z</time>
      </trkpt>
      <trkpt lat="43.92860000" lon="10.28576000">
        <ele>179.00000</ele>
        <time>2010-01-01T06:23:18Z</time>
      </trkpt>
      <trkpt lat="43.92856000" lon="10.28569000">
        <ele>180.00000</ele>
        <time>2010-01-01T06:23:20Z</time>
      </trkpt>
      <trkpt lat="43.92851000" lon="10.28567000">
        <ele>182.00000</ele>
        <time>2010-01-01T06:23:22Z</time>
      </trkpt>
      <trkpt lat="43.92834000" lon="10.28574000">
        <ele>189.00000</ele>
        <time>2010-01-01T06:23:29Z</time>
      </trkpt>
      <trkpt lat="43.92828000" lon="10.28592000">
        <ele>191.00000</ele>
        <time>2010-01-01T06:23:35Z</time>
      </trkpt>
      <trkpt lat="43.92826000" lon="10.28615000">
        <ele>193.00000</ele>
        <time>2010-01-01T06:23:42Z</time>
      </trkpt>
      <trkpt lat="43.92833000" lon="10.28673000">
        <ele>195.00000</ele>
        <time>2010-01-01T06:23:59Z</time>
      </trkpt>
      <trkpt lat="43.92828000" lon="10.28694000">
        <ele>195.00000</ele>
        <time>2010-01-01T06:24:05Z</time>
      </trkpt>
      <trkpt lat="43.92812000" lon="10.28713000">
        <ele>194.00000</ele>
        <time>2010-01-01T06:24:13Z</time>
      </trkpt>
      <trkpt lat="43.92805000" lon="10.28729000">
        <ele>192.00000</ele>
        <time>2010-01-01T06:24:19Z</time>
      </trkpt>
      <trkpt lat="43.92818000" lon="10.28798000">
        <ele>195.00000</ele>
        <time>2010-01-01T06:24:39Z</time>
      </trkpt>
      <trkpt lat="43.92836000" lon="10.28849000">
        <ele>204.00000</ele>
        <time>2010-01-01T06:24:56Z</time>
      </trkpt>
      <trkpt lat="43.92839000" lon="10.28880000">
        <ele>207.00000</ele>
        <time>2010-01-01T06:25:05Z</time>
      </trkpt>
      <trkpt lat="43.92832000" lon="10.28929000">
        <ele>210.00000</ele>
        <time>2010-01-01T06:25:19Z</time>
      </trkpt>
      <trkpt lat="43.92822000" lon="10.28949000">
        <ele>211.00000</ele>
        <time>2010-01-01T06:25:26Z</time>
      </trkpt>
      <trkpt lat="43.92797000" lon="10.28973000">
        <ele>212.00000</ele>
        <time>2010-01-01T06:25:38Z</time>
      </trkpt>
      <trkpt lat="43.92762000" lon="10.28995000">
        <ele>211.00000</ele>
        <time>2010-01-01T06:25:54Z</time>
      </trkpt>
      <trkpt lat="43.92747000" lon="10.29011000">
        <ele>211.00000</ele>
        <time>2010-01-01T06:26:01Z</time>
      </trkpt>
      <trkpt lat="43.92731000" lon="10.29036000">
        <ele>211.00000</ele>
        <time>2010-01-01T06:26:11Z</time>
      </trkpt>
      <trkpt lat="43.92724000" lon="10.29054000">
        <ele>212.00000</ele>
        <time>2010-01-01T06:26:17Z</time>
      </trkpt>
      <trkpt lat="43.92720000" lon="10.29079000">
        <ele>212.00000</ele>
        <time>2010-01-01T06:26:24Z</time>
      </trkpt>
      <trkpt lat="43.92721000" lon="10.29104000">
        <ele>212.00000</ele>
        <time>2010-01-01T06:26:31Z</time>
      </trkpt>
      <trkpt lat="43.92706000" lon="10.29138000">
        <ele>215.00000</ele>
        <time>2010-01-01T06:26:43Z</time>
      </trkpt>
      <trkpt lat="43.92671000" lon="10.29189000">
        <ele>219.00000</ele>
        <time>2010-01-01T06:27:03Z</time>
      </trkpt>
      <trkpt lat="43.92666000" lon="10.29213000">
        <ele>220.00000</ele>
        <time>2010-01-01T06:27:10Z</time>
      </trkpt>
      <trkpt lat="43.92668000" lon="10.29244000">
        <ele>219.00000</ele>
        <time>2010-01-01T06:27:19Z</time>
      </trkpt>
      <trkpt lat="43.92659000" lon="10.29262000">
        <ele>219.00000</ele>
        <time>2010-01-01T06:27:26Z</time>
      </trkpt>
      <trkpt lat="43.92624000" lon="10.29271000">
        <ele>222.00000</ele>
        <time>2010-01-01T06:27:40Z</time>
      </trkpt>
      <trkpt lat="43.92549000" lon="10.29297000">
        <ele>226.00000</ele>
        <time>2010-01-01T06:28:11Z</time>
      </trkpt>
      <trkpt lat="43.92535000" lon="10.29304000">
        <ele>226.00000</ele>
        <time>2010-01-01T06:28:17Z</time>
      </trkpt>
      <trkpt lat="43.92519000" lon="10.29320000">
        <ele>226.00000</ele>
        <time>2010-01-01T06:28:25Z</time>
      </trkpt>
      <trkpt lat="43.92506000" lon="10.29351000">
        <ele>230.00000</ele>
        <time>2010-01-01T06:28:35Z</time>
      </trkpt>
      <trkpt lat="43.92502000" lon="10.29371000">
        <ele>233.00000</ele>
        <time>2010-01-01T06:28:41Z</time>
      </trkpt>
      <trkpt lat="43.92501000" lon="10.29391000">
        <ele>236.00000</ele>
        <time>2010-01-01T06:28:47Z</time>
      </trkpt>
      <trkpt lat="43.92502000" lon="10.29406000">
        <ele>239.00000</ele>
        <time>2010-01-01T06:28:51Z</time>
      </trkpt>
      <trkpt lat="43.92484000" lon="10.29451000">
        <ele>247.00000</ele>
        <time>2010-01-01T06:29:06Z</time>
      </trkpt>
      <trkpt lat="43.92476000" lon="10.29455000">
        <ele>249.00000</ele>
        <time>2010-01-01T06:29:09Z</time>
      </trkpt>
      <trkpt lat="43.92445000" lon="10.29427000">
        <ele>244.00000</ele>
        <time>2010-01-01T06:29:24Z</time>
      </trkpt>
      <trkpt lat="43.92435000" lon="10.29428000">
        <ele>243.00000</ele>
        <time>2010-01-01T06:29:28Z</time>
      </trkpt>
      <trkpt lat="43.92410000" lon="10.29444000">
        <ele>246.00000</ele>
        <time>2010-01-01T06:29:39Z</time>
      </trkpt>
      <trkpt lat="43.92399000" lon="10.29458000">
        <ele>250.00000</ele>
        <time>2010-01-01T06:29:45Z</time>
      </trkpt>
      <trkpt lat="43.92379000" lon="10.29503000">
        <ele>263.00000</ele>
        <time>2010-01-01T06:30:01Z</time>
      </trkpt>
      <trkpt lat="43.92373000" lon="10.29513000">
        <ele>266.00000</ele>
        <time>2010-01-01T06:30:04Z</time>
      </trkpt>
      <trkpt lat="43.92361000" lon="10.29519000">
        <ele>268.00000</ele>
        <time>2010-01-01T06:30:09Z</time>
      </trkpt>
      <trkpt lat="43.92352000" lon="10.29517000">
        <ele>270.00000</ele>
        <time>2010-01-01T06:30:13Z</time>
      </trkpt>
      <trkpt lat="43.92343000" lon="10.29509000">
        <ele>269.00000</ele>
        <time>2010-01-01T06:30:17Z</time>
      </trkpt>
      <trkpt lat="43.92329000" lon="10.29466000">
        <ele>253.00000</ele>
        <time>2010-01-01T06:30:31Z</time>
      </trkpt>
      <trkpt lat="43.92318000" lon="10.29451000">
        <ele>255.00000</ele>
        <time>2010-01-01T06:30:37Z</time>
      </trkpt>
      <trkpt lat="43.92290000" lon="10.29439000">
        <ele>264.00000</ele>
        <time>2010-01-01T06:30:49Z</time>
      </trkpt>
      <trkpt lat="43.92277000" lon="10.29432000">
        <ele>268.00000</ele>
        <time>2010-01-01T06:30:54Z</time>
      </trkpt>
      <trkpt lat="43.92264000" lon="10.29413000">
        <ele>274.00000</ele>
        <time>2010-01-01T06:31:02Z</time>
      </trkpt>
      <trkpt lat="43.92259000" lon="10.29394000">
        <ele>278.00000</ele>
        <time>2010-01-01T06:31:08Z</time>
      </trkpt>
      <trkpt lat="43.92265000" lon="10.29382000">
        <ele>277.00000</ele>
        <time>2010-01-01T06:31:12Z</time>
      </trkpt>
      <trkpt lat="43.92280000" lon="10.29372000">
        <ele>271.00000</ele>
        <time>2010-01-01T06:31:19Z</time>
      </trkpt>
      <trkpt lat="43.92298000" lon="10.29366000">
        <ele>265.00000</ele>
        <time>2010-01-01T06:31:26Z</time>
      </trkpt>
      <trkpt lat="43.92307000" lon="10.29354000">
        <ele>265.00000</ele>
        <time>2010-01-01T06:31:31Z</time>
      </trkpt>
      <trkpt lat="43.92311000" lon="10.29336000">
        <ele>269.00000</ele>
        <time>2010-01-01T06:31:37Z</time>
      </trkpt>
      <trkpt lat="43.92320000" lon="10.29326000">
        <ele>269.00000</ele>
        <time>2010-01-01T06:31:41Z</time>
      </trkpt>
      <trkpt lat="43.92330000" lon="10.29322000">
        <ele>265.00000</ele>
        <time>2010-01-01T06:31:45Z</time>
      </trkpt>
      <trkpt lat="43.92342000" lon="10.29310000">
        <ele>263.00000</ele>
        <time>2010-01-01T06:31:51Z</time>
      </trkpt>
      <trkpt lat="43.92356000" lon="10.29276000">
        <ele>261.00000</ele>
        <time>2010-01-01T06:32:03Z</time>
      </trkpt>
      <trkpt lat="43.92353000" lon="10.29251000">
        <ele>261.00000</ele>
        <time>2010-01-01T06:32:10Z</time>
      </trkpt>
      <trkpt lat="43.92341000" lon="10.29238000">
        <ele>262.00000</ele>
        <time>2010-01-01T06:32:16Z</time>
      </trkpt>
      <trkpt lat="43.92318000" lon="10.29226000">
        <ele>270.00000</ele>
        <time>2010-01-01T06:32:26Z</time>
      </trkpt>
      <trkpt lat="43.92289000" lon="10.29190000">
        <ele>271.00000</ele>
        <time>2010-01-01T06:32:41Z</time>
      </trkpt>
      <trkpt lat="43.92262000" lon="10.29180000">
        <ele>275.00000</ele>
        <time>2010-01-01T06:32:53Z</time>
      </trkpt>
      <trkpt lat="43.92237000" lon="10.29177000">
        <ele>280.00000</ele>
        <time>2010-01-01T06:33:03Z</time>
      </trkpt>
      <trkpt lat="43.92233000" lon="10.29180000">
        <ele>283.00000</ele>
        <time>2010-01-01T06:33:04Z</time>
      </trkpt>
      <trkpt lat="43.92233000" lon="10.29186000">
        <ele>285.00000</ele>
        <time>2010-01-01T06:33:06Z</time>
      </trkpt>
      <trkpt lat="43.92237000" lon="10.29192000">
        <ele>285.00000</ele>
        <time>2010-01-01T06:33:08Z</time>
      </trkpt>
      <trkpt lat="43.92270000" lon="10.29201000">
        <ele>282.00000</ele>
        <time>2010-01-01T06:33:22Z</time>
      </trkpt>
      <trkpt lat="43.92290000" lon="10.29211000">
        <ele>279.00000</ele>
        <time>2010-01-01T06:33:30Z</time>
      </trkpt>
      <trkpt lat="43.92312000" lon="10.29253000">
        <ele>280.00000</ele>
        <time>2010-01-01T06:33:45Z</time>
      </trkpt>
      <trkpt lat="43.92313000" lon="10.29269000">
        <ele>281.00000</ele>
        <time>2010-01-01T06:33:50Z</time>
      </trkpt>
      <trkpt lat="43.92302000" lon="10.29287000">
        <ele>287.00000</ele>
        <time>2010-01-01T06:33:57Z</time>
      </trkpt>
      <trkpt lat="43.92217000" lon="10.29363000">
        <ele>307.00000</ele>
        <time>2010-01-01T06:34:37Z</time>
      </trkpt>
      <trkpt lat="43.92212000" lon="10.29380000">
        <ele>306.00000</ele>
        <time>2010-01-01T06:34:43Z</time>
      </trkpt>
      <trkpt lat="43.92212780" lon="10.29422700">
        <ele>304.00000</ele>
        <time>2010-01-01T06:34:55Z</time>
      </trkpt>
      <trkpt lat="43.92222000" lon="10.29448000">
        <ele>301.00000</ele>
        <time>2010-01-01T06:35:03Z</time>
      </trkpt>
      <trkpt lat="43.92268810" lon="10.29514960">
        <ele>296.00000</ele>
        <time>2010-01-01T06:35:30Z</time>
      </trkpt>
      <trkpt lat="43.92256000" lon="10.29533000">
        <ele>301.00000</ele>
        <time>2010-01-01T06:35:37Z</time>
      </trkpt>
      <trkpt lat="43.92219000" lon="10.29486000">
        <ele>303.00000</ele>
        <time>2010-01-01T06:35:57Z</time>
      </trkpt>
      <trkpt lat="43.92195000" lon="10.29430000">
        <ele>307.00000</ele>
        <time>2010-01-01T06:36:16Z</time>
      </trkpt>
      <trkpt lat="43.92183000" lon="10.29410000">
        <ele>310.00000</ele>
        <time>2010-01-01T06:36:24Z</time>
      </trkpt>
      <trkpt lat="43.92159000" lon="10.29401000">
        <ele>316.00000</ele>
        <time>2010-01-01T06:36:34Z</time>
      </trkpt>
      <trkpt lat="43.92145000" lon="10.29405000">
        <ele>317.00000</ele>
        <time>2010-01-01T06:36:39Z</time>
      </trkpt>
      <trkpt lat="43.92127000" lon="10.29406000">
        <ele>320.00000</ele>
        <time>2010-01-01T06:36:47Z</time>
      </trkpt>
      <trkpt lat="43.92099000" lon="10.29413000">
        <ele>322.00000</ele>
        <time>2010-01-01T06:36:58Z</time>
      </trkpt>
      <trkpt lat="43.92071000" lon="10.29412000">
        <ele>324.00000</ele>
        <time>2010-01-01T06:37:09Z</time>
      </trkpt>
      <trkpt lat="43.91974000" lon="10.29466000">
        <ele>328.00000</ele>
        <time>2010-01-01T06:37:51Z</time>
      </trkpt>
      <trkpt lat="43.91952000" lon="10.29475000">
        <ele>332.00000</ele>
        <time>2010-01-01T06:38:00Z</time>
      </trkpt>
      <trkpt lat="43.91943000" lon="10.29475000">
        <ele>334.00000</ele>
        <time>2010-01-01T06:38:04Z</time>
      </trkpt>
      <trkpt lat="43.91928000" lon="10.29462000">
        <ele>338.00000</ele>
        <time>2010-01-01T06:38:11Z</time>
      </trkpt>
      <trkpt lat="43.91904000" lon="10.29448000">
        <ele>342.00000</ele>
        <time>2010-01-01T06:38:21Z</time>
      </trkpt>
      <trkpt lat="43.91891000" lon="10.29449000">
        <ele>342.00000</ele>
        <time>2010-01-01T06:38:26Z</time>
      </trkpt>
      <trkpt lat="43.91882000" lon="10.29445000">
        <ele>343.00000</ele>
        <time>2010-01-01T06:38:30Z</time>
      </trkpt>
      <trkpt lat="43.91879000" lon="10.29435000">
        <ele>345.00000</ele>
        <time>2010-01-01T06:38:33Z</time>
      </trkpt>
      <trkpt lat="43.91883000" lon="10.29426000">
        <ele>347.00000</ele>
        <time>2010-01-01T06:38:36Z</time>
      </trkpt>
      <trkpt lat="43.91900000" lon="10.29424000">
        <ele>347.00000</ele>
        <time>2010-01-01T06:38:43Z</time>
      </trkpt>
      <trkpt lat="43.91905210" lon="10.29414650">
        <ele>349.00000</ele>
        <time>2010-01-01T06:38:47Z</time>
      </trkpt>
      <trkpt lat="43.91899000" lon="10.29407000">
        <ele>350.00000</ele>
        <time>2010-01-01T06:38:50Z</time>
      </trkpt>
      <trkpt lat="43.91885000" lon="10.29410000">
        <ele>350.00000</ele>
        <time>2010-01-01T06:38:56Z</time>
      </trkpt>
      <trkpt lat="43.91860000" lon="10.29423000">
        <ele>348.00000</ele>
        <time>2010-01-01T06:39:06Z</time>
      </trkpt>
      <trkpt lat="43.91837000" lon="10.29438000">
        <ele>350.00000</ele>
        <time>2010-01-01T06:39:17Z</time>
      </trkpt>
      <trkpt lat="43.91833000" lon="10.29435000">
        <ele>351.00000</ele>
        <time>2010-01-01T06:39:18Z</time>
      </trkpt>
      <trkpt lat="43.91816000" lon="10.29435000">
        <ele>353.00000</ele>
        <time>2010-01-01T06:39:25Z</time>
      </trkpt>
      <trkpt lat="43.91802000" lon="10.29432000">
        <ele>354.00000</ele>
        <time>2010-01-01T06:39:31Z</time>
      </trkpt>
      <trkpt lat="43.91792000" lon="10.29426000">
        <ele>351.00000</ele>
        <time>2010-01-01T06:39:35Z</time>
      </trkpt>
      <trkpt lat="43.91784000" lon="10.29426000">
        <ele>351.00000</ele>
        <time>2010-01-01T06:39:38Z</time>
      </trkpt>
      <trkpt lat="43.91761000" lon="10.29449000">
        <ele>352.00000</ele>
        <time>2010-01-01T06:39:50Z</time>
      </trkpt>
      <trkpt lat="43.91740000" lon="10.29457000">
        <ele>350.00000</ele>
        <time>2010-01-01T06:39:58Z</time>
      </trkpt>
      <trkpt lat="43.91729000" lon="10.29452000">
        <ele>349.00000</ele>
        <time>2010-01-01T06:40:03Z</time>
      </trkpt>
      <trkpt lat="43.91712000" lon="10.29429000">
        <ele>345.00000</ele>
        <time>2010-01-01T06:40:13Z</time>
      </trkpt>
      <trkpt lat="43.91702000" lon="10.29420000">
        <ele>343.00000</ele>
        <time>2010-01-01T06:40:17Z</time>
      </trkpt>
      <trkpt lat="43.91689000" lon="10.29419000">
        <ele>342.00000</ele>
        <time>2010-01-01T06:40:23Z</time>
      </trkpt>
      <trkpt lat="43.91662000" lon="10.29430000">
        <ele>341.00000</ele>
        <time>2010-01-01T06:40:34Z</time>
      </trkpt>
      <trkpt lat="43.91646000" lon="10.29434000">
        <ele>339.00000</ele>
        <time>2010-01-01T06:40:40Z</time>
      </trkpt>
      <trkpt lat="43.91627000" lon="10.29437000">
        <ele>336.00000</ele>
        <time>2010-01-01T06:40:48Z</time>
      </trkpt>
      <trkpt lat="43.91613000" lon="10.29444000">
        <ele>335.00000</ele>
        <time>2010-01-01T06:40:54Z</time>
      </trkpt>
      <trkpt lat="43.91586000" lon="10.29465000">
        <ele>332.00000</ele>
        <time>2010-01-01T06:41:06Z</time>
      </trkpt>
      <trkpt lat="43.91572000" lon="10.29487000">
        <ele>330.00000</ele>
        <time>2010-01-01T06:41:15Z</time>
      </trkpt>
      <trkpt lat="43.91565000" lon="10.29519000">
        <ele>331.00000</ele>
        <time>2010-01-01T06:41:24Z</time>
      </trkpt>
      <trkpt lat="43.91558000" lon="10.29525000">
        <ele>331.00000</ele>
        <time>2010-01-01T06:41:28Z</time>
      </trkpt>
      <trkpt lat="43.91537000" lon="10.29526000">
        <ele>330.00000</ele>
        <time>2010-01-01T06:41:36Z</time>
      </trkpt>
      <trkpt lat="43.91509000" lon="10.29516000">
        <ele>328.00000</ele>
        <time>2010-01-01T06:41:48Z</time>
      </trkpt>
      <trkpt lat="43.91500000" lon="10.29508000">
        <ele>326.00000</ele>
        <time>2010-01-01T06:41:52Z</time>
      </trkpt>
      <trkpt lat="43.91485000" lon="10.29495000">
        <ele>325.00000</ele>
        <time>2010-01-01T06:41:59Z</time>
      </trkpt>
      <trkpt lat="43.91449000" lon="10.29480000">
        <ele>330.00000</ele>
        <time>2010-01-01T06:42:14Z</time>
      </trkpt>
      <trkpt lat="43.91442000" lon="10.29468000">
        <ele>328.00000</ele>
        <time>2010-01-01T06:42:19Z</time>
      </trkpt>
      <trkpt lat="43.91431000" lon="10.29429000">
        <ele>314.00000</ele>
        <time>2010-01-01T06:42:31Z</time>
      </trkpt>
      <trkpt lat="43.91417000" lon="10.29415000">
        <ele>313.00000</ele>
        <time>2010-01-01T06:42:38Z</time>
      </trkpt>
      <trkpt lat="43.91406000" lon="10.29410000">
        <ele>313.00000</ele>
        <time>2010-01-01T06:42:42Z</time>
      </trkpt>
      <trkpt lat="43.91383000" lon="10.29405000">
        <ele>315.00000</ele>
        <time>2010-01-01T06:42:52Z</time>
      </trkpt>
      <trkpt lat="43.91318000" lon="10.29379000">
        <ele>315.00000</ele>
        <time>2010-01-01T06:43:19Z</time>
      </trkpt>
      <trkpt lat="43.91290010" lon="10.29342230">
        <ele>314.00000</ele>
        <time>2010-01-01T06:43:34Z</time>
      </trkpt>
      <trkpt lat="43.91262000" lon="10.29320000">
        <ele>316.00000</ele>
        <time>2010-01-01T06:43:47Z</time>
      </trkpt>
      <trkpt lat="43.91232000" lon="10.29311000">
        <ele>318.00000</ele>
        <time>2010-01-01T06:43:59Z</time>
      </trkpt>
      <trkpt lat="43.91214000" lon="10.29311000">
        <ele>318.00000</ele>
        <time>2010-01-01T06:44:06Z</time>
      </trkpt>
      <trkpt lat="43.91189000" lon="10.29323000">
        <ele>316.00000</ele>
        <time>2010-01-01T06:44:17Z</time>
      </trkpt>
      <trkpt lat="43.91172000" lon="10.29335000">
        <ele>315.00000</ele>
        <time>2010-01-01T06:44:25Z</time>
      </trkpt>
      <trkpt lat="43.91127000" lon="10.29389000">
        <ele>311.00000</ele>
        <time>2010-01-01T06:44:48Z</time>
      </trkpt>
      <trkpt lat="43.91113000" lon="10.29376000">
        <ele>310.00000</ele>
        <time>2010-01-01T06:44:55Z</time>
      </trkpt>
      <trkpt lat="43.91089000" lon="10.29348000">
        <ele>307.00000</ele>
        <time>2010-01-01T06:45:08Z</time>
      </trkpt>
      <trkpt lat="43.91065000" lon="10.29313000">
        <ele>303.00000</ele>
        <time>2010-01-01T06:45:22Z</time>
      </trkpt>
      <trkpt lat="43.91058000" lon="10.29300000">
        <ele>301.00000</ele>
        <time>2010-01-01T06:45:26Z</time>
      </trkpt>
      <trkpt lat="43.91043000" lon="10.29280000">
        <ele>296.00000</ele>
        <time>2010-01-01T06:45:35Z</time>
      </trkpt>
      <trkpt lat="43.91029000" lon="10.29256000">
        <ele>293.00000</ele>
        <time>2010-01-01T06:45:44Z</time>
      </trkpt>
      <trkpt lat="43.91020000" lon="10.29248000">
        <ele>292.00000</ele>
        <time>2010-01-01T06:45:48Z</time>
      </trkpt>
      <trkpt lat="43.90998000" lon="10.29234000">
        <ele>287.00000</ele>
        <time>2010-01-01T06:45:58Z</time>
      </trkpt>
      <trkpt lat="43.90957000" lon="10.29190000">
        <ele>277.00000</ele>
        <time>2010-01-01T06:46:18Z</time>
      </trkpt>
      <trkpt lat="43.90918000" lon="10.29141000">
        <ele>276.00000</ele>
        <time>2010-01-01T06:46:39Z</time>
      </trkpt>
      <trkpt lat="43.90897000" lon="10.29132000">
        <ele>272.00000</ele>
        <time>2010-01-01T06:46:48Z</time>
      </trkpt>
      <trkpt lat="43.90886000" lon="10.29120000">
        <ele>269.00000</ele>
        <time>2010-01-01T06:46:54Z</time>
      </trkpt>
      <trkpt lat="43.90847000" lon="10.29055000">
        <ele>260.00000</ele>
        <time>2010-01-01T06:47:18Z</time>
      </trkpt>
      <trkpt lat="43.90835000" lon="10.29051000">
        <ele>258.00000</ele>
        <time>2010-01-01T06:47:23Z</time>
      </trkpt>
      <trkpt lat="43.90834000" lon="10.29061000">
        <ele>257.00000</ele>
        <time>2010-01-01T06:47:26Z</time>
      </trkpt>
      <trkpt lat="43.90839000" lon="10.29099000">
        <ele>256.00000</ele>
        <time>2010-01-01T06:47:37Z</time>
      </trkpt>
      <trkpt lat="43.90843000" lon="10.29117000">
        <ele>257.00000</ele>
        <time>2010-01-01T06:47:43Z</time>
      </trkpt>
      <trkpt lat="43.90853000" lon="10.29139000">
        <ele>259.00000</ele>
        <time>2010-01-01T06:47:50Z</time>
      </trkpt>
      <trkpt lat="43.90855000" lon="10.29163000">
        <ele>259.00000</ele>
        <time>2010-01-01T06:47:57Z</time>
      </trkpt>
      <trkpt lat="43.90850000" lon="10.29190000">
        <ele>257.00000</ele>
        <time>2010-01-01T06:48:05Z</time>
      </trkpt>
      <trkpt lat="43.90852530" lon="10.29236010">
        <ele>256.00000</ele>
        <time>2010-01-01T06:48:18Z</time>
      </trkpt>
      <trkpt lat="43.90862000" lon="10.29272000">
        <ele>255.00000</ele>
        <time>2010-01-01T06:48:29Z</time>
      </trkpt>
      <trkpt lat="43.90873000" lon="10.29297000">
        <ele>253.00000</ele>
        <time>2010-01-01T06:48:38Z</time>
      </trkpt>
      <trkpt lat="43.90884000" lon="10.29322000">
        <ele>252.00000</ele>
        <time>2010-01-01T06:48:46Z</time>
      </trkpt>
      <trkpt lat="43.90886000" lon="10.29333000">
        <ele>252.00000</ele>
        <time>2010-01-01T06:48:50Z</time>
      </trkpt>
      <trkpt lat="43.90888090" lon="10.29362080">
        <ele>251.00000</ele>
        <time>2010-01-01T06:48:58Z</time>
      </trkpt>
      <trkpt lat="43.90887000" lon="10.29391000">
        <ele>250.00000</ele>
        <time>2010-01-01T06:49:06Z</time>
      </trkpt>
      <trkpt lat="43.90888000" lon="10.29427000">
        <ele>251.00000</ele>
        <time>2010-01-01T06:49:17Z</time>
      </trkpt>
      <trkpt lat="43.90890000" lon="10.29460000">
        <ele>250.00000</ele>
        <time>2010-01-01T06:49:26Z</time>
      </trkpt>
      <trkpt lat="43.90894000" lon="10.29484000">
        <ele>249.00000</ele>
        <time>2010-01-01T06:49:33Z</time>
      </trkpt>
      <trkpt lat="43.90892000" lon="10.29499000">
        <ele>247.00000</ele>
        <time>2010-01-01T06:49:38Z</time>
      </trkpt>
      <trkpt lat="43.90885000" lon="10.29515000">
        <ele>246.00000</ele>
        <time>2010-01-01T06:49:43Z</time>
      </trkpt>
      <trkpt lat="43.90884000" lon="10.29534000">
        <ele>245.00000</ele>
        <time>2010-01-01T06:49:49Z</time>
      </trkpt>
      <trkpt lat="43.90891000" lon="10.29556000">
        <ele>245.00000</ele>
        <time>2010-01-01T06:49:56Z</time>
      </trkpt>
      <trkpt lat="43.90924000" lon="10.29597000">
        <ele>247.00000</ele>
        <time>2010-01-01T06:50:13Z</time>
      </trkpt>
      <trkpt lat="43.90949000" lon="10.29637000">
        <ele>247.00000</ele>
        <time>2010-01-01T06:50:29Z</time>
      </trkpt>
      <trkpt lat="43.90954000" lon="10.29651000">
        <ele>247.00000</ele>
        <time>2010-01-01T06:50:33Z</time>
      </trkpt>
      <trkpt lat="43.90955000" lon="10.29663000">
        <ele>246.00000</ele>
        <time>2010-01-01T06:50:37Z</time>
      </trkpt>
      <trkpt lat="43.90947000" lon="10.29694000">
        <ele>241.00000</ele>
        <time>2010-01-01T06:50:46Z</time>
      </trkpt>
      <trkpt lat="43.90948000" lon="10.29711000">
        <ele>239.00000</ele>
        <time>2010-01-01T06:50:51Z</time>
      </trkpt>
      <trkpt lat="43.90953000" lon="10.29722000">
        <ele>239.00000</ele>
        <time>2010-01-01T06:50:55Z</time>
      </trkpt>
      <trkpt lat="43.90979000" lon="10.29742000">
        <ele>240.00000</ele>
        <time>2010-01-01T06:51:07Z</time>
      </trkpt>
      <trkpt lat="43.90997000" lon="10.29740000">
        <ele>244.00000</ele>
        <time>2010-01-01T06:51:14Z</time>
      </trkpt>
      <trkpt lat="43.91016000" lon="10.29733000">
        <ele>249.00000</ele>
        <time>2010-01-01T06:51:22Z</time>
      </trkpt>
      <trkpt lat="43.91027000" lon="10.29736000">
        <ele>250.00000</ele>
        <time>2010-01-01T06:51:26Z</time>
      </trkpt>
      <trkpt lat="43.91048000" lon="10.29767000">
        <ele>249.00000</ele>
        <time>2010-01-01T06:51:39Z</time>
      </trkpt>
      <trkpt lat="43.91052000" lon="10.29780000">
        <ele>248.00000</ele>
        <time>2010-01-01T06:51:43Z</time>
      </trkpt>
      <trkpt lat="43.91052000" lon="10.29795000">
        <ele>246.00000</ele>
        <time>2010-01-01T06:51:47Z</time>
      </trkpt>
      <trkpt lat="43.91060000" lon="10.29854000">
        <ele>242.00000</ele>
        <time>2010-01-01T06:52:04Z</time>
      </trkpt>
      <trkpt lat="43.91068000" lon="10.29863000">
        <ele>242.00000</ele>
        <time>2010-01-01T06:52:08Z</time>
      </trkpt>
      <trkpt lat="43.91094000" lon="10.29871000">
        <ele>247.00000</ele>
        <time>2010-01-01T06:52:19Z</time>
      </trkpt>
      <trkpt lat="43.91101000" lon="10.29883000">
        <ele>247.00000</ele>
        <time>2010-01-01T06:52:24Z</time>
      </trkpt>
      <trkpt lat="43.91104000" lon="10.29902000">
        <ele>245.00000</ele>
        <time>2010-01-01T06:52:29Z</time>
      </trkpt>
      <trkpt lat="43.91092000" lon="10.29937000">
        <ele>241.00000</ele>
        <time>2010-01-01T06:52:40Z</time>
      </trkpt>
      <trkpt lat="43.91053000" lon="10.30007000">
        <ele>233.00000</ele>
        <time>2010-01-01T06:53:06Z</time>
      </trkpt>
      <trkpt lat="43.91053000" lon="10.30029000">
        <ele>234.00000</ele>
        <time>2010-01-01T06:53:12Z</time>
      </trkpt>
      <trkpt lat="43.91067000" lon="10.30057000">
        <ele>239.00000</ele>
        <time>2010-01-01T06:53:22Z</time>
      </trkpt>
      <trkpt lat="43.91068000" lon="10.30070000">
        <ele>239.00000</ele>
        <time>2010-01-01T06:53:26Z</time>
      </trkpt>
      <trkpt lat="43.91063000" lon="10.30076000">
        <ele>238.00000</ele>
        <time>2010-01-01T06:53:28Z</time>
      </trkpt>
      <trkpt lat="43.91035000" lon="10.30082000">
        <ele>233.00000</ele>
        <time>2010-01-01T06:53:40Z</time>
      </trkpt>
      <trkpt lat="43.91019000" lon="10.30090000">
        <ele>231.00000</ele>
        <time>2010-01-01T06:53:47Z</time>
      </trkpt>
      <trkpt lat="43.91005000" lon="10.30101000">
        <ele>230.00000</ele>
        <time>2010-01-01T06:53:53Z</time>
      </trkpt>
      <trkpt lat="43.90999000" lon="10.30111000">
        <ele>230.00000</ele>
        <time>2010-01-01T06:53:57Z</time>
      </trkpt>
      <trkpt lat="43.90997000" lon="10.30130000">
        <ele>231.00000</ele>
        <time>2010-01-01T06:54:02Z</time>
      </trkpt>
      <trkpt lat="43.90998000" lon="10.30147000">
        <ele>232.00000</ele>
        <time>2010-01-01T06:54:07Z</time>
      </trkpt>
      <trkpt lat="43.91008000" lon="10.30207000">
        <ele>233.00000</ele>
        <time>2010-01-01T06:54:25Z</time>
      </trkpt>
      <trkpt lat="43.91014000" lon="10.30282000">
        <ele>234.00000</ele>
        <time>2010-01-01T06:54:47Z</time>
      </trkpt>
      <trkpt lat="43.91014000" lon="10.30295000">
        <ele>234.00000</ele>
        <time>2010-01-01T06:54:51Z</time>
      </trkpt>
      <trkpt lat="43.90986000" lon="10.30320000">
        <ele>232.00000</ele>
        <time>2010-01-01T06:55:04Z</time>
      </trkpt>
      <trkpt lat="43.90974000" lon="10.30322000">
        <ele>230.00000</ele>
        <time>2010-01-01T06:55:09Z</time>
      </trkpt>
      <trkpt lat="43.90956000" lon="10.30322000">
        <ele>226.00000</ele>
        <time>2010-01-01T06:55:16Z</time>
      </trkpt>
      <trkpt lat="43.90943000" lon="10.30326000">
        <ele>223.00000</ele>
        <time>2010-01-01T06:55:21Z</time>
      </trkpt>
      <trkpt lat="43.90935000" lon="10.30334000">
        <ele>223.00000</ele>
        <time>2010-01-01T06:55:25Z</time>
      </trkpt>
      <trkpt lat="43.90930000" lon="10.30369000">
        <ele>223.00000</ele>
        <time>2010-01-01T06:55:35Z</time>
      </trkpt>
      <trkpt lat="43.90940000" lon="10.30397000">
        <ele>224.00000</ele>
        <time>2010-01-01T06:55:44Z</time>
      </trkpt>
      <trkpt lat="43.90956000" lon="10.30414000">
        <ele>226.00000</ele>
        <time>2010-01-01T06:55:53Z</time>
      </trkpt>
      <trkpt lat="43.90978520" lon="10.30453200">
        <ele>229.00000</ele>
        <time>2010-01-01T06:56:07Z</time>
      </trkpt>
      <trkpt lat="43.90961000" lon="10.30439000">
        <ele>225.00000</ele>
        <time>2010-01-01T06:56:15Z</time>
      </trkpt>
      <trkpt lat="43.90948000" lon="10.30417000">
        <ele>224.00000</ele>
        <time>2010-01-01T06:56:23Z</time>
      </trkpt>
      <trkpt lat="43.90934080" lon="10.30410280">
        <ele>220.00000</ele>
        <time>2010-01-01T06:56:29Z</time>
      </trkpt>
      <trkpt lat="43.90912000" lon="10.30445000">
        <ele>210.00000</ele>
        <time>2010-01-01T06:56:43Z</time>
      </trkpt>
      <trkpt lat="43.90879000" lon="10.30469000">
        <ele>206.00000</ele>
        <time>2010-01-01T06:56:57Z</time>
      </trkpt>
      <trkpt lat="43.90866000" lon="10.30472000">
        <ele>204.00000</ele>
        <time>2010-01-01T06:57:03Z</time>
      </trkpt>
      <trkpt lat="43.90853000" lon="10.30464000">
        <ele>202.00000</ele>
        <time>2010-01-01T06:57:08Z</time>
      </trkpt>
      <trkpt lat="43.90819000" lon="10.30404000">
        <ele>194.00000</ele>
        <time>2010-01-01T06:57:30Z</time>
      </trkpt>
      <trkpt lat="43.90763000" lon="10.30342000">
        <ele>182.00000</ele>
        <time>2010-01-01T06:57:59Z</time>
      </trkpt>
      <trkpt lat="43.90727000" lon="10.30314000">
        <ele>175.00000</ele>
        <time>2010-01-01T06:58:16Z</time>
      </trkpt>
      <trkpt lat="43.90679000" lon="10.30309000">
        <ele>166.00000</ele>
        <time>2010-01-01T06:58:35Z</time>
      </trkpt>
      <trkpt lat="43.90619000" lon="10.30323000">
        <ele>158.00000</ele>
        <time>2010-01-01T06:58:59Z</time>
      </trkpt>
      <trkpt lat="43.90594000" lon="10.30336000">
        <ele>154.00000</ele>
        <time>2010-01-01T06:59:10Z</time>
      </trkpt>
      <trkpt lat="43.90594000" lon="10.30352000">
        <ele>153.00000</ele>
        <time>2010-01-01T06:59:15Z</time>
      </trkpt>
      <trkpt lat="43.90604000" lon="10.30367000">
        <ele>154.00000</ele>
        <time>2010-01-01T06:59:20Z</time>
      </trkpt>
      <trkpt lat="43.90622000" lon="10.30391000">
        <ele>156.00000</ele>
        <time>2010-01-01T06:59:30Z</time>
      </trkpt>
      <trkpt lat="43.90622000" lon="10.30428000">
        <ele>150.00000</ele>
        <time>2010-01-01T06:59:41Z</time>
      </trkpt>
      <trkpt lat="43.90632000" lon="10.30470000">
        <ele>149.00000</ele>
        <time>2010-01-01T06:59:54Z</time>
      </trkpt>
      <trkpt lat="43.90632000" lon="10.30484000">
        <ele>149.00000</ele>
        <time>2010-01-01T06:59:58Z</time>
      </trkpt>
      <trkpt lat="43.90625000" lon="10.30495000">
        <ele>150.00000</ele>
        <time>2010-01-01T07:00:02Z</time>
      </trkpt>
      <trkpt lat="43.90580000" lon="10.30465000">
        <ele>145.00000</ele>
        <time>2010-01-01T07:00:22Z</time>
      </trkpt>
      <trkpt lat="43.90555000" lon="10.30441000">
        <ele>142.00000</ele>
        <time>2010-01-01T07:00:34Z</time>
      </trkpt>
      <trkpt lat="43.90544000" lon="10.30443000">
        <ele>141.00000</ele>
        <time>2010-01-01T07:00:39Z</time>
      </trkpt>
      <trkpt lat="43.90532000" lon="10.30436000">
        <ele>139.00000</ele>
        <time>2010-01-01T07:00:44Z</time>
      </trkpt>
      <trkpt lat="43.90498000" lon="10.30434000">
        <ele>133.00000</ele>
        <time>2010-01-01T07:00:58Z</time>
      </trkpt>
      <trkpt lat="43.90487000" lon="10.30436000">
        <ele>131.00000</ele>
        <time>2010-01-01T07:01:02Z</time>
      </trkpt>
      <trkpt lat="43.90483000" lon="10.30432000">
        <ele>131.00000</ele>
        <time>2010-01-01T07:01:04Z</time>
      </trkpt>
      <trkpt lat="43.90468000" lon="10.30437000">
        <ele>128.00000</ele>
        <time>2010-01-01T07:01:10Z</time>
      </trkpt>
      <trkpt lat="43.90451000" lon="10.30469000">
        <ele>124.00000</ele>
        <time>2010-01-01T07:01:22Z</time>
      </trkpt>
      <trkpt lat="43.90438000" lon="10.30548000">
        <ele>124.00000</ele>
        <time>2010-01-01T07:01:45Z</time>
      </trkpt>
      <trkpt lat="43.90427000" lon="10.30569000">
        <ele>123.00000</ele>
        <time>2010-01-01T07:01:53Z</time>
      </trkpt>
      <trkpt lat="43.90408000" lon="10.30590000">
        <ele>119.00000</ele>
        <time>2010-01-01T07:02:02Z</time>
      </trkpt>
      <trkpt lat="43.90386000" lon="10.30637000">
        <ele>120.00000</ele>
        <time>2010-01-01T07:02:18Z</time>
      </trkpt>
      <trkpt lat="43.90377140" lon="10.30642560">
        <ele>119.00000</ele>
        <time>2010-01-01T07:02:22Z</time>
      </trkpt>
      <trkpt lat="43.90351000" lon="10.30640000">
        <ele>115.00000</ele>
        <time>2010-01-01T07:02:33Z</time>
      </trkpt>
      <trkpt lat="43.90321000" lon="10.30678000">
        <ele>115.00000</ele>
        <time>2010-01-01T07:02:49Z</time>
      </trkpt>
      <trkpt lat="43.90287000" lon="10.30684000">
        <ele>113.00000</ele>
        <time>2010-01-01T07:03:03Z</time>
      </trkpt>
      <trkpt lat="43.90242000" lon="10.30684000">
        <ele>111.00000</ele>
        <time>2010-01-01T07:03:21Z</time>
      </trkpt>
      <trkpt lat="43.90213000" lon="10.30665000">
        <ele>107.00000</ele>
        <time>2010-01-01T07:03:34Z</time>
      </trkpt>
      <trkpt lat="43.90194000" lon="10.30651000">
        <ele>103.00000</ele>
        <time>2010-01-01T07:03:42Z</time>
      </trkpt>
      <trkpt lat="43.90181000" lon="10.30630000">
        <ele>102.00000</ele>
        <time>2010-01-01T07:03:50Z</time>
      </trkpt>
      <trkpt lat="43.90172000" lon="10.30567000">
        <ele>98.000000</ele>
        <time>2010-01-01T07:04:09Z</time>
      </trkpt>
      <trkpt lat="43.90171000" lon="10.30502000">
        <ele>92.000000</ele>
        <time>2010-01-01T07:04:27Z</time>
      </trkpt>
      <trkpt lat="43.90142910" lon="10.30453200">
        <ele>90.000000</ele>
        <time>2010-01-01T07:04:46Z</time>
      </trkpt>
      <trkpt lat="43.90075270" lon="10.30404920">
        <ele>88.000000</ele>
        <time>2010-01-01T07:05:16Z</time>
      </trkpt>
      <trkpt lat="43.90052000" lon="10.30425000">
        <ele>87.000000</ele>
        <time>2010-01-01T07:05:27Z</time>
      </trkpt>
      <trkpt lat="43.90045000" lon="10.30440000">
        <ele>86.000000</ele>
        <time>2010-01-01T07:05:32Z</time>
      </trkpt>
      <trkpt lat="43.90049000" lon="10.30482000">
        <ele>85.000000</ele>
        <time>2010-01-01T07:05:44Z</time>
      </trkpt>
      <trkpt lat="43.90042030" lon="10.30497190">
        <ele>84.000000</ele>
        <time>2010-01-01T07:05:49Z</time>
      </trkpt>
      <trkpt lat="43.90028890" lon="10.30495580">
        <ele>82.000000</ele>
        <time>2010-01-01T07:05:55Z</time>
      </trkpt>
      <trkpt lat="43.89999000" lon="10.30421000">
        <ele>78.000000</ele>
        <time>2010-01-01T07:06:19Z</time>
      </trkpt>
      <trkpt lat="43.89942000" lon="10.30465000">
        <ele>67.000000</ele>
        <time>2010-01-01T07:06:45Z</time>
      </trkpt>
      <trkpt lat="43.89890000" lon="10.30531000">
        <ele>55.000000</ele>
        <time>2010-01-01T07:07:14Z</time>
      </trkpt>
      <trkpt lat="43.89862000" lon="10.30557000">
        <ele>49.000000</ele>
        <time>2010-01-01T07:07:27Z</time>
      </trkpt>
      <trkpt lat="43.89858000" lon="10.30571000">
        <ele>47.000000</ele>
        <time>2010-01-01T07:07:32Z</time>
      </trkpt>
      <trkpt lat="43.89872000" lon="10.30582000">
        <ele>50.000000</ele>
        <time>2010-01-01T07:07:38Z</time>
      </trkpt>
      <trkpt lat="43.89875000" lon="10.30604000">
        <ele>49.000000</ele>
        <time>2010-01-01T07:07:44Z</time>
      </trkpt>
      <trkpt lat="43.89871000" lon="10.30622000">
        <ele>47.000000</ele>
        <time>2010-01-01T07:07:50Z</time>
      </trkpt>
      <trkpt lat="43.89845000" lon="10.30683000">
        <ele>39.000000</ele>
        <time>2010-01-01T07:08:10Z</time>
      </trkpt>
      <trkpt lat="43.89829430" lon="10.30747170">
        <ele>32.000000</ele>
        <time>2010-01-01T07:08:30Z</time>
      </trkpt>
      <trkpt lat="43.89851000" lon="10.30860000">
        <ele>30.000000</ele>
        <time>2010-01-01T07:09:04Z</time>
      </trkpt>
      <trkpt lat="43.89851000" lon="10.30941000">
        <ele>21.000000</ele>
        <time>2010-01-01T07:09:27Z</time>
      </trkpt>
      <trkpt lat="43.89855000" lon="10.30958000">
        <ele>20.000000</ele>
        <time>2010-01-01T07:09:32Z</time>
      </trkpt>
      <trkpt lat="43.89848000" lon="10.30969000">
        <ele>17.000000</ele>
        <time>2010-01-01T07:09:36Z</time>
      </trkpt>
      <trkpt lat="43.89823250" lon="10.30963890">
        <ele>12.000000</ele>
        <time>2010-01-01T07:09:46Z</time>
      </trkpt>
      <trkpt lat="43.89763000" lon="10.31006000">
        <ele>6.0000000</ele>
        <time>2010-01-01T07:10:13Z</time>
      </trkpt>
      <trkpt lat="43.89737000" lon="10.31033000">
        <ele>3.0000000</ele>
        <time>2010-01-01T07:10:26Z</time>
      </trkpt>
      <trkpt lat="43.89738000" lon="10.31087000">
        <ele>6.0000000</ele>
        <time>2010-01-01T07:10:42Z</time>
      </trkpt>
      <trkpt lat="43.89729000" lon="10.31121000">
        <ele>7.0000000</ele>
        <time>2010-01-01T07:10:52Z</time>
      </trkpt>
      <trkpt lat="43.89708000" lon="10.31188000">
        <ele>6.0000000</ele>
        <time>2010-01-01T07:11:13Z</time>
      </trkpt>
      <trkpt lat="43.89707000" lon="10.31232000">
        <ele>7.0000000</ele>
        <time>2010-01-01T07:11:26Z</time>
      </trkpt>
      <trkpt lat="43.89685000" lon="10.31308000">
        <ele>5.0000000</ele>
        <time>2010-01-01T07:11:50Z</time>
      </trkpt>
      <trkpt lat="43.89685000" lon="10.31348000">
        <ele>7.0000000</ele>
        <time>2010-01-01T07:12:01Z</time>
      </trkpt>
      <trkpt lat="43.89678000" lon="10.31400000">
        <ele>6.0000000</ele>
        <time>2010-01-01T07:12:17Z</time>
      </trkpt>
      <trkpt lat="43.89639000" lon="10.31464000">
        <ele>6.0000000</ele>
        <time>2010-01-01T07:12:41Z</time>
      </trkpt>
      <trkpt lat="43.89603000" lon="10.31533000">
        <ele>7.0000000</ele>
        <time>2010-01-01T07:13:05Z</time>
      </trkpt>
      <trkpt lat="43.89542000" lon="10.31604000">
        <ele>7.0000000</ele>
        <time>2010-01-01T07:13:37Z</time>
      </trkpt>
      <trkpt lat="43.89490040" lon="10.31645170">
        <ele>6.0000000</ele>
        <time>2010-01-01T07:14:01Z</time>
      </trkpt>
      <trkpt lat="43.89448000" lon="10.31650000">
        <ele>6.0000000</ele>
        <time>2010-01-01T07:14:18Z</time>
      </trkpt>
      <trkpt lat="43.89354740" lon="10.31499260">
        <ele>4.0000000</ele>
        <time>2010-01-01T07:15:15Z</time>
      </trkpt>
      <trkpt lat="43.89253000" lon="10.31329000">
        <ele>5.0000000</ele>
        <time>2010-01-01T07:16:19Z</time>
      </trkpt>
      <trkpt lat="43.89226000" lon="10.31254000">
        <ele>7.0000000</ele>
        <time>2010-01-01T07:16:43Z</time>
      </trkpt>
      <trkpt lat="43.89219000" lon="10.31220000">
        <ele>6.0000000</ele>
        <time>2010-01-01T07:16:53Z</time>
      </trkpt>
      <trkpt lat="43.89191600" lon="10.31297020">
        <ele>8.0000000</ele>
        <time>2010-01-01T07:17:18Z</time>
      </trkpt>
      <trkpt lat="43.89171000" lon="10.31344000">
        <ele>5.0000000</ele>
        <time>2010-01-01T07:17:34Z</time>
      </trkpt>
      <trkpt lat="43.89166000" lon="10.31378000">
        <ele>5.0000000</ele>
        <time>2010-01-01T07:17:44Z</time>
      </trkpt>
      <trkpt lat="43.89168000" lon="10.31480000">
        <ele>8.0000000</ele>
        <time>2010-01-01T07:18:14Z</time>
      </trkpt>
      <trkpt lat="43.89183000" lon="10.31712000">
        <ele>6.0000000</ele>
        <time>2010-01-01T07:19:21Z</time>
      </trkpt>
      <trkpt lat="43.89191600" lon="10.31762120">
        <ele>7.0000000</ele>
        <time>2010-01-01T07:19:36Z</time>
      </trkpt>
      <trkpt lat="43.89264000" lon="10.31896000">
        <ele>9.0000000</ele>
        <time>2010-01-01T07:20:24Z</time>
      </trkpt>
      <trkpt lat="43.89281000" lon="10.31952000">
        <ele>8.0000000</ele>
        <time>2010-01-01T07:20:41Z</time>
      </trkpt>
      <trkpt lat="43.89300000" lon="10.32069000">
        <ele>12.000000</ele>
        <time>2010-01-01T07:21:16Z</time>
      </trkpt>
      <trkpt lat="43.89341000" lon="10.32185000">
        <ele>13.000000</ele>
        <time>2010-01-01T07:21:53Z</time>
      </trkpt>
      <trkpt lat="43.89355000" lon="10.32249000">
        <ele>14.000000</ele>
        <time>2010-01-01T07:22:13Z</time>
      </trkpt>
      <trkpt lat="43.89410000" lon="10.32378000">
        <ele>19.000000</ele>
        <time>2010-01-01T07:22:56Z</time>
      </trkpt>
      <trkpt lat="43.89419000" lon="10.32421000">
        <ele>21.000000</ele>
        <time>2010-01-01T07:23:09Z</time>
      </trkpt>
      <trkpt lat="43.89447000" lon="10.32586000">
        <ele>29.000000</ele>
        <time>2010-01-01T07:23:58Z</time>
      </trkpt>
      <trkpt lat="43.89447000" lon="10.32619000">
        <ele>30.000000</ele>
        <time>2010-01-01T07:24:07Z</time>
      </trkpt>
      <trkpt lat="43.89392000" lon="10.32738000">
        <ele>37.000000</ele>
        <time>2010-01-01T07:24:48Z</time>
      </trkpt>
      <trkpt lat="43.89366000" lon="10.32780000">
        <ele>42.000000</ele>
        <time>2010-01-01T07:25:04Z</time>
      </trkpt>
      <trkpt lat="43.89341980" lon="10.32798520">
        <ele>47.000000</ele>
        <time>2010-01-01T07:25:15Z</time>
      </trkpt>
      <trkpt lat="43.89329000" lon="10.32793000">
        <ele>47.000000</ele>
        <time>2010-01-01T07:25:20Z</time>
      </trkpt>
      <trkpt lat="43.89295000" lon="10.32737000">
        <ele>42.000000</ele>
        <time>2010-01-01T07:25:41Z</time>
      </trkpt>
      <trkpt lat="43.89270000" lon="10.32735000">
        <ele>46.000000</ele>
        <time>2010-01-01T07:25:52Z</time>
      </trkpt>
      <trkpt lat="43.89236000" lon="10.32753000">
        <ele>56.000000</ele>
        <time>2010-01-01T07:26:06Z</time>
      </trkpt>
      <trkpt lat="43.89227000" lon="10.32749000">
        <ele>57.000000</ele>
        <time>2010-01-01T07:26:10Z</time>
      </trkpt>
      <trkpt lat="43.89208000" lon="10.32709000">
        <ele>53.000000</ele>
        <time>2010-01-01T07:26:24Z</time>
      </trkpt>
      <trkpt lat="43.89176000" lon="10.32692000">
        <ele>56.000000</ele>
        <time>2010-01-01T07:26:37Z</time>
      </trkpt>
      <trkpt lat="43.89154000" lon="10.32696000">
        <ele>62.000000</ele>
        <time>2010-01-01T07:26:46Z</time>
      </trkpt>
      <trkpt lat="43.89130000" lon="10.32711000">
        <ele>68.000000</ele>
        <time>2010-01-01T07:26:57Z</time>
      </trkpt>
      <trkpt lat="43.89108000" lon="10.32704000">
        <ele>73.000000</ele>
        <time>2010-01-01T07:27:06Z</time>
      </trkpt>
      <trkpt lat="43.89107000" lon="10.32704000">
        <ele>73.000000</ele>
        <time>2010-01-01T07:27:06Z</time>
      </trkpt>
      <trkpt lat="43.89106000" lon="10.32703000">
        <ele>74.000000</ele>
        <time>2010-01-01T07:27:07Z</time>
      </trkpt>
      <trkpt lat="43.89102000" lon="10.32693000">
        <ele>76.000000</ele>
        <time>2010-01-01T07:27:10Z</time>
      </trkpt>
      <trkpt lat="43.89108000" lon="10.32647000">
        <ele>80.000000</ele>
        <time>2010-01-01T07:27:24Z</time>
      </trkpt>
      <trkpt lat="43.89109000" lon="10.32615000">
        <ele>86.000000</ele>
        <time>2010-01-01T07:27:33Z</time>
      </trkpt>
      <trkpt lat="43.89132070" lon="10.32512060">
        <ele>83.000000</ele>
        <time>2010-01-01T07:28:04Z</time>
      </trkpt>
      <trkpt lat="43.89105000" lon="10.32402000">
        <ele>98.000000</ele>
        <time>2010-01-01T07:28:37Z</time>
      </trkpt>
      <trkpt lat="43.89105000" lon="10.32357000">
        <ele>93.000000</ele>
        <time>2010-01-01T07:28:50Z</time>
      </trkpt>
      <trkpt lat="43.89097000" lon="10.32332000">
        <ele>91.000000</ele>
        <time>2010-01-01T07:28:58Z</time>
      </trkpt>
      <trkpt lat="43.89088000" lon="10.32324000">
        <ele>91.000000</ele>
        <time>2010-01-01T07:29:03Z</time>
      </trkpt>
      <trkpt lat="43.89048000" lon="10.32324000">
        <ele>100.00000</ele>
        <time>2010-01-01T07:29:19Z</time>
      </trkpt>
      <trkpt lat="43.89027000" lon="10.32312000">
        <ele>103.00000</ele>
        <time>2010-01-01T07:29:28Z</time>
      </trkpt>
      <trkpt lat="43.89015000" lon="10.32283000">
        <ele>103.00000</ele>
        <time>2010-01-01T07:29:37Z</time>
      </trkpt>
      <trkpt lat="43.89011000" lon="10.32240000">
        <ele>101.00000</ele>
        <time>2010-01-01T07:29:50Z</time>
      </trkpt>
      <trkpt lat="43.89020000" lon="10.32219000">
        <ele>99.000000</ele>
        <time>2010-01-01T07:29:57Z</time>
      </trkpt>
      <trkpt lat="43.89016000" lon="10.32208000">
        <ele>101.00000</ele>
        <time>2010-01-01T07:30:00Z</time>
      </trkpt>
      <trkpt lat="43.89005000" lon="10.32218000">
        <ele>104.00000</ele>
        <time>2010-01-01T07:30:06Z</time>
      </trkpt>
      <trkpt lat="43.88999000" lon="10.32249000">
        <ele>106.00000</ele>
        <time>2010-01-01T07:30:15Z</time>
      </trkpt>
      <trkpt lat="43.88999000" lon="10.32275000">
        <ele>109.00000</ele>
        <time>2010-01-01T07:30:22Z</time>
      </trkpt>
      <trkpt lat="43.89007000" lon="10.32309000">
        <ele>110.00000</ele>
        <time>2010-01-01T07:30:33Z</time>
      </trkpt>
      <trkpt lat="43.89023000" lon="10.32338000">
        <ele>111.00000</ele>
        <time>2010-01-01T07:30:43Z</time>
      </trkpt>
      <trkpt lat="43.89041000" lon="10.32354000">
        <ele>111.00000</ele>
        <time>2010-01-01T07:30:52Z</time>
      </trkpt>
      <trkpt lat="43.89058000" lon="10.32358000">
        <ele>109.00000</ele>
        <time>2010-01-01T07:30:59Z</time>
      </trkpt>
      <trkpt lat="43.89070000" lon="10.32386000">
        <ele>112.00000</ele>
        <time>2010-01-01T07:31:08Z</time>
      </trkpt>
      <trkpt lat="43.89069000" lon="10.32410000">
        <ele>115.00000</ele>
        <time>2010-01-01T07:31:15Z</time>
      </trkpt>
      <trkpt lat="43.89035000" lon="10.32521000">
        <ele>124.00000</ele>
        <time>2010-01-01T07:31:50Z</time>
      </trkpt>
      <trkpt lat="43.89027000" lon="10.32583000">
        <ele>125.00000</ele>
        <time>2010-01-01T07:32:08Z</time>
      </trkpt>
      <trkpt lat="43.89021000" lon="10.32598000">
        <ele>125.00000</ele>
        <time>2010-01-01T07:32:13Z</time>
      </trkpt>
      <trkpt lat="43.88991000" lon="10.32634000">
        <ele>129.00000</ele>
        <time>2010-01-01T07:32:29Z</time>
      </trkpt>
      <trkpt lat="43.88957000" lon="10.32691000">
        <ele>131.00000</ele>
        <time>2010-01-01T07:32:50Z</time>
      </trkpt>
      <trkpt lat="43.88939000" lon="10.32747000">
        <ele>135.00000</ele>
        <time>2010-01-01T07:33:08Z</time>
      </trkpt>
      <trkpt lat="43.88939540" lon="10.32783500">
        <ele>136.00000</ele>
        <time>2010-01-01T07:33:18Z</time>
      </trkpt>
      <trkpt lat="43.88930000" lon="10.32810000">
        <ele>141.00000</ele>
        <time>2010-01-01T07:33:27Z</time>
      </trkpt>
      <trkpt lat="43.88938000" lon="10.32875000">
        <ele>147.00000</ele>
        <time>2010-01-01T07:33:46Z</time>
      </trkpt>
      <trkpt lat="43.88953000" lon="10.32895000">
        <ele>148.00000</ele>
        <time>2010-01-01T07:33:54Z</time>
      </trkpt>
      <trkpt lat="43.88986000" lon="10.32908000">
        <ele>147.00000</ele>
        <time>2010-01-01T07:34:08Z</time>
      </trkpt>
      <trkpt lat="43.89024000" lon="10.32929000">
        <ele>146.00000</ele>
        <time>2010-01-01T07:34:24Z</time>
      </trkpt>
      <trkpt lat="43.89055000" lon="10.32958000">
        <ele>146.00000</ele>
        <time>2010-01-01T07:34:39Z</time>
      </trkpt>
      <trkpt lat="43.89117000" lon="10.33034000">
        <ele>151.00000</ele>
        <time>2010-01-01T07:35:13Z</time>
      </trkpt>
      <trkpt lat="43.89128000" lon="10.33054000">
        <ele>151.00000</ele>
        <time>2010-01-01T07:35:20Z</time>
      </trkpt>
      <trkpt lat="43.89131000" lon="10.33076000">
        <ele>156.00000</ele>
        <time>2010-01-01T07:35:26Z</time>
      </trkpt>
      <trkpt lat="43.89130000" lon="10.33097000">
        <ele>162.00000</ele>
        <time>2010-01-01T07:35:32Z</time>
      </trkpt>
      <trkpt lat="43.89135000" lon="10.33118000">
        <ele>165.00000</ele>
        <time>2010-01-01T07:35:39Z</time>
      </trkpt>
      <trkpt lat="43.89195000" lon="10.33198000">
        <ele>164.00000</ele>
        <time>2010-01-01T07:36:12Z</time>
      </trkpt>
      <trkpt lat="43.89207000" lon="10.33250000">
        <ele>174.00000</ele>
        <time>2010-01-01T07:36:28Z</time>
      </trkpt>
      <trkpt lat="43.89227170" lon="10.33303850">
        <ele>180.00000</ele>
        <time>2010-01-01T07:36:45Z</time>
      </trkpt>
      <trkpt lat="43.89224850" lon="10.33378950">
        <ele>184.00000</ele>
        <time>2010-01-01T07:37:07Z</time>
      </trkpt>
      <trkpt lat="43.89194000" lon="10.33442000">
        <ele>197.00000</ele>
        <time>2010-01-01T07:37:29Z</time>
      </trkpt>
      <trkpt lat="43.89194000" lon="10.33469000">
        <ele>198.00000</ele>
        <time>2010-01-01T07:37:37Z</time>
      </trkpt>
      <trkpt lat="43.89225000" lon="10.33516000">
        <ele>196.00000</ele>
        <time>2010-01-01T07:37:55Z</time>
      </trkpt>
      <trkpt lat="43.89257000" lon="10.33545000">
        <ele>197.00000</ele>
        <time>2010-01-01T07:38:10Z</time>
      </trkpt>
      <trkpt lat="43.89269000" lon="10.33574000">
        <ele>203.00000</ele>
        <time>2010-01-01T07:38:20Z</time>
      </trkpt>
      <trkpt lat="43.89270000" lon="10.33604000">
        <ele>211.00000</ele>
        <time>2010-01-01T07:38:29Z</time>
      </trkpt>
      <trkpt lat="43.89293000" lon="10.33668000">
        <ele>220.00000</ele>
        <time>2010-01-01T07:38:49Z</time>
      </trkpt>
      <trkpt lat="43.89339000" lon="10.33707000">
        <ele>219.00000</ele>
        <time>2010-01-01T07:39:11Z</time>
      </trkpt>
      <trkpt lat="43.89355000" lon="10.33730000">
        <ele>221.00000</ele>
        <time>2010-01-01T07:39:20Z</time>
      </trkpt>
      <trkpt lat="43.89445000" lon="10.33902000">
        <ele>225.00000</ele>
        <time>2010-01-01T07:40:21Z</time>
      </trkpt>
      <trkpt lat="43.89463000" lon="10.33928000">
        <ele>226.00000</ele>
        <time>2010-01-01T07:40:32Z</time>
      </trkpt>
      <trkpt lat="43.89568000" lon="10.34021000">
        <ele>229.00000</ele>
        <time>2010-01-01T07:41:22Z</time>
      </trkpt>
      <trkpt lat="43.89599000" lon="10.34035000">
        <ele>232.00000</ele>
        <time>2010-01-01T07:41:35Z</time>
      </trkpt>
      <trkpt lat="43.89703000" lon="10.34057000">
        <ele>221.00000</ele>
        <time>2010-01-01T07:42:17Z</time>
      </trkpt>
      <trkpt lat="43.89795420" lon="10.34121390">
        <ele>218.00000</ele>
        <time>2010-01-01T07:42:58Z</time>
      </trkpt>
      <trkpt lat="43.89881000" lon="10.34180000">
        <ele>216.00000</ele>
        <time>2010-01-01T07:43:36Z</time>
      </trkpt>
      <trkpt lat="43.89914000" lon="10.34210000">
        <ele>207.00000</ele>
        <time>2010-01-01T07:43:52Z</time>
      </trkpt>
      <trkpt lat="43.89944000" lon="10.34255000">
        <ele>206.00000</ele>
        <time>2010-01-01T07:44:10Z</time>
      </trkpt>
      <trkpt lat="43.89961000" lon="10.34305000">
        <ele>205.00000</ele>
        <time>2010-01-01T07:44:26Z</time>
      </trkpt>
      <trkpt lat="43.89968000" lon="10.34388000">
        <ele>208.00000</ele>
        <time>2010-01-01T07:44:50Z</time>
      </trkpt>
      <trkpt lat="43.89980000" lon="10.34738000">
        <ele>210.00000</ele>
        <time>2010-01-01T07:46:31Z</time>
      </trkpt>
      <trkpt lat="43.89986760" lon="10.34825200">
        <ele>203.00000</ele>
        <time>2010-01-01T07:46:56Z</time>
      </trkpt>
      <trkpt lat="43.90000290" lon="10.34871330">
        <ele>196.00000</ele>
        <time>2010-01-01T07:47:11Z</time>
      </trkpt>
      <trkpt lat="43.90029000" lon="10.34900000">
        <ele>196.00000</ele>
        <time>2010-01-01T07:47:25Z</time>
      </trkpt>
      <trkpt lat="43.90060000" lon="10.34919000">
        <ele>196.00000</ele>
        <time>2010-01-01T07:47:38Z</time>
      </trkpt>
      <trkpt lat="43.90084550" lon="10.34936780">
        <ele>196.00000</ele>
        <time>2010-01-01T07:47:50Z</time>
      </trkpt>
      <trkpt lat="43.90128000" lon="10.34999000">
        <ele>198.00000</ele>
        <time>2010-01-01T07:48:15Z</time>
      </trkpt>
      <trkpt lat="43.90156000" lon="10.35103000">
        <ele>199.00000</ele>
        <time>2010-01-01T07:48:47Z</time>
      </trkpt>
      <trkpt lat="43.90170000" lon="10.35137000">
        <ele>196.00000</ele>
        <time>2010-01-01T07:48:58Z</time>
      </trkpt>
      <trkpt lat="43.90298680" lon="10.35242550">
        <ele>197.00000</ele>
        <time>2010-01-01T07:49:58Z</time>
      </trkpt>
      <trkpt lat="43.90347000" lon="10.35378000">
        <ele>188.00000</ele>
        <time>2010-01-01T07:50:41Z</time>
      </trkpt>
      <trkpt lat="43.90367000" lon="10.35404000">
        <ele>189.00000</ele>
        <time>2010-01-01T07:50:52Z</time>
      </trkpt>
      <trkpt lat="43.90415000" lon="10.35440000">
        <ele>196.00000</ele>
        <time>2010-01-01T07:51:14Z</time>
      </trkpt>
      <trkpt lat="43.90388000" lon="10.35518000">
        <ele>191.00000</ele>
        <time>2010-01-01T07:51:39Z</time>
      </trkpt>
      <trkpt lat="43.90381000" lon="10.35571000">
        <ele>186.00000</ele>
        <time>2010-01-01T07:51:55Z</time>
      </trkpt>
      <trkpt lat="43.90381000" lon="10.35637000">
        <ele>182.00000</ele>
        <time>2010-01-01T07:52:14Z</time>
      </trkpt>
      <trkpt lat="43.90398000" lon="10.35710000">
        <ele>188.00000</ele>
        <time>2010-01-01T07:52:36Z</time>
      </trkpt>
      <trkpt lat="43.90440000" lon="10.35824000">
        <ele>189.00000</ele>
        <time>2010-01-01T07:53:13Z</time>
      </trkpt>
      <trkpt lat="43.90506000" lon="10.36001000">
        <ele>197.00000</ele>
        <time>2010-01-01T07:54:10Z</time>
      </trkpt>
      <trkpt lat="43.90521000" lon="10.36052000">
        <ele>194.00000</ele>
        <time>2010-01-01T07:54:26Z</time>
      </trkpt>
      <trkpt lat="43.90530000" lon="10.36135000">
        <ele>185.00000</ele>
        <time>2010-01-01T07:54:50Z</time>
      </trkpt>
      <trkpt lat="43.90523000" lon="10.36220000">
        <ele>175.00000</ele>
        <time>2010-01-01T07:55:15Z</time>
      </trkpt>
      <trkpt lat="43.90507000" lon="10.36327000">
        <ele>179.00000</ele>
        <time>2010-01-01T07:55:46Z</time>
      </trkpt>
      <trkpt lat="43.90473000" lon="10.36526000">
        <ele>177.00000</ele>
        <time>2010-01-01T07:56:45Z</time>
      </trkpt>
      <trkpt lat="43.90474000" lon="10.36694000">
        <ele>169.00000</ele>
        <time>2010-01-01T07:57:34Z</time>
      </trkpt>
      <trkpt lat="43.90455000" lon="10.36785000">
        <ele>163.00000</ele>
        <time>2010-01-01T07:58:01Z</time>
      </trkpt>
      <trkpt lat="43.90401000" lon="10.36940000">
        <ele>160.00000</ele>
        <time>2010-01-01T07:58:51Z</time>
      </trkpt>
      <trkpt lat="43.90377000" lon="10.37065000">
        <ele>161.00000</ele>
        <time>2010-01-01T07:59:28Z</time>
      </trkpt>
      <trkpt lat="43.90362000" lon="10.37315000">
        <ele>163.00000</ele>
        <time>2010-01-01T08:00:41Z</time>
      </trkpt>
      <trkpt lat="43.90349000" lon="10.37387000">
        <ele>152.00000</ele>
        <time>2010-01-01T08:01:02Z</time>
      </trkpt>
      <trkpt lat="43.90335000" lon="10.37430000">
        <ele>158.00000</ele>
        <time>2010-01-01T08:01:16Z</time>
      </trkpt>
      <trkpt lat="43.90303000" lon="10.37479000">
        <ele>158.00000</ele>
        <time>2010-01-01T08:01:35Z</time>
      </trkpt>
      <trkpt lat="43.90234000" lon="10.37573000">
        <ele>156.00000</ele>
        <time>2010-01-01T08:02:13Z</time>
      </trkpt>
      <trkpt lat="43.90211000" lon="10.37627000">
        <ele>148.00000</ele>
        <time>2010-01-01T08:02:31Z</time>
      </trkpt>
      <trkpt lat="43.90189000" lon="10.37749000">
        <ele>138.00000</ele>
        <time>2010-01-01T08:03:08Z</time>
      </trkpt>
      <trkpt lat="43.90145000" lon="10.38004000">
        <ele>130.00000</ele>
        <time>2010-01-01T08:04:23Z</time>
      </trkpt>
      <trkpt lat="43.90054000" lon="10.38292000">
        <ele>125.00000</ele>
        <time>2010-01-01T08:05:54Z</time>
      </trkpt>
      <trkpt lat="43.89964000" lon="10.38652000">
        <ele>119.00000</ele>
        <time>2010-01-01T08:07:44Z</time>
      </trkpt>
      <trkpt lat="43.89941000" lon="10.38716000">
        <ele>118.00000</ele>
        <time>2010-01-01T08:08:05Z</time>
      </trkpt>
      <trkpt lat="43.89875430" lon="10.38863000">
        <ele>118.00000</ele>
        <time>2010-01-01T08:08:54Z</time>
      </trkpt>
      <trkpt lat="43.89864000" lon="10.38922000">
        <ele>116.00000</ele>
        <time>2010-01-01T08:09:12Z</time>
      </trkpt>
      <trkpt lat="43.89859000" lon="10.39021000">
        <ele>115.00000</ele>
        <time>2010-01-01T08:09:41Z</time>
      </trkpt>
      <trkpt lat="43.89861130" lon="10.39116200">
        <ele>114.00000</ele>
        <time>2010-01-01T08:10:08Z</time>
      </trkpt>
      <trkpt lat="43.89867000" lon="10.39286000">
        <ele>115.00000</ele>
        <time>2010-01-01T08:10:57Z</time>
      </trkpt>
      <trkpt lat="43.89852000" lon="10.39290000">
        <ele>114.00000</ele>
        <time>2010-01-01T08:11:03Z</time>
      </trkpt>
      <trkpt lat="43.89819000" lon="10.39295000">
        <ele>113.00000</ele>
        <time>2010-01-01T08:11:17Z</time>
      </trkpt>
      <trkpt lat="43.89782000" lon="10.39294000">
        <ele>115.00000</ele>
        <time>2010-01-01T08:11:31Z</time>
      </trkpt>
      <trkpt lat="43.89690000" lon="10.39286000">
        <ele>129.00000</ele>
        <time>2010-01-01T08:12:08Z</time>
      </trkpt>
      <trkpt lat="43.89677000" lon="10.39289000">
        <ele>132.00000</ele>
        <time>2010-01-01T08:12:14Z</time>
      </trkpt>
      <trkpt lat="43.89668000" lon="10.39294000">
        <ele>135.00000</ele>
        <time>2010-01-01T08:12:17Z</time>
      </trkpt>
      <trkpt lat="43.89658000" lon="10.39305000">
        <ele>135.00000</ele>
        <time>2010-01-01T08:12:23Z</time>
      </trkpt>
      <trkpt lat="43.89655000" lon="10.39323000">
        <ele>135.00000</ele>
        <time>2010-01-01T08:12:28Z</time>
      </trkpt>
      <trkpt lat="43.89656000" lon="10.39343000">
        <ele>135.00000</ele>
        <time>2010-01-01T08:12:34Z</time>
      </trkpt>
      <trkpt lat="43.89667000" lon="10.39399000">
        <ele>135.00000</ele>
        <time>2010-01-01T08:12:50Z</time>
      </trkpt>
      <trkpt lat="43.89666000" lon="10.39424000">
        <ele>137.00000</ele>
        <time>2010-01-01T08:12:58Z</time>
      </trkpt>
      <trkpt lat="43.89652000" lon="10.39515000">
        <ele>141.00000</ele>
        <time>2010-01-01T08:13:25Z</time>
      </trkpt>
      <trkpt lat="43.89649000" lon="10.39530000">
        <ele>141.00000</ele>
        <time>2010-01-01T08:13:29Z</time>
      </trkpt>
      <trkpt lat="43.89646000" lon="10.39532000">
        <ele>142.00000</ele>
        <time>2010-01-01T08:13:30Z</time>
      </trkpt>
      <trkpt lat="43.89643000" lon="10.39530000">
        <ele>143.00000</ele>
        <time>2010-01-01T08:13:32Z</time>
      </trkpt>
      <trkpt lat="43.89643000" lon="10.39511000">
        <ele>144.00000</ele>
        <time>2010-01-01T08:13:37Z</time>
      </trkpt>
      <trkpt lat="43.89636000" lon="10.39490000">
        <ele>149.00000</ele>
        <time>2010-01-01T08:13:44Z</time>
      </trkpt>
      <trkpt lat="43.89635000" lon="10.39464000">
        <ele>152.00000</ele>
        <time>2010-01-01T08:13:51Z</time>
      </trkpt>
      <trkpt lat="43.89644000" lon="10.39417000">
        <ele>146.00000</ele>
        <time>2010-01-01T08:14:05Z</time>
      </trkpt>
      <trkpt lat="43.89640000" lon="10.39406000">
        <ele>146.00000</ele>
        <time>2010-01-01T08:14:09Z</time>
      </trkpt>
      <trkpt lat="43.89621000" lon="10.39400000">
        <ele>151.00000</ele>
        <time>2010-01-01T08:14:17Z</time>
      </trkpt>
      <trkpt lat="43.89535000" lon="10.39336000">
        <ele>168.00000</ele>
        <time>2010-01-01T08:14:56Z</time>
      </trkpt>
      <trkpt lat="43.89502000" lon="10.39312000">
        <ele>168.00000</ele>
        <time>2010-01-01T08:15:11Z</time>
      </trkpt>
      <trkpt lat="43.89469000" lon="10.39314000">
        <ele>173.00000</ele>
        <time>2010-01-01T08:15:24Z</time>
      </trkpt>
      <trkpt lat="43.89445000" lon="10.39321000">
        <ele>178.00000</ele>
        <time>2010-01-01T08:15:34Z</time>
      </trkpt>
      <trkpt lat="43.89394000" lon="10.39321000">
        <ele>176.00000</ele>
        <time>2010-01-01T08:15:54Z</time>
      </trkpt>
      <trkpt lat="43.89378000" lon="10.39332000">
        <ele>177.00000</ele>
        <time>2010-01-01T08:16:01Z</time>
      </trkpt>
      <trkpt lat="43.89370000" lon="10.39352000">
        <ele>181.00000</ele>
        <time>2010-01-01T08:16:08Z</time>
      </trkpt>
      <trkpt lat="43.89302000" lon="10.39425000">
        <ele>198.00000</ele>
        <time>2010-01-01T08:16:42Z</time>
      </trkpt>
      <trkpt lat="43.89293000" lon="10.39423000">
        <ele>199.00000</ele>
        <time>2010-01-01T08:16:46Z</time>
      </trkpt>
      <trkpt lat="43.89283000" lon="10.39416000">
        <ele>200.00000</ele>
        <time>2010-01-01T08:16:50Z</time>
      </trkpt>
      <trkpt lat="43.89278000" lon="10.39407000">
        <ele>199.00000</ele>
        <time>2010-01-01T08:16:54Z</time>
      </trkpt>
      <trkpt lat="43.89281000" lon="10.39374000">
        <ele>190.00000</ele>
        <time>2010-01-01T08:17:03Z</time>
      </trkpt>
      <trkpt lat="43.89274000" lon="10.39363000">
        <ele>189.00000</ele>
        <time>2010-01-01T08:17:08Z</time>
      </trkpt>
      <trkpt lat="43.89259250" lon="10.39364570">
        <ele>192.00000</ele>
        <time>2010-01-01T08:17:13Z</time>
      </trkpt>
      <trkpt lat="43.89236450" lon="10.39371550">
        <ele>196.00000</ele>
        <time>2010-01-01T08:17:23Z</time>
      </trkpt>
      <trkpt lat="43.89219000" lon="10.39359000">
        <ele>195.00000</ele>
        <time>2010-01-01T08:17:31Z</time>
      </trkpt>
      <trkpt lat="43.89199000" lon="10.39325000">
        <ele>194.00000</ele>
        <time>2010-01-01T08:17:43Z</time>
      </trkpt>
      <trkpt lat="43.89186000" lon="10.39308000">
        <ele>193.00000</ele>
        <time>2010-01-01T08:17:50Z</time>
      </trkpt>
      <trkpt lat="43.89173000" lon="10.39308000">
        <ele>191.00000</ele>
        <time>2010-01-01T08:17:56Z</time>
      </trkpt>
      <trkpt lat="43.89164000" lon="10.39315000">
        <ele>188.00000</ele>
        <time>2010-01-01T08:18:00Z</time>
      </trkpt>
      <trkpt lat="43.89160000" lon="10.39315000">
        <ele>187.00000</ele>
        <time>2010-01-01T08:18:01Z</time>
      </trkpt>
      <trkpt lat="43.89146000" lon="10.39299000">
        <ele>183.00000</ele>
        <time>2010-01-01T08:18:09Z</time>
      </trkpt>
      <trkpt lat="43.89133000" lon="10.39281000">
        <ele>181.00000</ele>
        <time>2010-01-01T08:18:16Z</time>
      </trkpt>
      <trkpt lat="43.89129000" lon="10.39272000">
        <ele>180.00000</ele>
        <time>2010-01-01T08:18:19Z</time>
      </trkpt>
      <trkpt lat="43.89130000" lon="10.39264000">
        <ele>180.00000</ele>
        <time>2010-01-01T08:18:21Z</time>
      </trkpt>
      <trkpt lat="43.89140000" lon="10.39250000">
        <ele>183.00000</ele>
        <time>2010-01-01T08:18:27Z</time>
      </trkpt>
      <trkpt lat="43.89137000" lon="10.39244000">
        <ele>182.00000</ele>
        <time>2010-01-01T08:18:29Z</time>
      </trkpt>
      <trkpt lat="43.89132000" lon="10.39245000">
        <ele>181.00000</ele>
        <time>2010-01-01T08:18:31Z</time>
      </trkpt>
      <trkpt lat="43.89116000" lon="10.39265000">
        <ele>177.00000</ele>
        <time>2010-01-01T08:18:40Z</time>
      </trkpt>
      <trkpt lat="43.89118000" lon="10.39278000">
        <ele>177.00000</ele>
        <time>2010-01-01T08:18:44Z</time>
      </trkpt>
      <trkpt lat="43.89138000" lon="10.39310000">
        <ele>180.00000</ele>
        <time>2010-01-01T08:18:56Z</time>
      </trkpt>
      <trkpt lat="43.89139000" lon="10.39314000">
        <ele>180.00000</ele>
        <time>2010-01-01T08:18:57Z</time>
      </trkpt>
      <trkpt lat="43.89136000" lon="10.39317000">
        <ele>179.00000</ele>
        <time>2010-01-01T08:18:59Z</time>
      </trkpt>
      <trkpt lat="43.89130000" lon="10.39313000">
        <ele>178.00000</ele>
        <time>2010-01-01T08:19:01Z</time>
      </trkpt>
      <trkpt lat="43.89115000" lon="10.39293000">
        <ele>175.00000</ele>
        <time>2010-01-01T08:19:10Z</time>
      </trkpt>
      <trkpt lat="43.89095000" lon="10.39287000">
        <ele>171.00000</ele>
        <time>2010-01-01T08:19:18Z</time>
      </trkpt>
      <trkpt lat="43.89042000" lon="10.39301000">
        <ele>166.00000</ele>
        <time>2010-01-01T08:19:39Z</time>
      </trkpt>
      <trkpt lat="43.89037000" lon="10.39299000">
        <ele>165.00000</ele>
        <time>2010-01-01T08:19:41Z</time>
      </trkpt>
      <trkpt lat="43.89037000" lon="10.39290000">
        <ele>165.00000</ele>
        <time>2010-01-01T08:19:44Z</time>
      </trkpt>
      <trkpt lat="43.89053000" lon="10.39263000">
        <ele>166.00000</ele>
        <time>2010-01-01T08:19:54Z</time>
      </trkpt>
      <trkpt lat="43.89064000" lon="10.39251000">
        <ele>167.00000</ele>
        <time>2010-01-01T08:20:00Z</time>
      </trkpt>
      <trkpt lat="43.89070000" lon="10.39241000">
        <ele>166.00000</ele>
        <time>2010-01-01T08:20:04Z</time>
      </trkpt>
      <trkpt lat="43.89068000" lon="10.39235000">
        <ele>165.00000</ele>
        <time>2010-01-01T08:20:05Z</time>
      </trkpt>
      <trkpt lat="43.89054000" lon="10.39235000">
        <ele>163.00000</ele>
        <time>2010-01-01T08:20:11Z</time>
      </trkpt>
      <trkpt lat="43.89001000" lon="10.39312000">
        <ele>160.00000</ele>
        <time>2010-01-01T08:20:42Z</time>
      </trkpt>
      <trkpt lat="43.88980000" lon="10.39332000">
        <ele>153.00000</ele>
        <time>2010-01-01T08:20:52Z</time>
      </trkpt>
      <trkpt lat="43.88980000" lon="10.39343000">
        <ele>151.00000</ele>
        <time>2010-01-01T08:20:55Z</time>
      </trkpt>
      <trkpt lat="43.88985000" lon="10.39347000">
        <ele>152.00000</ele>
        <time>2010-01-01T08:20:57Z</time>
      </trkpt>
      <trkpt lat="43.89017000" lon="10.39346000">
        <ele>157.00000</ele>
        <time>2010-01-01T08:21:10Z</time>
      </trkpt>
      <trkpt lat="43.89021000" lon="10.39352000">
        <ele>156.00000</ele>
        <time>2010-01-01T08:21:13Z</time>
      </trkpt>
      <trkpt lat="43.89018000" lon="10.39360000">
        <ele>154.00000</ele>
        <time>2010-01-01T08:21:15Z</time>
      </trkpt>
      <trkpt lat="43.88985000" lon="10.39362000">
        <ele>149.00000</ele>
        <time>2010-01-01T08:21:28Z</time>
      </trkpt>
      <trkpt lat="43.88962000" lon="10.39345000">
        <ele>147.00000</ele>
        <time>2010-01-01T08:21:39Z</time>
      </trkpt>
      <trkpt lat="43.88959000" lon="10.39339000">
        <ele>148.00000</ele>
        <time>2010-01-01T08:21:41Z</time>
      </trkpt>
      <trkpt lat="43.88959000" lon="10.39331000">
        <ele>148.00000</ele>
        <time>2010-01-01T08:21:43Z</time>
      </trkpt>
      <trkpt lat="43.88967000" lon="10.39304000">
        <ele>151.00000</ele>
        <time>2010-01-01T08:21:52Z</time>
      </trkpt>
      <trkpt lat="43.88966000" lon="10.39300000">
        <ele>150.00000</ele>
        <time>2010-01-01T08:21:53Z</time>
      </trkpt>
      <trkpt lat="43.88960000" lon="10.39299000">
        <ele>147.00000</ele>
        <time>2010-01-01T08:21:55Z</time>
      </trkpt>
      <trkpt lat="43.88936000" lon="10.39318000">
        <ele>141.00000</ele>
        <time>2010-01-01T08:22:06Z</time>
      </trkpt>
      <trkpt lat="43.88932000" lon="10.39329000">
        <ele>141.00000</ele>
        <time>2010-01-01T08:22:10Z</time>
      </trkpt>
      <trkpt lat="43.88939930" lon="10.39360820">
        <ele>142.00000</ele>
        <time>2010-01-01T08:22:20Z</time>
      </trkpt>
      <trkpt lat="43.88939000" lon="10.39384000">
        <ele>140.00000</ele>
        <time>2010-01-01T08:22:26Z</time>
      </trkpt>
      <trkpt lat="43.88934000" lon="10.39396000">
        <ele>138.00000</ele>
        <time>2010-01-01T08:22:30Z</time>
      </trkpt>
      <trkpt lat="43.88910000" lon="10.39417000">
        <ele>136.00000</ele>
        <time>2010-01-01T08:22:42Z</time>
      </trkpt>
      <trkpt lat="43.88869000" lon="10.39434000">
        <ele>130.00000</ele>
        <time>2010-01-01T08:22:59Z</time>
      </trkpt>
      <trkpt lat="43.88838000" lon="10.39424000">
        <ele>130.00000</ele>
        <time>2010-01-01T08:23:12Z</time>
      </trkpt>
      <trkpt lat="43.88787000" lon="10.39395000">
        <ele>119.00000</ele>
        <time>2010-01-01T08:23:34Z</time>
      </trkpt>
      <trkpt lat="43.88780000" lon="10.39393000">
        <ele>117.00000</ele>
        <time>2010-01-01T08:23:37Z</time>
      </trkpt>
      <trkpt lat="43.88773000" lon="10.39396000">
        <ele>117.00000</ele>
        <time>2010-01-01T08:23:39Z</time>
      </trkpt>
      <trkpt lat="43.88768000" lon="10.39410000">
        <ele>118.00000</ele>
        <time>2010-01-01T08:23:44Z</time>
      </trkpt>
      <trkpt lat="43.88769000" lon="10.39430000">
        <ele>120.00000</ele>
        <time>2010-01-01T08:23:50Z</time>
      </trkpt>
      <trkpt lat="43.88767000" lon="10.39450000">
        <ele>121.00000</ele>
        <time>2010-01-01T08:23:56Z</time>
      </trkpt>
      <trkpt lat="43.88760000" lon="10.39459000">
        <ele>120.00000</ele>
        <time>2010-01-01T08:23:59Z</time>
      </trkpt>
      <trkpt lat="43.88740000" lon="10.39469000">
        <ele>117.00000</ele>
        <time>2010-01-01T08:24:08Z</time>
      </trkpt>
      <trkpt lat="43.88720000" lon="10.39472000">
        <ele>113.00000</ele>
        <time>2010-01-01T08:24:16Z</time>
      </trkpt>
      <trkpt lat="43.88686000" lon="10.39475000">
        <ele>106.00000</ele>
        <time>2010-01-01T08:24:30Z</time>
      </trkpt>
      <trkpt lat="43.88673000" lon="10.39497000">
        <ele>103.00000</ele>
        <time>2010-01-01T08:24:38Z</time>
      </trkpt>
      <trkpt lat="43.88668000" lon="10.39523000">
        <ele>102.00000</ele>
        <time>2010-01-01T08:24:46Z</time>
      </trkpt>
      <trkpt lat="43.88673000" lon="10.39530000">
        <ele>102.00000</ele>
        <time>2010-01-01T08:24:48Z</time>
      </trkpt>
      <trkpt lat="43.88692000" lon="10.39538000">
        <ele>104.00000</ele>
        <time>2010-01-01T08:24:56Z</time>
      </trkpt>
      <trkpt lat="43.88696000" lon="10.39543000">
        <ele>105.00000</ele>
        <time>2010-01-01T08:24:58Z</time>
      </trkpt>
      <trkpt lat="43.88696000" lon="10.39548000">
        <ele>104.00000</ele>
        <time>2010-01-01T08:25:00Z</time>
      </trkpt>
      <trkpt lat="43.88693000" lon="10.39553000">
        <ele>103.00000</ele>
        <time>2010-01-01T08:25:02Z</time>
      </trkpt>
      <trkpt lat="43.88590820" lon="10.39553400">
        <ele>91.000000</ele>
        <time>2010-01-01T08:25:43Z</time>
      </trkpt>
      <trkpt lat="43.88578000" lon="10.39530000">
        <ele>88.000000</ele>
        <time>2010-01-01T08:25:51Z</time>
      </trkpt>
      <trkpt lat="43.88566850" lon="10.39489030">
        <ele>86.000000</ele>
        <time>2010-01-01T08:26:04Z</time>
      </trkpt>
      <trkpt lat="43.88548290" lon="10.39527650">
        <ele>84.000000</ele>
        <time>2010-01-01T08:26:17Z</time>
      </trkpt>
      <trkpt lat="43.88510400" lon="10.39610260">
        <ele>83.000000</ele>
        <time>2010-01-01T08:26:45Z</time>
      </trkpt>
      <trkpt lat="43.88478000" lon="10.39697000">
        <ele>83.000000</ele>
        <time>2010-01-01T08:27:14Z</time>
      </trkpt>
      <trkpt lat="43.88462460" lon="10.39794800">
        <ele>76.000000</ele>
        <time>2010-01-01T08:27:43Z</time>
      </trkpt>
      <trkpt lat="43.88458000" lon="10.39880000">
        <ele>74.000000</ele>
        <time>2010-01-01T08:28:07Z</time>
      </trkpt>
      <trkpt lat="43.88444670" lon="10.39971820">
        <ele>79.000000</ele>
        <time>2010-01-01T08:28:34Z</time>
      </trkpt>
      <trkpt lat="43.88413000" lon="10.40084000">
        <ele>80.000000</ele>
        <time>2010-01-01T08:29:09Z</time>
      </trkpt>
      <trkpt lat="43.88204950" lon="10.40536160">
        <ele>66.000000</ele>
        <time>2010-01-01T08:31:44Z</time>
      </trkpt>
      <trkpt lat="43.88187940" lon="10.40630570">
        <ele>61.000000</ele>
        <time>2010-01-01T08:32:12Z</time>
      </trkpt>
      <trkpt lat="43.88144630" lon="10.40730350">
        <ele>61.000000</ele>
        <time>2010-01-01T08:32:45Z</time>
      </trkpt>
      <trkpt lat="43.88087410" lon="10.40797940">
        <ele>62.000000</ele>
        <time>2010-01-01T08:33:16Z</time>
      </trkpt>
      <trkpt lat="43.88036000" lon="10.40902000">
        <ele>61.000000</ele>
        <time>2010-01-01T08:33:52Z</time>
      </trkpt>
      <trkpt lat="43.88013000" lon="10.40959000">
        <ele>58.000000</ele>
        <time>2010-01-01T08:34:11Z</time>
      </trkpt>
      <trkpt lat="43.87910000" lon="10.41132000">
        <ele>52.000000</ele>
        <time>2010-01-01T08:35:16Z</time>
      </trkpt>
      <trkpt lat="43.87890000" lon="10.41193000">
        <ele>53.000000</ele>
        <time>2010-01-01T08:35:35Z</time>
      </trkpt>
      <trkpt lat="43.87869000" lon="10.41261000">
        <ele>52.000000</ele>
        <time>2010-01-01T08:35:56Z</time>
      </trkpt>
      <trkpt lat="43.87841000" lon="10.41320000">
        <ele>50.000000</ele>
        <time>2010-01-01T08:36:17Z</time>
      </trkpt>
      <trkpt lat="43.87813000" lon="10.41355000">
        <ele>50.000000</ele>
        <time>2010-01-01T08:36:32Z</time>
      </trkpt>
      <trkpt lat="43.87761000" lon="10.41397000">
        <ele>50.000000</ele>
        <time>2010-01-01T08:36:56Z</time>
      </trkpt>
      <trkpt lat="43.87742000" lon="10.41438000">
        <ele>47.000000</ele>
        <time>2010-01-01T08:37:10Z</time>
      </trkpt>
      <trkpt lat="43.87723000" lon="10.41537000">
        <ele>48.000000</ele>
        <time>2010-01-01T08:37:39Z</time>
      </trkpt>
      <trkpt lat="43.87655000" lon="10.41671000">
        <ele>45.000000</ele>
        <time>2010-01-01T08:38:27Z</time>
      </trkpt>
      <trkpt lat="43.87620000" lon="10.41769000">
        <ele>45.000000</ele>
        <time>2010-01-01T08:38:58Z</time>
      </trkpt>
      <trkpt lat="43.87576000" lon="10.41872000">
        <ele>42.000000</ele>
        <time>2010-01-01T08:39:33Z</time>
      </trkpt>
      <trkpt lat="43.87532000" lon="10.41953000">
        <ele>42.000000</ele>
        <time>2010-01-01T08:40:02Z</time>
      </trkpt>
      <trkpt lat="43.87479170" lon="10.42154610">
        <ele>40.000000</ele>
        <time>2010-01-01T08:41:04Z</time>
      </trkpt>
      <trkpt lat="43.87407000" lon="10.42386000">
        <ele>38.000000</ele>
        <time>2010-01-01T08:42:17Z</time>
      </trkpt>
      <trkpt lat="43.87380000" lon="10.42448000">
        <ele>38.000000</ele>
        <time>2010-01-01T08:42:38Z</time>
      </trkpt>
      <trkpt lat="43.87339000" lon="10.42490000">
        <ele>32.000000</ele>
        <time>2010-01-01T08:42:58Z</time>
      </trkpt>
      <trkpt lat="43.87290000" lon="10.42583000">
        <ele>29.000000</ele>
        <time>2010-01-01T08:43:31Z</time>
      </trkpt>
      <trkpt lat="43.87268000" lon="10.42681000">
        <ele>30.000000</ele>
        <time>2010-01-01T08:44:01Z</time>
      </trkpt>
      <trkpt lat="43.87206000" lon="10.42825000">
        <ele>28.000000</ele>
        <time>2010-01-01T08:44:49Z</time>
      </trkpt>
      <trkpt lat="43.87150000" lon="10.42937000">
        <ele>30.000000</ele>
        <time>2010-01-01T08:45:29Z</time>
      </trkpt>
      <trkpt lat="43.87064000" lon="10.43005000">
        <ele>30.000000</ele>
        <time>2010-01-01T08:46:08Z</time>
      </trkpt>
      <trkpt lat="43.86998000" lon="10.43041000">
        <ele>28.000000</ele>
        <time>2010-01-01T08:46:37Z</time>
      </trkpt>
      <trkpt lat="43.86938000" lon="10.43107000">
        <ele>27.000000</ele>
        <time>2010-01-01T08:47:07Z</time>
      </trkpt>
      <trkpt lat="43.86855000" lon="10.43157000">
        <ele>28.000000</ele>
        <time>2010-01-01T08:47:43Z</time>
      </trkpt>
      <trkpt lat="43.86786000" lon="10.43247000">
        <ele>28.000000</ele>
        <time>2010-01-01T08:48:21Z</time>
      </trkpt>
      <trkpt lat="43.86679000" lon="10.43363000">
        <ele>24.000000</ele>
        <time>2010-01-01T08:49:16Z</time>
      </trkpt>
      <trkpt lat="43.86642000" lon="10.43400000">
        <ele>24.000000</ele>
        <time>2010-01-01T08:49:34Z</time>
      </trkpt>
      <trkpt lat="43.86634000" lon="10.43419000">
        <ele>25.000000</ele>
        <time>2010-01-01T08:49:40Z</time>
      </trkpt>
      <trkpt lat="43.86593000" lon="10.43635000">
        <ele>27.000000</ele>
        <time>2010-01-01T08:50:45Z</time>
      </trkpt>
      <trkpt lat="43.86594000" lon="10.43654000">
        <ele>27.000000</ele>
        <time>2010-01-01T08:50:50Z</time>
      </trkpt>
      <trkpt lat="43.86602000" lon="10.43672000">
        <ele>24.000000</ele>
        <time>2010-01-01T08:50:56Z</time>
      </trkpt>
      <trkpt lat="43.86647000" lon="10.43708000">
        <ele>25.000000</ele>
        <time>2010-01-01T08:51:17Z</time>
      </trkpt>
      <trkpt lat="43.86656000" lon="10.43708000">
        <ele>26.000000</ele>
        <time>2010-01-01T08:51:21Z</time>
      </trkpt>
      <trkpt lat="43.86683000" lon="10.43691000">
        <ele>25.000000</ele>
        <time>2010-01-01T08:51:33Z</time>
      </trkpt>
      <trkpt lat="43.86706000" lon="10.43689000">
        <ele>25.000000</ele>
        <time>2010-01-01T08:51:42Z</time>
      </trkpt>
      <trkpt lat="43.86722000" lon="10.43701000">
        <ele>26.000000</ele>
        <time>2010-01-01T08:51:49Z</time>
      </trkpt>
      <trkpt lat="43.86737000" lon="10.43702000">
        <ele>28.000000</ele>
        <time>2010-01-01T08:51:55Z</time>
      </trkpt>
      <trkpt lat="43.86751000" lon="10.43700000">
        <ele>28.000000</ele>
        <time>2010-01-01T08:52:01Z</time>
      </trkpt>
      <trkpt lat="43.86782000" lon="10.43680000">
        <ele>29.000000</ele>
        <time>2010-01-01T08:52:15Z</time>
      </trkpt>
      <trkpt lat="43.86831000" lon="10.43669000">
        <ele>31.000000</ele>
        <time>2010-01-01T08:52:34Z</time>
      </trkpt>
      <trkpt lat="43.86868000" lon="10.43670000">
        <ele>29.000000</ele>
        <time>2010-01-01T08:52:49Z</time>
      </trkpt>
      <trkpt lat="43.86911000" lon="10.43681000">
        <ele>30.000000</ele>
        <time>2010-01-01T08:53:07Z</time>
      </trkpt>
      <trkpt lat="43.86993000" lon="10.43750000">
        <ele>35.000000</ele>
        <time>2010-01-01T08:53:45Z</time>
      </trkpt>
      <trkpt lat="43.87023000" lon="10.43817000">
        <ele>37.000000</ele>
        <time>2010-01-01T08:54:08Z</time>
      </trkpt>
      <trkpt lat="43.87038000" lon="10.43832000">
        <ele>36.000000</ele>
        <time>2010-01-01T08:54:15Z</time>
      </trkpt>
      <trkpt lat="43.87039000" lon="10.43847000">
        <ele>38.000000</ele>
        <time>2010-01-01T08:54:20Z</time>
      </trkpt>
      <trkpt lat="43.87013000" lon="10.43944000">
        <ele>56.000000</ele>
        <time>2010-01-01T08:54:49Z</time>
      </trkpt>
      <trkpt lat="43.87017000" lon="10.43975000">
        <ele>57.000000</ele>
        <time>2010-01-01T08:54:59Z</time>
      </trkpt>
      <trkpt lat="43.87013000" lon="10.43998000">
        <ele>59.000000</ele>
        <time>2010-01-01T08:55:05Z</time>
      </trkpt>
      <trkpt lat="43.87008000" lon="10.44020000">
        <ele>61.000000</ele>
        <time>2010-01-01T08:55:12Z</time>
      </trkpt>
      <trkpt lat="43.87012000" lon="10.44042000">
        <ele>61.000000</ele>
        <time>2010-01-01T08:55:19Z</time>
      </trkpt>
      <trkpt lat="43.87026000" lon="10.44091000">
        <ele>57.000000</ele>
        <time>2010-01-01T08:55:34Z</time>
      </trkpt>
      <trkpt lat="43.87035000" lon="10.44105000">
        <ele>56.000000</ele>
        <time>2010-01-01T08:55:39Z</time>
      </trkpt>
      <trkpt lat="43.87038000" lon="10.44119000">
        <ele>56.000000</ele>
        <time>2010-01-01T08:55:43Z</time>
      </trkpt>
      <trkpt lat="43.87036000" lon="10.44134000">
        <ele>58.000000</ele>
        <time>2010-01-01T08:55:48Z</time>
      </trkpt>
      <trkpt lat="43.87016000" lon="10.44160000">
        <ele>63.000000</ele>
        <time>2010-01-01T08:55:59Z</time>
      </trkpt>
      <trkpt lat="43.87014000" lon="10.44174000">
        <ele>64.000000</ele>
        <time>2010-01-01T08:56:03Z</time>
      </trkpt>
      <trkpt lat="43.87022000" lon="10.44194000">
        <ele>63.000000</ele>
        <time>2010-01-01T08:56:10Z</time>
      </trkpt>
      <trkpt lat="43.87021000" lon="10.44214000">
        <ele>66.000000</ele>
        <time>2010-01-01T08:56:15Z</time>
      </trkpt>
      <trkpt lat="43.87014000" lon="10.44250000">
        <ele>73.000000</ele>
        <time>2010-01-01T08:56:26Z</time>
      </trkpt>
      <trkpt lat="43.87019000" lon="10.44277000">
        <ele>75.000000</ele>
        <time>2010-01-01T08:56:34Z</time>
      </trkpt>
      <trkpt lat="43.87035000" lon="10.44305000">
        <ele>75.000000</ele>
        <time>2010-01-01T08:56:44Z</time>
      </trkpt>
      <trkpt lat="43.87054000" lon="10.44329000">
        <ele>74.000000</ele>
        <time>2010-01-01T08:56:55Z</time>
      </trkpt>
      <trkpt lat="43.87075000" lon="10.44374000">
        <ele>76.000000</ele>
        <time>2010-01-01T08:57:10Z</time>
      </trkpt>
      <trkpt lat="43.87079000" lon="10.44395000">
        <ele>76.000000</ele>
        <time>2010-01-01T08:57:16Z</time>
      </trkpt>
      <trkpt lat="43.87078000" lon="10.44421000">
        <ele>77.000000</ele>
        <time>2010-01-01T08:57:24Z</time>
      </trkpt>
      <trkpt lat="43.87061000" lon="10.44464000">
        <ele>80.000000</ele>
        <time>2010-01-01T08:57:38Z</time>
      </trkpt>
      <trkpt lat="43.87027000" lon="10.44519000">
        <ele>85.000000</ele>
        <time>2010-01-01T08:57:59Z</time>
      </trkpt>
      <trkpt lat="43.87030000" lon="10.44573000">
        <ele>85.000000</ele>
        <time>2010-01-01T08:58:15Z</time>
      </trkpt>
      <trkpt lat="43.87026000" lon="10.44588000">
        <ele>86.000000</ele>
        <time>2010-01-01T08:58:19Z</time>
      </trkpt>
      <trkpt lat="43.87001000" lon="10.44644000">
        <ele>91.000000</ele>
        <time>2010-01-01T08:58:38Z</time>
      </trkpt>
      <trkpt lat="43.86998000" lon="10.44668000">
        <ele>92.000000</ele>
        <time>2010-01-01T08:58:45Z</time>
      </trkpt>
      <trkpt lat="43.87000000" lon="10.44706000">
        <ele>95.000000</ele>
        <time>2010-01-01T08:58:56Z</time>
      </trkpt>
      <trkpt lat="43.87011000" lon="10.44764000">
        <ele>99.000000</ele>
        <time>2010-01-01T08:59:14Z</time>
      </trkpt>
      <trkpt lat="43.87030000" lon="10.44832000">
        <ele>99.000000</ele>
        <time>2010-01-01T08:59:35Z</time>
      </trkpt>
      <trkpt lat="43.87028000" lon="10.44853000">
        <ele>101.00000</ele>
        <time>2010-01-01T08:59:41Z</time>
      </trkpt>
      <trkpt lat="43.87016000" lon="10.44875000">
        <ele>105.00000</ele>
        <time>2010-01-01T08:59:49Z</time>
      </trkpt>
      <trkpt lat="43.87010000" lon="10.44899000">
        <ele>107.00000</ele>
        <time>2010-01-01T08:59:56Z</time>
      </trkpt>
      <trkpt lat="43.87005000" lon="10.44933000">
        <ele>108.00000</ele>
        <time>2010-01-01T09:00:06Z</time>
      </trkpt>
      <trkpt lat="43.87005000" lon="10.44962000">
        <ele>108.00000</ele>
        <time>2010-01-01T09:00:14Z</time>
      </trkpt>
      <trkpt lat="43.87013000" lon="10.45004000">
        <ele>106.00000</ele>
        <time>2010-01-01T09:00:27Z</time>
      </trkpt>
      <trkpt lat="43.87032000" lon="10.45016000">
        <ele>103.00000</ele>
        <time>2010-01-01T09:00:35Z</time>
      </trkpt>
      <trkpt lat="43.87060000" lon="10.45022000">
        <ele>101.00000</ele>
        <time>2010-01-01T09:00:47Z</time>
      </trkpt>
      <trkpt lat="43.87095000" lon="10.45017000">
        <ele>102.00000</ele>
        <time>2010-01-01T09:01:01Z</time>
      </trkpt>
      <trkpt lat="43.87125000" lon="10.45019000">
        <ele>107.00000</ele>
        <time>2010-01-01T09:01:13Z</time>
      </trkpt>
      <trkpt lat="43.87137000" lon="10.45017000">
        <ele>108.00000</ele>
        <time>2010-01-01T09:01:18Z</time>
      </trkpt>
      <trkpt lat="43.87176000" lon="10.44984000">
        <ele>112.00000</ele>
        <time>2010-01-01T09:01:36Z</time>
      </trkpt>
      <trkpt lat="43.87201000" lon="10.44972000">
        <ele>114.00000</ele>
        <time>2010-01-01T09:01:47Z</time>
      </trkpt>
      <trkpt lat="43.87241000" lon="10.44941000">
        <ele>117.00000</ele>
        <time>2010-01-01T09:02:05Z</time>
      </trkpt>
      <trkpt lat="43.87290000" lon="10.44913000">
        <ele>125.00000</ele>
        <time>2010-01-01T09:02:26Z</time>
      </trkpt>
      <trkpt lat="43.87300000" lon="10.44889000">
        <ele>125.00000</ele>
        <time>2010-01-01T09:02:34Z</time>
      </trkpt>
      <trkpt lat="43.87305000" lon="10.44866000">
        <ele>126.00000</ele>
        <time>2010-01-01T09:02:41Z</time>
      </trkpt>
      <trkpt lat="43.87324000" lon="10.44848000">
        <ele>131.00000</ele>
        <time>2010-01-01T09:02:50Z</time>
      </trkpt>
      <trkpt lat="43.87333000" lon="10.44821000">
        <ele>131.00000</ele>
        <time>2010-01-01T09:02:59Z</time>
      </trkpt>
      <trkpt lat="43.87335000" lon="10.44806000">
        <ele>131.00000</ele>
        <time>2010-01-01T09:03:03Z</time>
      </trkpt>
      <trkpt lat="43.87343000" lon="10.44798000">
        <ele>131.00000</ele>
        <time>2010-01-01T09:03:07Z</time>
      </trkpt>
      <trkpt lat="43.87370000" lon="10.44800000">
        <ele>134.00000</ele>
        <time>2010-01-01T09:03:18Z</time>
      </trkpt>
      <trkpt lat="43.87387000" lon="10.44810000">
        <ele>138.00000</ele>
        <time>2010-01-01T09:03:25Z</time>
      </trkpt>
      <trkpt lat="43.87410000" lon="10.44811000">
        <ele>142.00000</ele>
        <time>2010-01-01T09:03:35Z</time>
      </trkpt>
      <trkpt lat="43.87461000" lon="10.44773000">
        <ele>143.00000</ele>
        <time>2010-01-01T09:03:58Z</time>
      </trkpt>
      <trkpt lat="43.87467000" lon="10.44774000">
        <ele>144.00000</ele>
        <time>2010-01-01T09:04:00Z</time>
      </trkpt>
      <trkpt lat="43.87468000" lon="10.44783000">
        <ele>146.00000</ele>
        <time>2010-01-01T09:04:03Z</time>
      </trkpt>
      <trkpt lat="43.87419000" lon="10.44839000">
        <ele>148.00000</ele>
        <time>2010-01-01T09:04:28Z</time>
      </trkpt>
      <trkpt lat="43.87392000" lon="10.44866000">
        <ele>148.00000</ele>
        <time>2010-01-01T09:04:42Z</time>
      </trkpt>
      <trkpt lat="43.87371000" lon="10.44937000">
        <ele>150.00000</ele>
        <time>2010-01-01T09:05:04Z</time>
      </trkpt>
      <trkpt lat="43.87312000" lon="10.45037000">
        <ele>156.00000</ele>
        <time>2010-01-01T09:05:41Z</time>
      </trkpt>
      <trkpt lat="43.87301000" lon="10.45100000">
        <ele>156.00000</ele>
        <time>2010-01-01T09:06:00Z</time>
      </trkpt>
      <trkpt lat="43.87306000" lon="10.45135000">
        <ele>157.00000</ele>
        <time>2010-01-01T09:06:10Z</time>
      </trkpt>
      <trkpt lat="43.87324000" lon="10.45151000">
        <ele>159.00000</ele>
        <time>2010-01-01T09:06:19Z</time>
      </trkpt>
      <trkpt lat="43.87347000" lon="10.45157000">
        <ele>160.00000</ele>
        <time>2010-01-01T09:06:28Z</time>
      </trkpt>
      <trkpt lat="43.87366000" lon="10.45153000">
        <ele>161.00000</ele>
        <time>2010-01-01T09:06:36Z</time>
      </trkpt>
      <trkpt lat="43.87397000" lon="10.45122000">
        <ele>162.00000</ele>
        <time>2010-01-01T09:06:51Z</time>
      </trkpt>
      <trkpt lat="43.87401000" lon="10.45105000">
        <ele>164.00000</ele>
        <time>2010-01-01T09:06:56Z</time>
      </trkpt>
      <trkpt lat="43.87436000" lon="10.45039000">
        <ele>164.00000</ele>
        <time>2010-01-01T09:07:20Z</time>
      </trkpt>
      <trkpt lat="43.87433000" lon="10.45004000">
        <ele>165.00000</ele>
        <time>2010-01-01T09:07:30Z</time>
      </trkpt>
      <trkpt lat="43.87438000" lon="10.44989000">
        <ele>165.00000</ele>
        <time>2010-01-01T09:07:35Z</time>
      </trkpt>
      <trkpt lat="43.87445000" lon="10.44977000">
        <ele>166.00000</ele>
        <time>2010-01-01T09:07:39Z</time>
      </trkpt>
      <trkpt lat="43.87465000" lon="10.44955000">
        <ele>166.00000</ele>
        <time>2010-01-01T09:07:49Z</time>
      </trkpt>
      <trkpt lat="43.87485000" lon="10.44939000">
        <ele>168.00000</ele>
        <time>2010-01-01T09:07:59Z</time>
      </trkpt>
      <trkpt lat="43.87552000" lon="10.44908000">
        <ele>170.00000</ele>
        <time>2010-01-01T09:08:27Z</time>
      </trkpt>
      <trkpt lat="43.87577000" lon="10.44903000">
        <ele>170.00000</ele>
        <time>2010-01-01T09:08:37Z</time>
      </trkpt>
      <trkpt lat="43.87616000" lon="10.44908000">
        <ele>169.00000</ele>
        <time>2010-01-01T09:08:53Z</time>
      </trkpt>
      <trkpt lat="43.87662000" lon="10.44920000">
        <ele>170.00000</ele>
        <time>2010-01-01T09:09:11Z</time>
      </trkpt>
      <trkpt lat="43.87674440" lon="10.44928010">
        <ele>170.00000</ele>
        <time>2010-01-01T09:09:17Z</time>
      </trkpt>
      <trkpt lat="43.87680000" lon="10.44947000">
        <ele>173.00000</ele>
        <time>2010-01-01T09:09:23Z</time>
      </trkpt>
      <trkpt lat="43.87683000" lon="10.44975000">
        <ele>174.00000</ele>
        <time>2010-01-01T09:09:31Z</time>
      </trkpt>
      <trkpt lat="43.87692000" lon="10.45012000">
        <ele>174.00000</ele>
        <time>2010-01-01T09:09:42Z</time>
      </trkpt>
      <trkpt lat="43.87697000" lon="10.45048000">
        <ele>173.00000</ele>
        <time>2010-01-01T09:09:53Z</time>
      </trkpt>
      <trkpt lat="43.87701000" lon="10.45065000">
        <ele>173.00000</ele>
        <time>2010-01-01T09:09:58Z</time>
      </trkpt>
      <trkpt lat="43.87713000" lon="10.45074000">
        <ele>174.00000</ele>
        <time>2010-01-01T09:10:03Z</time>
      </trkpt>
      <trkpt lat="43.87757000" lon="10.45091000">
        <ele>177.00000</ele>
        <time>2010-01-01T09:10:22Z</time>
      </trkpt>
      <trkpt lat="43.87781000" lon="10.45089000">
        <ele>181.00000</ele>
        <time>2010-01-01T09:10:31Z</time>
      </trkpt>
      <trkpt lat="43.87808000" lon="10.45080000">
        <ele>187.00000</ele>
        <time>2010-01-01T09:10:42Z</time>
      </trkpt>
      <trkpt lat="43.87827000" lon="10.45090000">
        <ele>191.00000</ele>
        <time>2010-01-01T09:10:51Z</time>
      </trkpt>
      <trkpt lat="43.87830000" lon="10.45107000">
        <ele>190.00000</ele>
        <time>2010-01-01T09:10:56Z</time>
      </trkpt>
      <trkpt lat="43.87830000" lon="10.45145000">
        <ele>192.00000</ele>
        <time>2010-01-01T09:11:07Z</time>
      </trkpt>
      <trkpt lat="43.87833000" lon="10.45149000">
        <ele>194.00000</ele>
        <time>2010-01-01T09:11:08Z</time>
      </trkpt>
      <trkpt lat="43.87847000" lon="10.45088000">
        <ele>197.00000</ele>
        <time>2010-01-01T09:11:27Z</time>
      </trkpt>
      <trkpt lat="43.87860000" lon="10.45064000">
        <ele>199.00000</ele>
        <time>2010-01-01T09:11:35Z</time>
      </trkpt>
      <trkpt lat="43.87885000" lon="10.45030000">
        <ele>199.00000</ele>
        <time>2010-01-01T09:11:49Z</time>
      </trkpt>
      <trkpt lat="43.87902000" lon="10.45018000">
        <ele>198.00000</ele>
        <time>2010-01-01T09:11:57Z</time>
      </trkpt>
      <trkpt lat="43.87917000" lon="10.45014000">
        <ele>199.00000</ele>
        <time>2010-01-01T09:12:03Z</time>
      </trkpt>
      <trkpt lat="43.87942000" lon="10.45015000">
        <ele>201.00000</ele>
        <time>2010-01-01T09:12:13Z</time>
      </trkpt>
      <trkpt lat="43.87998000" lon="10.44981000">
        <ele>200.00000</ele>
        <time>2010-01-01T09:12:38Z</time>
      </trkpt>
      <trkpt lat="43.88021000" lon="10.44969000">
        <ele>203.00000</ele>
        <time>2010-01-01T09:12:47Z</time>
      </trkpt>
      <trkpt lat="43.88042000" lon="10.44946000">
        <ele>204.00000</ele>
        <time>2010-01-01T09:12:58Z</time>
      </trkpt>
      <trkpt lat="43.88059000" lon="10.44902000">
        <ele>204.00000</ele>
        <time>2010-01-01T09:13:13Z</time>
      </trkpt>
      <trkpt lat="43.88112000" lon="10.44896000">
        <ele>208.00000</ele>
        <time>2010-01-01T09:13:34Z</time>
      </trkpt>
      <trkpt lat="43.88172000" lon="10.44864000">
        <ele>212.00000</ele>
        <time>2010-01-01T09:14:00Z</time>
      </trkpt>
      <trkpt lat="43.88183000" lon="10.44865000">
        <ele>214.00000</ele>
        <time>2010-01-01T09:14:04Z</time>
      </trkpt>
      <trkpt lat="43.88204000" lon="10.44874000">
        <ele>218.00000</ele>
        <time>2010-01-01T09:14:13Z</time>
      </trkpt>
      <trkpt lat="43.88220000" lon="10.44877000">
        <ele>220.00000</ele>
        <time>2010-01-01T09:14:19Z</time>
      </trkpt>
      <trkpt lat="43.88239000" lon="10.44872000">
        <ele>221.00000</ele>
        <time>2010-01-01T09:14:27Z</time>
      </trkpt>
      <trkpt lat="43.88336000" lon="10.44808000">
        <ele>223.00000</ele>
        <time>2010-01-01T09:15:10Z</time>
      </trkpt>
      <trkpt lat="43.88372000" lon="10.44795000">
        <ele>227.00000</ele>
        <time>2010-01-01T09:15:25Z</time>
      </trkpt>
      <trkpt lat="43.88440000" lon="10.44794000">
        <ele>231.00000</ele>
        <time>2010-01-01T09:15:52Z</time>
      </trkpt>
      <trkpt lat="43.88500000" lon="10.44787000">
        <ele>232.00000</ele>
        <time>2010-01-01T09:16:16Z</time>
      </trkpt>
      <trkpt lat="43.88520000" lon="10.44785000">
        <ele>235.00000</ele>
        <time>2010-01-01T09:16:24Z</time>
      </trkpt>
      <trkpt lat="43.88531000" lon="10.44788000">
        <ele>238.00000</ele>
        <time>2010-01-01T09:16:29Z</time>
      </trkpt>
      <trkpt lat="43.88567000" lon="10.44832000">
        <ele>245.00000</ele>
        <time>2010-01-01T09:16:48Z</time>
      </trkpt>
      <trkpt lat="43.88562000" lon="10.44844000">
        <ele>246.00000</ele>
        <time>2010-01-01T09:16:52Z</time>
      </trkpt>
      <trkpt lat="43.88510000" lon="10.44908000">
        <ele>244.00000</ele>
        <time>2010-01-01T09:17:20Z</time>
      </trkpt>
      <trkpt lat="43.88507000" lon="10.44915000">
        <ele>244.00000</ele>
        <time>2010-01-01T09:17:22Z</time>
      </trkpt>
      <trkpt lat="43.88506000" lon="10.44925000">
        <ele>245.00000</ele>
        <time>2010-01-01T09:17:25Z</time>
      </trkpt>
      <trkpt lat="43.88511000" lon="10.44930000">
        <ele>246.00000</ele>
        <time>2010-01-01T09:17:27Z</time>
      </trkpt>
      <trkpt lat="43.88547000" lon="10.44959000">
        <ele>252.00000</ele>
        <time>2010-01-01T09:17:44Z</time>
      </trkpt>
      <trkpt lat="43.88567000" lon="10.44973000">
        <ele>255.00000</ele>
        <time>2010-01-01T09:17:53Z</time>
      </trkpt>
      <trkpt lat="43.88601000" lon="10.44987000">
        <ele>257.00000</ele>
        <time>2010-01-01T09:18:07Z</time>
      </trkpt>
      <trkpt lat="43.88632000" lon="10.44996000">
        <ele>258.00000</ele>
        <time>2010-01-01T09:18:20Z</time>
      </trkpt>
      <trkpt lat="43.88643000" lon="10.45005000">
        <ele>259.00000</ele>
        <time>2010-01-01T09:18:25Z</time>
      </trkpt>
      <trkpt lat="43.88646000" lon="10.45014000">
        <ele>260.00000</ele>
        <time>2010-01-01T09:18:28Z</time>
      </trkpt>
      <trkpt lat="43.88646000" lon="10.45026000">
        <ele>261.00000</ele>
        <time>2010-01-01T09:18:31Z</time>
      </trkpt>
      <trkpt lat="43.88637000" lon="10.45040000">
        <ele>261.00000</ele>
        <time>2010-01-01T09:18:37Z</time>
      </trkpt>
      <trkpt lat="43.88627000" lon="10.45044000">
        <ele>262.00000</ele>
        <time>2010-01-01T09:18:41Z</time>
      </trkpt>
      <trkpt lat="43.88581150" lon="10.45056760">
        <ele>266.00000</ele>
        <time>2010-01-01T09:19:00Z</time>
      </trkpt>
      <trkpt lat="43.88587000" lon="10.45106000">
        <ele>269.00000</ele>
        <time>2010-01-01T09:19:14Z</time>
      </trkpt>
      <trkpt lat="43.88590000" lon="10.45118000">
        <ele>270.00000</ele>
        <time>2010-01-01T09:19:18Z</time>
      </trkpt>
      <trkpt lat="43.88653000" lon="10.45203000">
        <ele>277.00000</ele>
        <time>2010-01-01T09:19:53Z</time>
      </trkpt>
      <trkpt lat="43.88674000" lon="10.45220000">
        <ele>277.00000</ele>
        <time>2010-01-01T09:20:03Z</time>
      </trkpt>
      <trkpt lat="43.88696000" lon="10.45226000">
        <ele>276.00000</ele>
        <time>2010-01-01T09:20:12Z</time>
      </trkpt>
      <trkpt lat="43.88752000" lon="10.45232000">
        <ele>275.00000</ele>
        <time>2010-01-01T09:20:34Z</time>
      </trkpt>
      <trkpt lat="43.88792000" lon="10.45234000">
        <ele>278.00000</ele>
        <time>2010-01-01T09:20:50Z</time>
      </trkpt>
      <trkpt lat="43.88809000" lon="10.45241000">
        <ele>278.00000</ele>
        <time>2010-01-01T09:20:57Z</time>
      </trkpt>
      <trkpt lat="43.88817000" lon="10.45247000">
        <ele>278.00000</ele>
        <time>2010-01-01T09:21:01Z</time>
      </trkpt>
      <trkpt lat="43.88820080" lon="10.45258990">
        <ele>278.00000</ele>
        <time>2010-01-01T09:21:05Z</time>
      </trkpt>
      <trkpt lat="43.88816000" lon="10.45271000">
        <ele>278.00000</ele>
        <time>2010-01-01T09:21:08Z</time>
      </trkpt>
      <trkpt lat="43.88807000" lon="10.45294000">
        <ele>276.00000</ele>
        <time>2010-01-01T09:21:16Z</time>
      </trkpt>
      <trkpt lat="43.88795000" lon="10.45341000">
        <ele>276.00000</ele>
        <time>2010-01-01T09:21:30Z</time>
      </trkpt>
      <trkpt lat="43.88798000" lon="10.45379000">
        <ele>281.00000</ele>
        <time>2010-01-01T09:21:41Z</time>
      </trkpt>
      <trkpt lat="43.88795000" lon="10.45393000">
        <ele>281.00000</ele>
        <time>2010-01-01T09:21:46Z</time>
      </trkpt>
      <trkpt lat="43.88780000" lon="10.45433000">
        <ele>278.00000</ele>
        <time>2010-01-01T09:21:59Z</time>
      </trkpt>
      <trkpt lat="43.88777000" lon="10.45483000">
        <ele>275.00000</ele>
        <time>2010-01-01T09:22:13Z</time>
      </trkpt>
      <trkpt lat="43.88786000" lon="10.45526000">
        <ele>276.00000</ele>
        <time>2010-01-01T09:22:26Z</time>
      </trkpt>
      <trkpt lat="43.88812000" lon="10.45603000">
        <ele>277.00000</ele>
        <time>2010-01-01T09:22:51Z</time>
      </trkpt>
      <trkpt lat="43.88823000" lon="10.45617000">
        <ele>276.00000</ele>
        <time>2010-01-01T09:22:56Z</time>
      </trkpt>
      <trkpt lat="43.88833000" lon="10.45622000">
        <ele>277.00000</ele>
        <time>2010-01-01T09:23:01Z</time>
      </trkpt>
      <trkpt lat="43.88851000" lon="10.45630000">
        <ele>281.00000</ele>
        <time>2010-01-01T09:23:08Z</time>
      </trkpt>
      <trkpt lat="43.88862000" lon="10.45644000">
        <ele>281.00000</ele>
        <time>2010-01-01T09:23:14Z</time>
      </trkpt>
      <trkpt lat="43.88870000" lon="10.45668000">
        <ele>281.00000</ele>
        <time>2010-01-01T09:23:22Z</time>
      </trkpt>
      <trkpt lat="43.88881000" lon="10.45685000">
        <ele>282.00000</ele>
        <time>2010-01-01T09:23:29Z</time>
      </trkpt>
      <trkpt lat="43.88888000" lon="10.45689000">
        <ele>283.00000</ele>
        <time>2010-01-01T09:23:32Z</time>
      </trkpt>
      <trkpt lat="43.88911000" lon="10.45726000">
        <ele>285.00000</ele>
        <time>2010-01-01T09:23:46Z</time>
      </trkpt>
      <trkpt lat="43.88930000" lon="10.45744000">
        <ele>294.00000</ele>
        <time>2010-01-01T09:23:55Z</time>
      </trkpt>
      <trkpt lat="43.88931000" lon="10.45754000">
        <ele>294.00000</ele>
        <time>2010-01-01T09:23:58Z</time>
      </trkpt>
      <trkpt lat="43.88921000" lon="10.45820000">
        <ele>285.00000</ele>
        <time>2010-01-01T09:24:17Z</time>
      </trkpt>
      <trkpt lat="43.88919000" lon="10.45849000">
        <ele>281.00000</ele>
        <time>2010-01-01T09:24:26Z</time>
      </trkpt>
      <trkpt lat="43.88914000" lon="10.45869000">
        <ele>277.00000</ele>
        <time>2010-01-01T09:24:32Z</time>
      </trkpt>
      <trkpt lat="43.88918000" lon="10.45880000">
        <ele>276.00000</ele>
        <time>2010-01-01T09:24:35Z</time>
      </trkpt>
      <trkpt lat="43.88929000" lon="10.45884000">
        <ele>279.00000</ele>
        <time>2010-01-01T09:24:40Z</time>
      </trkpt>
      <trkpt lat="43.88948000" lon="10.45881000">
        <ele>286.00000</ele>
        <time>2010-01-01T09:24:47Z</time>
      </trkpt>
      <trkpt lat="43.88960000" lon="10.45889000">
        <ele>290.00000</ele>
        <time>2010-01-01T09:24:53Z</time>
      </trkpt>
      <trkpt lat="43.88967000" lon="10.45898000">
        <ele>291.00000</ele>
        <time>2010-01-01T09:24:57Z</time>
      </trkpt>
      <trkpt lat="43.88966000" lon="10.45936000">
        <ele>282.00000</ele>
        <time>2010-01-01T09:25:08Z</time>
      </trkpt>
      <trkpt lat="43.88972000" lon="10.45948000">
        <ele>282.00000</ele>
        <time>2010-01-01T09:25:12Z</time>
      </trkpt>
      <trkpt lat="43.88990000" lon="10.45959000">
        <ele>286.00000</ele>
        <time>2010-01-01T09:25:20Z</time>
      </trkpt>
      <trkpt lat="43.88993000" lon="10.45966000">
        <ele>285.00000</ele>
        <time>2010-01-01T09:25:22Z</time>
      </trkpt>
      <trkpt lat="43.88993000" lon="10.45974000">
        <ele>283.00000</ele>
        <time>2010-01-01T09:25:24Z</time>
      </trkpt>
      <trkpt lat="43.88985000" lon="10.46001000">
        <ele>274.00000</ele>
        <time>2010-01-01T09:25:33Z</time>
      </trkpt>
      <trkpt lat="43.88961000" lon="10.46062000">
        <ele>256.00000</ele>
        <time>2010-01-01T09:25:53Z</time>
      </trkpt>
      <trkpt lat="43.88960000" lon="10.46075000">
        <ele>254.00000</ele>
        <time>2010-01-01T09:25:57Z</time>
      </trkpt>
      <trkpt lat="43.88984000" lon="10.46132000">
        <ele>256.00000</ele>
        <time>2010-01-01T09:26:16Z</time>
      </trkpt>
      <trkpt lat="43.89011000" lon="10.46177000">
        <ele>260.00000</ele>
        <time>2010-01-01T09:26:33Z</time>
      </trkpt>
      <trkpt lat="43.89015000" lon="10.46192000">
        <ele>258.00000</ele>
        <time>2010-01-01T09:26:37Z</time>
      </trkpt>
      <trkpt lat="43.89008000" lon="10.46231000">
        <ele>246.00000</ele>
        <time>2010-01-01T09:26:49Z</time>
      </trkpt>
      <trkpt lat="43.89006000" lon="10.46255000">
        <ele>241.00000</ele>
        <time>2010-01-01T09:26:56Z</time>
      </trkpt>
      <trkpt lat="43.89008000" lon="10.46268000">
        <ele>240.00000</ele>
        <time>2010-01-01T09:27:00Z</time>
      </trkpt>
      <trkpt lat="43.89036000" lon="10.46299000">
        <ele>245.00000</ele>
        <time>2010-01-01T09:27:14Z</time>
      </trkpt>
      <trkpt lat="43.89059000" lon="10.46341000">
        <ele>245.00000</ele>
        <time>2010-01-01T09:27:29Z</time>
      </trkpt>
      <trkpt lat="43.89064000" lon="10.46357000">
        <ele>246.00000</ele>
        <time>2010-01-01T09:27:34Z</time>
      </trkpt>
      <trkpt lat="43.89067000" lon="10.46374000">
        <ele>245.00000</ele>
        <time>2010-01-01T09:27:39Z</time>
      </trkpt>
      <trkpt lat="43.89065000" lon="10.46391000">
        <ele>244.00000</ele>
        <time>2010-01-01T09:27:44Z</time>
      </trkpt>
      <trkpt lat="43.89058000" lon="10.46419000">
        <ele>239.00000</ele>
        <time>2010-01-01T09:27:53Z</time>
      </trkpt>
      <trkpt lat="43.89049000" lon="10.46439000">
        <ele>235.00000</ele>
        <time>2010-01-01T09:28:00Z</time>
      </trkpt>
      <trkpt lat="43.89032000" lon="10.46467000">
        <ele>229.00000</ele>
        <time>2010-01-01T09:28:10Z</time>
      </trkpt>
      <trkpt lat="43.89028000" lon="10.46480000">
        <ele>227.00000</ele>
        <time>2010-01-01T09:28:14Z</time>
      </trkpt>
      <trkpt lat="43.89028000" lon="10.46489000">
        <ele>226.00000</ele>
        <time>2010-01-01T09:28:17Z</time>
      </trkpt>
      <trkpt lat="43.89041000" lon="10.46501000">
        <ele>227.00000</ele>
        <time>2010-01-01T09:28:23Z</time>
      </trkpt>
      <trkpt lat="43.89079000" lon="10.46521000">
        <ele>230.00000</ele>
        <time>2010-01-01T09:28:39Z</time>
      </trkpt>
      <trkpt lat="43.89090000" lon="10.46533000">
        <ele>229.00000</ele>
        <time>2010-01-01T09:28:45Z</time>
      </trkpt>
      <trkpt lat="43.89105000" lon="10.46568000">
        <ele>221.00000</ele>
        <time>2010-01-01T09:28:57Z</time>
      </trkpt>
      <trkpt lat="43.89110000" lon="10.46580000">
        <ele>218.00000</ele>
        <time>2010-01-01T09:29:01Z</time>
      </trkpt>
      <trkpt lat="43.89119000" lon="10.46585000">
        <ele>219.00000</ele>
        <time>2010-01-01T09:29:04Z</time>
      </trkpt>
      <trkpt lat="43.89129000" lon="10.46596000">
        <ele>218.00000</ele>
        <time>2010-01-01T09:29:10Z</time>
      </trkpt>
      <trkpt lat="43.89138000" lon="10.46634000">
        <ele>212.00000</ele>
        <time>2010-01-01T09:29:21Z</time>
      </trkpt>
      <trkpt lat="43.89157000" lon="10.46638000">
        <ele>214.00000</ele>
        <time>2010-01-01T09:29:29Z</time>
      </trkpt>
      <trkpt lat="43.89171000" lon="10.46647000">
        <ele>213.00000</ele>
        <time>2010-01-01T09:29:35Z</time>
      </trkpt>
      <trkpt lat="43.89212000" lon="10.46662000">
        <ele>206.00000</ele>
        <time>2010-01-01T09:29:52Z</time>
      </trkpt>
      <trkpt lat="43.89215000" lon="10.46667000">
        <ele>205.00000</ele>
        <time>2010-01-01T09:29:54Z</time>
      </trkpt>
      <trkpt lat="43.89216000" lon="10.46674000">
        <ele>203.00000</ele>
        <time>2010-01-01T09:29:56Z</time>
      </trkpt>
      <trkpt lat="43.89212000" lon="10.46678000">
        <ele>202.00000</ele>
        <time>2010-01-01T09:29:58Z</time>
      </trkpt>
      <trkpt lat="43.89205000" lon="10.46679000">
        <ele>202.00000</ele>
        <time>2010-01-01T09:30:01Z</time>
      </trkpt>
      <trkpt lat="43.89181000" lon="10.46668000">
        <ele>207.00000</ele>
        <time>2010-01-01T09:30:11Z</time>
      </trkpt>
      <trkpt lat="43.89165000" lon="10.46666000">
        <ele>209.00000</ele>
        <time>2010-01-01T09:30:17Z</time>
      </trkpt>
      <trkpt lat="43.89153000" lon="10.46680000">
        <ele>206.00000</ele>
        <time>2010-01-01T09:30:24Z</time>
      </trkpt>
      <trkpt lat="43.89123000" lon="10.46731000">
        <ele>197.00000</ele>
        <time>2010-01-01T09:30:43Z</time>
      </trkpt>
      <trkpt lat="43.89111000" lon="10.46759000">
        <ele>192.00000</ele>
        <time>2010-01-01T09:30:52Z</time>
      </trkpt>
      <trkpt lat="43.89115000" lon="10.46769000">
        <ele>191.00000</ele>
        <time>2010-01-01T09:30:55Z</time>
      </trkpt>
      <trkpt lat="43.89122000" lon="10.46767000">
        <ele>190.00000</ele>
        <time>2010-01-01T09:30:58Z</time>
      </trkpt>
      <trkpt lat="43.89151000" lon="10.46724000">
        <ele>197.00000</ele>
        <time>2010-01-01T09:31:15Z</time>
      </trkpt>
      <trkpt lat="43.89165000" lon="10.46720000">
        <ele>195.00000</ele>
        <time>2010-01-01T09:31:21Z</time>
      </trkpt>
      <trkpt lat="43.89177000" lon="10.46719000">
        <ele>194.00000</ele>
        <time>2010-01-01T09:31:26Z</time>
      </trkpt>
      <trkpt lat="43.89184000" lon="10.46723000">
        <ele>192.00000</ele>
        <time>2010-01-01T09:31:29Z</time>
      </trkpt>
      <trkpt lat="43.89197000" lon="10.46735000">
        <ele>189.00000</ele>
        <time>2010-01-01T09:31:35Z</time>
      </trkpt>
      <trkpt lat="43.89233000" lon="10.46788000">
        <ele>180.00000</ele>
        <time>2010-01-01T09:31:56Z</time>
      </trkpt>
      <trkpt lat="43.89230000" lon="10.46793000">
        <ele>179.00000</ele>
        <time>2010-01-01T09:31:58Z</time>
      </trkpt>
      <trkpt lat="43.89219000" lon="10.46792000">
        <ele>180.00000</ele>
        <time>2010-01-01T09:32:02Z</time>
      </trkpt>
      <trkpt lat="43.89190000" lon="10.46759000">
        <ele>185.00000</ele>
        <time>2010-01-01T09:32:17Z</time>
      </trkpt>
      <trkpt lat="43.89178000" lon="10.46749000">
        <ele>187.00000</ele>
        <time>2010-01-01T09:32:23Z</time>
      </trkpt>
      <trkpt lat="43.89174000" lon="10.46749000">
        <ele>187.00000</ele>
        <time>2010-01-01T09:32:24Z</time>
      </trkpt>
      <trkpt lat="43.89158000" lon="10.46758000">
        <ele>188.00000</ele>
        <time>2010-01-01T09:32:31Z</time>
      </trkpt>
      <trkpt lat="43.89150000" lon="10.46781000">
        <ele>184.00000</ele>
        <time>2010-01-01T09:32:39Z</time>
      </trkpt>
      <trkpt lat="43.89148000" lon="10.46829000">
        <ele>170.00000</ele>
        <time>2010-01-01T09:32:53Z</time>
      </trkpt>
      <trkpt lat="43.89136000" lon="10.46854000">
        <ele>169.00000</ele>
        <time>2010-01-01T09:33:01Z</time>
      </trkpt>
      <trkpt lat="43.89127000" lon="10.46907000">
        <ele>159.00000</ele>
        <time>2010-01-01T09:33:17Z</time>
      </trkpt>
      <trkpt lat="43.89116000" lon="10.46913000">
        <ele>158.00000</ele>
        <time>2010-01-01T09:33:22Z</time>
      </trkpt>
      <trkpt lat="43.89083000" lon="10.46917000">
        <ele>155.00000</ele>
        <time>2010-01-01T09:33:35Z</time>
      </trkpt>
      <trkpt lat="43.89075000" lon="10.46910000">
        <ele>155.00000</ele>
        <time>2010-01-01T09:33:39Z</time>
      </trkpt>
      <trkpt lat="43.89056000" lon="10.46884000">
        <ele>157.00000</ele>
        <time>2010-01-01T09:33:49Z</time>
      </trkpt>
      <trkpt lat="43.89044000" lon="10.46883000">
        <ele>154.00000</ele>
        <time>2010-01-01T09:33:54Z</time>
      </trkpt>
      <trkpt lat="43.89016000" lon="10.46890000">
        <ele>147.00000</ele>
        <time>2010-01-01T09:34:06Z</time>
      </trkpt>
      <trkpt lat="43.89005000" lon="10.46888000">
        <ele>145.00000</ele>
        <time>2010-01-01T09:34:10Z</time>
      </trkpt>
      <trkpt lat="43.88994000" lon="10.46879000">
        <ele>142.00000</ele>
        <time>2010-01-01T09:34:15Z</time>
      </trkpt>
      <trkpt lat="43.88987000" lon="10.46877000">
        <ele>140.00000</ele>
        <time>2010-01-01T09:34:18Z</time>
      </trkpt>
      <trkpt lat="43.88983000" lon="10.46880000">
        <ele>138.00000</ele>
        <time>2010-01-01T09:34:20Z</time>
      </trkpt>
      <trkpt lat="43.88987000" lon="10.46901000">
        <ele>135.00000</ele>
        <time>2010-01-01T09:34:26Z</time>
      </trkpt>
      <trkpt lat="43.88994000" lon="10.46916000">
        <ele>135.00000</ele>
        <time>2010-01-01T09:34:31Z</time>
      </trkpt>
      <trkpt lat="43.89006000" lon="10.46926000">
        <ele>136.00000</ele>
        <time>2010-01-01T09:34:37Z</time>
      </trkpt>
      <trkpt lat="43.89034000" lon="10.46916000">
        <ele>144.00000</ele>
        <time>2010-01-01T09:34:48Z</time>
      </trkpt>
      <trkpt lat="43.89044000" lon="10.46918000">
        <ele>145.00000</ele>
        <time>2010-01-01T09:34:52Z</time>
      </trkpt>
      <trkpt lat="43.89050000" lon="10.46930000">
        <ele>143.00000</ele>
        <time>2010-01-01T09:34:57Z</time>
      </trkpt>
      <trkpt lat="43.89055000" lon="10.46951000">
        <ele>139.00000</ele>
        <time>2010-01-01T09:35:03Z</time>
      </trkpt>
      <trkpt lat="43.89062000" lon="10.46964000">
        <ele>138.00000</ele>
        <time>2010-01-01T09:35:08Z</time>
      </trkpt>
      <trkpt lat="43.89096000" lon="10.46999000">
        <ele>136.00000</ele>
        <time>2010-01-01T09:35:25Z</time>
      </trkpt>
      <trkpt lat="43.89106000" lon="10.47029000">
        <ele>133.00000</ele>
        <time>2010-01-01T09:35:34Z</time>
      </trkpt>
      <trkpt lat="43.89114000" lon="10.47046000">
        <ele>131.00000</ele>
        <time>2010-01-01T09:35:40Z</time>
      </trkpt>
      <trkpt lat="43.89128000" lon="10.47067000">
        <ele>127.00000</ele>
        <time>2010-01-01T09:35:48Z</time>
      </trkpt>
      <trkpt lat="43.89129000" lon="10.47089000">
        <ele>122.00000</ele>
        <time>2010-01-01T09:35:55Z</time>
      </trkpt>
      <trkpt lat="43.89125000" lon="10.47100000">
        <ele>120.00000</ele>
        <time>2010-01-01T09:35:58Z</time>
      </trkpt>
      <trkpt lat="43.89118000" lon="10.47103000">
        <ele>120.00000</ele>
        <time>2010-01-01T09:36:01Z</time>
      </trkpt>
      <trkpt lat="43.89109000" lon="10.47099000">
        <ele>121.00000</ele>
        <time>2010-01-01T09:36:05Z</time>
      </trkpt>
      <trkpt lat="43.89099000" lon="10.47087000">
        <ele>123.00000</ele>
        <time>2010-01-01T09:36:10Z</time>
      </trkpt>
      <trkpt lat="43.89073000" lon="10.47047000">
        <ele>125.00000</ele>
        <time>2010-01-01T09:36:26Z</time>
      </trkpt>
      <trkpt lat="43.89061000" lon="10.47020000">
        <ele>127.00000</ele>
        <time>2010-01-01T09:36:35Z</time>
      </trkpt>
      <trkpt lat="43.89053000" lon="10.47007000">
        <ele>127.00000</ele>
        <time>2010-01-01T09:36:40Z</time>
      </trkpt>
      <trkpt lat="43.89032000" lon="10.46990000">
        <ele>124.00000</ele>
        <time>2010-01-01T09:36:50Z</time>
      </trkpt>
      <trkpt lat="43.89017000" lon="10.46973000">
        <ele>126.00000</ele>
        <time>2010-01-01T09:36:57Z</time>
      </trkpt>
      <trkpt lat="43.88996000" lon="10.46973000">
        <ele>122.00000</ele>
        <time>2010-01-01T09:37:06Z</time>
      </trkpt>
      <trkpt lat="43.88957000" lon="10.46971000">
        <ele>115.00000</ele>
        <time>2010-01-01T09:37:21Z</time>
      </trkpt>
      <trkpt lat="43.88927000" lon="10.46974000">
        <ele>110.00000</ele>
        <time>2010-01-01T09:37:33Z</time>
      </trkpt>
      <trkpt lat="43.88923000" lon="10.46982000">
        <ele>108.00000</ele>
        <time>2010-01-01T09:37:36Z</time>
      </trkpt>
      <trkpt lat="43.88926000" lon="10.46988000">
        <ele>107.00000</ele>
        <time>2010-01-01T09:37:38Z</time>
      </trkpt>
      <trkpt lat="43.88932000" lon="10.46992000">
        <ele>107.00000</ele>
        <time>2010-01-01T09:37:41Z</time>
      </trkpt>
      <trkpt lat="43.88956000" lon="10.46993000">
        <ele>109.00000</ele>
        <time>2010-01-01T09:37:51Z</time>
      </trkpt>
      <trkpt lat="43.89000000" lon="10.47021000">
        <ele>106.00000</ele>
        <time>2010-01-01T09:38:10Z</time>
      </trkpt>
      <trkpt lat="43.89002000" lon="10.47036000">
        <ele>104.00000</ele>
        <time>2010-01-01T09:38:14Z</time>
      </trkpt>
      <trkpt lat="43.88999000" lon="10.47086000">
        <ele>99.000000</ele>
        <time>2010-01-01T09:38:29Z</time>
      </trkpt>
      <trkpt lat="43.88987000" lon="10.47129000">
        <ele>95.000000</ele>
        <time>2010-01-01T09:38:42Z</time>
      </trkpt>
      <trkpt lat="43.88974000" lon="10.47171000">
        <ele>91.000000</ele>
        <time>2010-01-01T09:38:55Z</time>
      </trkpt>
      <trkpt lat="43.88974000" lon="10.47194000">
        <ele>91.000000</ele>
        <time>2010-01-01T09:39:02Z</time>
      </trkpt>
      <trkpt lat="43.88968000" lon="10.47235000">
        <ele>88.000000</ele>
        <time>2010-01-01T09:39:14Z</time>
      </trkpt>
      <trkpt lat="43.88955000" lon="10.47260000">
        <ele>84.000000</ele>
        <time>2010-01-01T09:39:23Z</time>
      </trkpt>
      <trkpt lat="43.88948000" lon="10.47283000">
        <ele>82.000000</ele>
        <time>2010-01-01T09:39:30Z</time>
      </trkpt>
      <trkpt lat="43.88944000" lon="10.47373000">
        <ele>71.000000</ele>
        <time>2010-01-01T09:39:56Z</time>
      </trkpt>
      <trkpt lat="43.88937000" lon="10.47417000">
        <ele>66.000000</ele>
        <time>2010-01-01T09:40:09Z</time>
      </trkpt>
      <trkpt lat="43.88938000" lon="10.47454000">
        <ele>62.000000</ele>
        <time>2010-01-01T09:40:20Z</time>
      </trkpt>
      <trkpt lat="43.88921000" lon="10.47480000">
        <ele>60.000000</ele>
        <time>2010-01-01T09:40:30Z</time>
      </trkpt>
      <trkpt lat="43.88914000" lon="10.47481000">
        <ele>60.000000</ele>
        <time>2010-01-01T09:40:33Z</time>
      </trkpt>
      <trkpt lat="43.88891000" lon="10.47474000">
        <ele>58.000000</ele>
        <time>2010-01-01T09:40:42Z</time>
      </trkpt>
      <trkpt lat="43.88883000" lon="10.47469000">
        <ele>57.000000</ele>
        <time>2010-01-01T09:40:46Z</time>
      </trkpt>
      <trkpt lat="43.88873000" lon="10.47472000">
        <ele>56.000000</ele>
        <time>2010-01-01T09:40:50Z</time>
      </trkpt>
      <trkpt lat="43.88866000" lon="10.47493000">
        <ele>54.000000</ele>
        <time>2010-01-01T09:40:57Z</time>
      </trkpt>
      <trkpt lat="43.88857000" lon="10.47549000">
        <ele>51.000000</ele>
        <time>2010-01-01T09:41:13Z</time>
      </trkpt>
      <trkpt lat="43.88856000" lon="10.47578000">
        <ele>48.000000</ele>
        <time>2010-01-01T09:41:21Z</time>
      </trkpt>
      <trkpt lat="43.88854000" lon="10.47596000">
        <ele>46.000000</ele>
        <time>2010-01-01T09:41:27Z</time>
      </trkpt>
      <trkpt lat="43.88834000" lon="10.47620000">
        <ele>47.000000</ele>
        <time>2010-01-01T09:41:37Z</time>
      </trkpt>
      <trkpt lat="43.88811000" lon="10.47692000">
        <ele>42.000000</ele>
        <time>2010-01-01T09:42:00Z</time>
      </trkpt>
      <trkpt lat="43.88809000" lon="10.47712000">
        <ele>41.000000</ele>
        <time>2010-01-01T09:42:06Z</time>
      </trkpt>
      <trkpt lat="43.88816000" lon="10.47738000">
        <ele>41.000000</ele>
        <time>2010-01-01T09:42:14Z</time>
      </trkpt>
      <trkpt lat="43.88818000" lon="10.47756000">
        <ele>41.000000</ele>
        <time>2010-01-01T09:42:19Z</time>
      </trkpt>
      <trkpt lat="43.88816000" lon="10.47776000">
        <ele>41.000000</ele>
        <time>2010-01-01T09:42:25Z</time>
      </trkpt>
      <trkpt lat="43.88705000" lon="10.47861000">
        <ele>44.000000</ele>
        <time>2010-01-01T09:43:16Z</time>
      </trkpt>
      <trkpt lat="43.88695000" lon="10.47872000">
        <ele>47.000000</ele>
        <time>2010-01-01T09:43:21Z</time>
      </trkpt>
      <trkpt lat="43.88684000" lon="10.47895000">
        <ele>48.000000</ele>
        <time>2010-01-01T09:43:29Z</time>
      </trkpt>
      <trkpt lat="43.88676000" lon="10.47942000">
        <ele>44.000000</ele>
        <time>2010-01-01T09:43:43Z</time>
      </trkpt>
      <trkpt lat="43.88667000" lon="10.47964000">
        <ele>42.000000</ele>
        <time>2010-01-01T09:43:50Z</time>
      </trkpt>
      <trkpt lat="43.88634000" lon="10.47989000">
        <ele>43.000000</ele>
        <time>2010-01-01T09:44:05Z</time>
      </trkpt>
      <trkpt lat="43.88606000" lon="10.48003000">
        <ele>43.000000</ele>
        <time>2010-01-01T09:44:17Z</time>
      </trkpt>
      <trkpt lat="43.88554000" lon="10.48017000">
        <ele>40.000000</ele>
        <time>2010-01-01T09:44:38Z</time>
      </trkpt>
      <trkpt lat="43.88505000" lon="10.48042000">
        <ele>38.000000</ele>
        <time>2010-01-01T09:44:59Z</time>
      </trkpt>
      <trkpt lat="43.88446000" lon="10.48018000">
        <ele>40.000000</ele>
        <time>2010-01-01T09:45:24Z</time>
      </trkpt>
      <trkpt lat="43.88411000" lon="10.47983000">
        <ele>43.000000</ele>
        <time>2010-01-01T09:45:41Z</time>
      </trkpt>
      <trkpt lat="43.88346000" lon="10.47942000">
        <ele>43.000000</ele>
        <time>2010-01-01T09:46:09Z</time>
      </trkpt>
      <trkpt lat="43.88328000" lon="10.47935000">
        <ele>42.000000</ele>
        <time>2010-01-01T09:46:17Z</time>
      </trkpt>
      <trkpt lat="43.88295000" lon="10.47930000">
        <ele>40.000000</ele>
        <time>2010-01-01T09:46:30Z</time>
      </trkpt>
      <trkpt lat="43.88260000" lon="10.47917000">
        <ele>38.000000</ele>
        <time>2010-01-01T09:46:45Z</time>
      </trkpt>
      <trkpt lat="43.88248000" lon="10.47920000">
        <ele>37.000000</ele>
        <time>2010-01-01T09:46:50Z</time>
      </trkpt>
      <trkpt lat="43.88191000" lon="10.47960000">
        <ele>38.000000</ele>
        <time>2010-01-01T09:47:15Z</time>
      </trkpt>
      <trkpt lat="43.88131000" lon="10.48052000">
        <ele>39.000000</ele>
        <time>2010-01-01T09:47:51Z</time>
      </trkpt>
      <trkpt lat="43.88100000" lon="10.48082000">
        <ele>44.000000</ele>
        <time>2010-01-01T09:48:06Z</time>
      </trkpt>
      <trkpt lat="43.88093000" lon="10.48145000">
        <ele>40.000000</ele>
        <time>2010-01-01T09:48:25Z</time>
      </trkpt>
      <trkpt lat="43.87997000" lon="10.48310000">
        <ele>41.000000</ele>
        <time>2010-01-01T09:49:26Z</time>
      </trkpt>
      <trkpt lat="43.87929000" lon="10.48370000">
        <ele>42.000000</ele>
        <time>2010-01-01T09:49:58Z</time>
      </trkpt>
      <trkpt lat="43.87890000" lon="10.48422000">
        <ele>35.000000</ele>
        <time>2010-01-01T09:50:20Z</time>
      </trkpt>
      <trkpt lat="43.87792770" lon="10.48484620">
        <ele>36.000000</ele>
        <time>2010-01-01T09:51:03Z</time>
      </trkpt>
      <trkpt lat="43.87690000" lon="10.48553000">
        <ele>34.000000</ele>
        <time>2010-01-01T09:51:48Z</time>
      </trkpt>
      <trkpt lat="43.87612000" lon="10.48633000">
        <ele>31.000000</ele>
        <time>2010-01-01T09:52:27Z</time>
      </trkpt>
      <trkpt lat="43.87487000" lon="10.48679000">
        <ele>32.000000</ele>
        <time>2010-01-01T09:53:19Z</time>
      </trkpt>
      <trkpt lat="43.87351000" lon="10.48753000">
        <ele>28.000000</ele>
        <time>2010-01-01T09:54:17Z</time>
      </trkpt>
      <trkpt lat="43.87281000" lon="10.48806000">
        <ele>29.000000</ele>
        <time>2010-01-01T09:54:49Z</time>
      </trkpt>
      <trkpt lat="43.87244000" lon="10.48836000">
        <ele>28.000000</ele>
        <time>2010-01-01T09:55:06Z</time>
      </trkpt>
      <trkpt lat="43.87199000" lon="10.48883000">
        <ele>27.000000</ele>
        <time>2010-01-01T09:55:29Z</time>
      </trkpt>
      <trkpt lat="43.87186000" lon="10.48913000">
        <ele>26.000000</ele>
        <time>2010-01-01T09:55:39Z</time>
      </trkpt>
      <trkpt lat="43.87175000" lon="10.48926000">
        <ele>26.000000</ele>
        <time>2010-01-01T09:55:45Z</time>
      </trkpt>
      <trkpt lat="43.87155000" lon="10.48941000">
        <ele>26.000000</ele>
        <time>2010-01-01T09:55:54Z</time>
      </trkpt>
      <trkpt lat="43.87061000" lon="10.48998000">
        <ele>30.000000</ele>
        <time>2010-01-01T09:56:35Z</time>
      </trkpt>
      <trkpt lat="43.87045000" lon="10.49014000">
        <ele>32.000000</ele>
        <time>2010-01-01T09:56:43Z</time>
      </trkpt>
      <trkpt lat="43.87023000" lon="10.49048000">
        <ele>32.000000</ele>
        <time>2010-01-01T09:56:56Z</time>
      </trkpt>
      <trkpt lat="43.86962000" lon="10.49100000">
        <ele>34.000000</ele>
        <time>2010-01-01T09:57:25Z</time>
      </trkpt>
      <trkpt lat="43.86948000" lon="10.49107000">
        <ele>34.000000</ele>
        <time>2010-01-01T09:57:31Z</time>
      </trkpt>
      <trkpt lat="43.86895000" lon="10.49084000">
        <ele>37.000000</ele>
        <time>2010-01-01T09:57:53Z</time>
      </trkpt>
      <trkpt lat="43.86815000" lon="10.49063000">
        <ele>33.000000</ele>
        <time>2010-01-01T09:58:25Z</time>
      </trkpt>
      <trkpt lat="43.86799000" lon="10.49065000">
        <ele>32.000000</ele>
        <time>2010-01-01T09:58:32Z</time>
      </trkpt>
      <trkpt lat="43.86755000" lon="10.49086000">
        <ele>29.000000</ele>
        <time>2010-01-01T09:58:51Z</time>
      </trkpt>
      <trkpt lat="43.86700000" lon="10.49103000">
        <ele>28.000000</ele>
        <time>2010-01-01T09:59:13Z</time>
      </trkpt>
      <trkpt lat="43.86680000" lon="10.49097000">
        <ele>28.000000</ele>
        <time>2010-01-01T09:59:21Z</time>
      </trkpt>
      <trkpt lat="43.86645000" lon="10.49066000">
        <ele>25.000000</ele>
        <time>2010-01-01T09:59:38Z</time>
      </trkpt>
      <trkpt lat="43.86567000" lon="10.48983000">
        <ele>21.000000</ele>
        <time>2010-01-01T10:00:17Z</time>
      </trkpt>
      <trkpt lat="43.86460000" lon="10.48864000">
        <ele>19.000000</ele>
        <time>2010-01-01T10:01:12Z</time>
      </trkpt>
      <trkpt lat="43.86430000" lon="10.48835000">
        <ele>19.000000</ele>
        <time>2010-01-01T10:01:27Z</time>
      </trkpt>
      <trkpt lat="43.86414000" lon="10.48826000">
        <ele>19.000000</ele>
        <time>2010-01-01T10:01:34Z</time>
      </trkpt>
      <trkpt lat="43.86404000" lon="10.48827000">
        <ele>19.000000</ele>
        <time>2010-01-01T10:01:38Z</time>
      </trkpt>
      <trkpt lat="43.86354000" lon="10.48844000">
        <ele>18.000000</ele>
        <time>2010-01-01T10:01:58Z</time>
      </trkpt>
      <trkpt lat="43.86346000" lon="10.48843000">
        <ele>18.000000</ele>
        <time>2010-01-01T10:02:02Z</time>
      </trkpt>
      <trkpt lat="43.86342000" lon="10.48841000">
        <ele>18.000000</ele>
        <time>2010-01-01T10:02:03Z</time>
      </trkpt>
      <trkpt lat="43.86317800" lon="10.48862810">
        <ele>17.000000</ele>
        <time>2010-01-01T10:02:15Z</time>
      </trkpt>
      <trkpt lat="43.86289000" lon="10.48886000">
        <ele>17.000000</ele>
        <time>2010-01-01T10:02:28Z</time>
      </trkpt>
      <trkpt lat="43.86217240" lon="10.48943810">
        <ele>17.000000</ele>
        <time>2010-01-01T10:03:01Z</time>
      </trkpt>
      <trkpt lat="43.86195000" lon="10.48953000">
        <ele>18.000000</ele>
        <time>2010-01-01T10:03:11Z</time>
      </trkpt>
      <trkpt lat="43.86139000" lon="10.48951000">
        <ele>21.000000</ele>
        <time>2010-01-01T10:03:33Z</time>
      </trkpt>
      <trkpt lat="43.86134000" lon="10.48949000">
        <ele>20.000000</ele>
        <time>2010-01-01T10:03:35Z</time>
      </trkpt>
      <trkpt lat="43.86124000" lon="10.48957000">
        <ele>20.000000</ele>
        <time>2010-01-01T10:03:40Z</time>
      </trkpt>
      <trkpt lat="43.86090000" lon="10.48963000">
        <ele>20.000000</ele>
        <time>2010-01-01T10:03:53Z</time>
      </trkpt>
      <trkpt lat="43.86062000" lon="10.48972000">
        <ele>19.000000</ele>
        <time>2010-01-01T10:04:05Z</time>
      </trkpt>
      <trkpt lat="43.86047000" lon="10.48983000">
        <ele>19.000000</ele>
        <time>2010-01-01T10:04:12Z</time>
      </trkpt>
      <trkpt lat="43.86038540" lon="10.48996920">
        <ele>18.000000</ele>
        <time>2010-01-01T10:04:17Z</time>
      </trkpt>
      <trkpt lat="43.86033000" lon="10.49023000">
        <ele>17.000000</ele>
        <time>2010-01-01T10:04:25Z</time>
      </trkpt>
      <trkpt lat="43.86018000" lon="10.49176000">
        <ele>22.000000</ele>
        <time>2010-01-01T10:05:09Z</time>
      </trkpt>
      <trkpt lat="43.86013000" lon="10.49265000">
        <ele>20.000000</ele>
        <time>2010-01-01T10:05:35Z</time>
      </trkpt>
      <trkpt lat="43.86014000" lon="10.49443000">
        <ele>19.000000</ele>
        <time>2010-01-01T10:06:27Z</time>
      </trkpt>
      <trkpt lat="43.86014000" lon="10.49541000">
        <ele>16.000000</ele>
        <time>2010-01-01T10:06:55Z</time>
      </trkpt>
      <trkpt lat="43.86013000" lon="10.49558000">
        <ele>17.000000</ele>
        <time>2010-01-01T10:07:00Z</time>
      </trkpt>
      <trkpt lat="43.86011000" lon="10.49571000">
        <ele>17.000000</ele>
        <time>2010-01-01T10:07:04Z</time>
      </trkpt>
      <trkpt lat="43.86005000" lon="10.49603000">
        <ele>17.000000</ele>
        <time>2010-01-01T10:07:13Z</time>
      </trkpt>
      <trkpt lat="43.85998000" lon="10.49629000">
        <ele>17.000000</ele>
        <time>2010-01-01T10:07:21Z</time>
      </trkpt>
      <trkpt lat="43.85981000" lon="10.49685000">
        <ele>18.000000</ele>
        <time>2010-01-01T10:07:39Z</time>
      </trkpt>
      <trkpt lat="43.85966000" lon="10.49744000">
        <ele>18.000000</ele>
        <time>2010-01-01T10:07:57Z</time>
      </trkpt>
      <trkpt lat="43.85959000" lon="10.49780000">
        <ele>19.000000</ele>
        <time>2010-01-01T10:08:08Z</time>
      </trkpt>
      <trkpt lat="43.85948000" lon="10.49865000">
        <ele>19.000000</ele>
        <time>2010-01-01T10:08:32Z</time>
      </trkpt>
      <trkpt lat="43.85938000" lon="10.49904000">
        <ele>19.000000</ele>
        <time>2010-01-01T10:08:44Z</time>
      </trkpt>
      <trkpt lat="43.85929000" lon="10.49922000">
        <ele>19.000000</ele>
        <time>2010-01-01T10:08:51Z</time>
      </trkpt>
      <trkpt lat="43.85890000" lon="10.49984000">
        <ele>20.000000</ele>
        <time>2010-01-01T10:09:14Z</time>
      </trkpt>
      <trkpt lat="43.85876000" lon="10.50022000">
        <ele>21.000000</ele>
        <time>2010-01-01T10:09:27Z</time>
      </trkpt>
      <trkpt lat="43.85856000" lon="10.50095000">
        <ele>21.000000</ele>
        <time>2010-01-01T10:09:49Z</time>
      </trkpt>
      <trkpt lat="43.85836000" lon="10.50154000">
        <ele>23.000000</ele>
        <time>2010-01-01T10:10:08Z</time>
      </trkpt>
      <trkpt lat="43.85818000" lon="10.50214000">
        <ele>26.000000</ele>
        <time>2010-01-01T10:10:27Z</time>
      </trkpt>
      <trkpt lat="43.85810000" lon="10.50242000">
        <ele>24.000000</ele>
        <time>2010-01-01T10:10:36Z</time>
      </trkpt>
      <trkpt lat="43.85770000" lon="10.50332000">
        <ele>21.000000</ele>
        <time>2010-01-01T10:11:06Z</time>
      </trkpt>
      <trkpt lat="43.85757000" lon="10.50368000">
        <ele>23.000000</ele>
        <time>2010-01-01T10:11:18Z</time>
      </trkpt>
      <trkpt lat="43.85751000" lon="10.50406000">
        <ele>24.000000</ele>
        <time>2010-01-01T10:11:29Z</time>
      </trkpt>
      <trkpt lat="43.85750000" lon="10.50426000">
        <ele>25.000000</ele>
        <time>2010-01-01T10:11:35Z</time>
      </trkpt>
      <trkpt lat="43.85754000" lon="10.50463000">
        <ele>25.000000</ele>
        <time>2010-01-01T10:11:46Z</time>
      </trkpt>
      <trkpt lat="43.85769000" lon="10.50516000">
        <ele>25.000000</ele>
        <time>2010-01-01T10:12:02Z</time>
      </trkpt>
      <trkpt lat="43.85777000" lon="10.50538000">
        <ele>26.000000</ele>
        <time>2010-01-01T10:12:09Z</time>
      </trkpt>
      <trkpt lat="43.85791000" lon="10.50566000">
        <ele>25.000000</ele>
        <time>2010-01-01T10:12:19Z</time>
      </trkpt>
      <trkpt lat="43.85796000" lon="10.50579000">
        <ele>24.000000</ele>
        <time>2010-01-01T10:12:23Z</time>
      </trkpt>
      <trkpt lat="43.85797000" lon="10.50593000">
        <ele>23.000000</ele>
        <time>2010-01-01T10:12:27Z</time>
      </trkpt>
      <trkpt lat="43.85790000" lon="10.50598000">
        <ele>22.000000</ele>
        <time>2010-01-01T10:12:30Z</time>
      </trkpt>
      <trkpt lat="43.85676000" lon="10.50755000">
        <ele>24.000000</ele>
        <time>2010-01-01T10:13:35Z</time>
      </trkpt>
      <trkpt lat="43.85667000" lon="10.50762000">
        <ele>24.000000</ele>
        <time>2010-01-01T10:13:39Z</time>
      </trkpt>
      <trkpt lat="43.85648000" lon="10.50768000">
        <ele>26.000000</ele>
        <time>2010-01-01T10:13:47Z</time>
      </trkpt>
      <trkpt lat="43.85628000" lon="10.50771000">
        <ele>26.000000</ele>
        <time>2010-01-01T10:13:55Z</time>
      </trkpt>
      <trkpt lat="43.85556000" lon="10.50786000">
        <ele>26.000000</ele>
        <time>2010-01-01T10:14:24Z</time>
      </trkpt>
      <trkpt lat="43.85544000" lon="10.50787000">
        <ele>25.000000</ele>
        <time>2010-01-01T10:14:29Z</time>
      </trkpt>
      <trkpt lat="43.85504000" lon="10.50784000">
        <ele>24.000000</ele>
        <time>2010-01-01T10:14:45Z</time>
      </trkpt>
      <trkpt lat="43.85483000" lon="10.50780000">
        <ele>22.000000</ele>
        <time>2010-01-01T10:14:53Z</time>
      </trkpt>
      <trkpt lat="43.85377000" lon="10.50749000">
        <ele>21.000000</ele>
        <time>2010-01-01T10:15:37Z</time>
      </trkpt>
      <trkpt lat="43.85292000" lon="10.50741000">
        <ele>22.000000</ele>
        <time>2010-01-01T10:16:11Z</time>
      </trkpt>
      <trkpt lat="43.85173000" lon="10.50725000">
        <ele>23.000000</ele>
        <time>2010-01-01T10:16:58Z</time>
      </trkpt>
      <trkpt lat="43.84920000" lon="10.50696000">
        <ele>23.000000</ele>
        <time>2010-01-01T10:18:40Z</time>
      </trkpt>
      <trkpt lat="43.84905000" lon="10.50689000">
        <ele>24.000000</ele>
        <time>2010-01-01T10:18:46Z</time>
      </trkpt>
      <trkpt lat="43.84898000" lon="10.50682000">
        <ele>24.000000</ele>
        <time>2010-01-01T10:18:50Z</time>
      </trkpt>
      <trkpt lat="43.84882000" lon="10.50666000">
        <ele>23.000000</ele>
        <time>2010-01-01T10:18:58Z</time>
      </trkpt>
      <trkpt lat="43.84881000" lon="10.50652000">
        <ele>22.000000</ele>
        <time>2010-01-01T10:19:02Z</time>
      </trkpt>
      <trkpt lat="43.84875000" lon="10.50641000">
        <ele>22.000000</ele>
        <time>2010-01-01T10:19:06Z</time>
      </trkpt>
      <trkpt lat="43.84863000" lon="10.50636000">
        <ele>21.000000</ele>
        <time>2010-01-01T10:19:11Z</time>
      </trkpt>
      <trkpt lat="43.84855000" lon="10.50638000">
        <ele>21.000000</ele>
        <time>2010-01-01T10:19:14Z</time>
      </trkpt>
      <trkpt lat="43.84848000" lon="10.50649000">
        <ele>22.000000</ele>
        <time>2010-01-01T10:19:18Z</time>
      </trkpt>
      <trkpt lat="43.84844000" lon="10.50663000">
        <ele>22.000000</ele>
        <time>2010-01-01T10:19:23Z</time>
      </trkpt>
      <trkpt lat="43.84802000" lon="10.50696000">
        <ele>22.000000</ele>
        <time>2010-01-01T10:19:42Z</time>
      </trkpt>
      <trkpt lat="43.84791000" lon="10.50705000">
        <ele>22.000000</ele>
        <time>2010-01-01T10:19:47Z</time>
      </trkpt>
      <trkpt lat="43.84766000" lon="10.50724000">
        <ele>21.000000</ele>
        <time>2010-01-01T10:19:59Z</time>
      </trkpt>
      <trkpt lat="43.84764000" lon="10.50728000">
        <ele>21.000000</ele>
        <time>2010-01-01T10:20:00Z</time>
      </trkpt>
      <trkpt lat="43.84763000" lon="10.50728000">
        <ele>21.000000</ele>
        <time>2010-01-01T10:20:00Z</time>
      </trkpt>
      <trkpt lat="43.84760000" lon="10.50735000">
        <ele>21.000000</ele>
        <time>2010-01-01T10:20:03Z</time>
      </trkpt>
      <trkpt lat="43.84760000" lon="10.50737000">
        <ele>21.000000</ele>
        <time>2010-01-01T10:20:03Z</time>
      </trkpt>
      <trkpt lat="43.84742000" lon="10.50755000">
        <ele>21.000000</ele>
        <time>2010-01-01T10:20:12Z</time>
      </trkpt>
      <trkpt lat="43.84736000" lon="10.50772000">
        <ele>21.000000</ele>
        <time>2010-01-01T10:20:18Z</time>
      </trkpt>
      <trkpt lat="43.84724000" lon="10.50765000">
        <ele>21.000000</ele>
        <time>2010-01-01T10:20:23Z</time>
      </trkpt>
      <trkpt lat="43.84707000" lon="10.50757000">
        <ele>22.000000</ele>
        <time>2010-01-01T10:20:30Z</time>
      </trkpt>
      <trkpt lat="43.84693000" lon="10.50760000">
        <ele>22.000000</ele>
        <time>2010-01-01T10:20:36Z</time>
      </trkpt>
      <trkpt lat="43.84679000" lon="10.50772000">
        <ele>22.000000</ele>
        <time>2010-01-01T10:20:42Z</time>
      </trkpt>
      <trkpt lat="43.84643000" lon="10.50722000">
        <ele>23.000000</ele>
        <time>2010-01-01T10:21:03Z</time>
      </trkpt>
      <trkpt lat="43.84637000" lon="10.50702000">
        <ele>24.000000</ele>
        <time>2010-01-01T10:21:09Z</time>
      </trkpt>
      <trkpt lat="43.84622000" lon="10.50665000">
        <ele>26.000000</ele>
        <time>2010-01-01T10:21:21Z</time>
      </trkpt>
      <trkpt lat="43.84606000" lon="10.50633000">
        <ele>26.000000</ele>
        <time>2010-01-01T10:21:32Z</time>
      </trkpt>
      <trkpt lat="43.84582000" lon="10.50591000">
        <ele>26.000000</ele>
        <time>2010-01-01T10:21:48Z</time>
      </trkpt>
      <trkpt lat="43.84576000" lon="10.50608000">
        <ele>25.000000</ele>
        <time>2010-01-01T10:21:53Z</time>
      </trkpt>
      <trkpt lat="43.84572000" lon="10.50630000">
        <ele>24.000000</ele>
        <time>2010-01-01T10:22:00Z</time>
      </trkpt>
      <trkpt lat="43.84556000" lon="10.50624000">
        <ele>24.000000</ele>
        <time>2010-01-01T10:22:07Z</time>
      </trkpt>
      <trkpt lat="43.84557000" lon="10.50622000">
        <ele>24.000000</ele>
        <time>2010-01-01T10:22:07Z</time>
      </trkpt>
      <trkpt lat="43.84533350" lon="10.50568690">
        <ele>26.000000</ele>
        <time>2010-01-01T10:22:25Z</time>
      </trkpt>
      <trkpt lat="43.84530000" lon="10.50542000">
        <ele>27.000000</ele>
        <time>2010-01-01T10:22:33Z</time>
      </trkpt>
      <trkpt lat="43.84549000" lon="10.50522000">
        <ele>28.000000</ele>
        <time>2010-01-01T10:22:43Z</time>
      </trkpt>
      <trkpt lat="43.84492000" lon="10.50438000">
        <ele>29.000000</ele>
        <time>2010-01-01T10:23:16Z</time>
      </trkpt>
      <trkpt lat="43.84471000" lon="10.50426000">
        <ele>29.000000</ele>
        <time>2010-01-01T10:23:25Z</time>
      </trkpt>
      <trkpt lat="43.84385000" lon="10.50412000">
        <ele>27.000000</ele>
        <time>2010-01-01T10:24:00Z</time>
      </trkpt>
      <trkpt lat="43.84266780" lon="10.50404010">
        <ele>30.000000</ele>
        <time>2010-01-01T10:24:47Z</time>
      </trkpt>
      <trkpt lat="43.84259810" lon="10.50527930">
        <ele>28.000000</ele>
        <time>2010-01-01T10:25:23Z</time>
      </trkpt>
      <trkpt lat="43.84224220" lon="10.50513440">
        <ele>29.000000</ele>
        <time>2010-01-01T10:25:38Z</time>
      </trkpt>
      <trkpt lat="43.84194430" lon="10.50486620">
        <ele>28.000000</ele>
        <time>2010-01-01T10:25:52Z</time>
      </trkpt>
      <trkpt lat="43.84180500" lon="10.50476960">
        <ele>27.000000</ele>
        <time>2010-01-01T10:25:58Z</time>
      </trkpt>
      <trkpt lat="43.84165800" lon="10.50474820">
        <ele>25.000000</ele>
        <time>2010-01-01T10:26:04Z</time>
      </trkpt>
      <trkpt lat="43.84161150" lon="10.50535440">
        <ele>23.000000</ele>
        <time>2010-01-01T10:26:22Z</time>
      </trkpt>
      <trkpt lat="43.84091890" lon="10.50528460">
        <ele>19.000000</ele>
        <time>2010-01-01T10:26:50Z</time>
      </trkpt>
      <trkpt lat="43.84104660" lon="10.50343930">
        <ele>22.000000</ele>
        <time>2010-01-01T10:27:43Z</time>
      </trkpt>
      <trkpt lat="43.84077190" lon="10.50275800">
        <ele>24.000000</ele>
        <time>2010-01-01T10:28:06Z</time>
      </trkpt>
      <trkpt lat="43.84023020" lon="10.50248440">
        <ele>23.000000</ele>
        <time>2010-01-01T10:28:29Z</time>
      </trkpt>
      <trkpt lat="43.83938290" lon="10.50245220">
        <ele>21.000000</ele>
        <time>2010-01-01T10:29:03Z</time>
      </trkpt>
      <trkpt lat="43.83940000" lon="10.50178000">
        <ele>21.000000</ele>
        <time>2010-01-01T10:29:22Z</time>
      </trkpt>
      <trkpt lat="43.83880000" lon="10.50168000">
        <ele>22.000000</ele>
        <time>2010-01-01T10:29:46Z</time>
      </trkpt>
      <trkpt lat="43.83886000" lon="10.50135000">
        <ele>21.000000</ele>
        <time>2010-01-01T10:29:56Z</time>
      </trkpt>
      <trkpt lat="43.83948000" lon="10.49963000">
        <ele>17.000000</ele>
        <time>2010-01-01T10:30:52Z</time>
      </trkpt>
      <trkpt lat="43.83982000" lon="10.49870000">
        <ele>21.000000</ele>
        <time>2010-01-01T10:31:22Z</time>
      </trkpt>
      <trkpt lat="43.84030000" lon="10.49737000">
        <ele>25.000000</ele>
        <time>2010-01-01T10:32:05Z</time>
      </trkpt>
      <trkpt lat="43.84046000" lon="10.49701000">
        <ele>24.000000</ele>
        <time>2010-01-01T10:32:17Z</time>
      </trkpt>
      <trkpt lat="43.84057000" lon="10.49683000">
        <ele>24.000000</ele>
        <time>2010-01-01T10:32:24Z</time>
      </trkpt>
      <trkpt lat="43.84246000" lon="10.49585000">
        <ele>19.000000</ele>
        <time>2010-01-01T10:33:44Z</time>
      </trkpt>
      <trkpt lat="43.84287000" lon="10.49564000">
        <ele>21.000000</ele>
        <time>2010-01-01T10:34:02Z</time>
      </trkpt>
      <trkpt lat="43.84297000" lon="10.49561000">
        <ele>22.000000</ele>
        <time>2010-01-01T10:34:06Z</time>
      </trkpt>
      <trkpt lat="43.84313000" lon="10.49561000">
        <ele>24.000000</ele>
        <time>2010-01-01T10:34:12Z</time>
      </trkpt>
      <trkpt lat="43.84326000" lon="10.49563000">
        <ele>24.000000</ele>
        <time>2010-01-01T10:34:18Z</time>
      </trkpt>
      <trkpt lat="43.84316000" lon="10.49702000">
        <ele>18.000000</ele>
        <time>2010-01-01T10:34:58Z</time>
      </trkpt>
      <trkpt lat="43.84314000" lon="10.49714000">
        <ele>19.000000</ele>
        <time>2010-01-01T10:35:02Z</time>
      </trkpt>
      <trkpt lat="43.84257000" lon="10.49633000">
        <ele>18.000000</ele>
        <time>2010-01-01T10:35:34Z</time>
      </trkpt>
      <trkpt lat="43.84248000" lon="10.49616000">
        <ele>18.000000</ele>
        <time>2010-01-01T10:35:40Z</time>
      </trkpt>
      <trkpt lat="43.84239000" lon="10.49596000">
        <ele>19.000000</ele>
        <time>2010-01-01T10:35:47Z</time>
      </trkpt>
      <trkpt lat="43.84230000" lon="10.49561000">
        <ele>19.000000</ele>
        <time>2010-01-01T10:35:58Z</time>
      </trkpt>
      <trkpt lat="43.84226000" lon="10.49534000">
        <ele>19.000000</ele>
        <time>2010-01-01T10:36:06Z</time>
      </trkpt>
      <trkpt lat="43.84215000" lon="10.49517000">
        <ele>18.000000</ele>
        <time>2010-01-01T10:36:12Z</time>
      </trkpt>
      <trkpt lat="43.84219000" lon="10.49512000">
        <ele>18.000000</ele>
        <time>2010-01-01T10:36:15Z</time>
      </trkpt>
      <trkpt lat="43.84229000" lon="10.49451000">
        <ele>18.000000</ele>
        <time>2010-01-01T10:36:33Z</time>
      </trkpt>
      <trkpt lat="43.84240000" lon="10.49412000">
        <ele>16.000000</ele>
        <time>2010-01-01T10:36:45Z</time>
      </trkpt>
      <trkpt lat="43.84306000" lon="10.49121000">
        <ele>17.000000</ele>
        <time>2010-01-01T10:38:13Z</time>
      </trkpt>
      <trkpt lat="43.84197000" lon="10.49056000">
        <ele>17.000000</ele>
        <time>2010-01-01T10:39:00Z</time>
      </trkpt>
      <trkpt lat="43.84080000" lon="10.48992000">
        <ele>16.000000</ele>
        <time>2010-01-01T10:39:51Z</time>
      </trkpt>
      <trkpt lat="43.84076000" lon="10.48979000">
        <ele>16.000000</ele>
        <time>2010-01-01T10:39:55Z</time>
      </trkpt>
      <trkpt lat="43.84071000" lon="10.48976000">
        <ele>16.000000</ele>
        <time>2010-01-01T10:39:57Z</time>
      </trkpt>
      <trkpt lat="43.84062880" lon="10.48980830">
        <ele>16.000000</ele>
        <time>2010-01-01T10:40:00Z</time>
      </trkpt>
      <trkpt lat="43.83996000" lon="10.48948000">
        <ele>14.000000</ele>
        <time>2010-01-01T10:40:29Z</time>
      </trkpt>
      <trkpt lat="43.83980000" lon="10.48935000">
        <ele>14.000000</ele>
        <time>2010-01-01T10:40:36Z</time>
      </trkpt>
      <trkpt lat="43.83956470" lon="10.48908940">
        <ele>15.000000</ele>
        <time>2010-01-01T10:40:48Z</time>
      </trkpt>
      <trkpt lat="43.83939000" lon="10.48901000">
        <ele>15.000000</ele>
        <time>2010-01-01T10:40:56Z</time>
      </trkpt>
      <trkpt lat="43.83891000" lon="10.48889000">
        <ele>14.000000</ele>
        <time>2010-01-01T10:41:15Z</time>
      </trkpt>
      <trkpt lat="43.83867000" lon="10.48887000">
        <ele>15.000000</ele>
        <time>2010-01-01T10:41:25Z</time>
      </trkpt>
      <trkpt lat="43.83824000" lon="10.48889000">
        <ele>16.000000</ele>
        <time>2010-01-01T10:41:42Z</time>
      </trkpt>
      <trkpt lat="43.83811000" lon="10.48888000">
        <ele>15.000000</ele>
        <time>2010-01-01T10:41:47Z</time>
      </trkpt>
      <trkpt lat="43.83799000" lon="10.48881000">
        <ele>15.000000</ele>
        <time>2010-01-01T10:41:53Z</time>
      </trkpt>
      <trkpt lat="43.83794000" lon="10.48875000">
        <ele>15.000000</ele>
        <time>2010-01-01T10:41:55Z</time>
      </trkpt>
      <trkpt lat="43.83774000" lon="10.48828000">
        <ele>14.000000</ele>
        <time>2010-01-01T10:42:11Z</time>
      </trkpt>
      <trkpt lat="43.83759000" lon="10.48831000">
        <ele>14.000000</ele>
        <time>2010-01-01T10:42:17Z</time>
      </trkpt>
      <trkpt lat="43.83709000" lon="10.48832000">
        <ele>14.000000</ele>
        <time>2010-01-01T10:42:37Z</time>
      </trkpt>
      <trkpt lat="43.83631000" lon="10.48824000">
        <ele>14.000000</ele>
        <time>2010-01-01T10:43:08Z</time>
      </trkpt>
      <trkpt lat="43.83555000" lon="10.48805000">
        <ele>15.000000</ele>
        <time>2010-01-01T10:43:39Z</time>
      </trkpt>
      <trkpt lat="43.83494460" lon="10.48802730">
        <ele>15.000000</ele>
        <time>2010-01-01T10:44:03Z</time>
      </trkpt>
    </trkseg>
  </trk>
</gpx>

